<?xml version="1.0" encoding="UTF-8" standalone="no" ?>
<gpx xmlns="http://www.topografix.com/GPX/1/1" xmlns:xsi="http://www.w3.org/2001/XMLSchema-instance" xsi:schemaLocation="http://www.topografix.com/GPX/1/1 http://www.topografix.com/GPX/1/1/gpx.xsd" version="1.1" creator="VisuGPX - https://www.visugpx.com">
  <metadata>
    <name>Siou Blanc, Pont Naturel ** (Signes 83)</name>
    <desc><![CDATA[Citerne neuve, Barre des Bidoufles, Pont Naturel, Ubac de Valbelle]]></desc>
  </metadata>
  <trk>
    <name><![CDATA[SIOU BLANC172:47]]></name>
    <trkseg>
      <trkpt lat="43.23041" lon="5.9205">
        <ele>572.12</ele>
        <time>2017-03-09T08:58:28Z</time>
      </trkpt>
      <trkpt lat="43.23042" lon="5.92049">
        <ele>572.12</ele>
        <time>2017-03-09T08:58:51Z</time>
      </trkpt>
      <trkpt lat="43.23042" lon="5.92051">
        <ele>573.08</ele>
        <time>2017-03-09T08:59:10Z</time>
      </trkpt>
      <trkpt lat="43.23043" lon="5.92052">
        <ele>573.08</ele>
        <time>2017-03-09T08:59:21Z</time>
      </trkpt>
      <trkpt lat="43.23047" lon="5.92053">
        <ele>574.04</ele>
        <time>2017-03-09T08:59:37Z</time>
      </trkpt>
      <trkpt lat="43.2305" lon="5.92054">
        <ele>573.56</ele>
        <time>2017-03-09T08:59:52Z</time>
      </trkpt>
      <trkpt lat="43.23059" lon="5.92052">
        <ele>574.04</ele>
        <time>2017-03-09T09:00:03Z</time>
      </trkpt>
      <trkpt lat="43.2306" lon="5.92054">
        <ele>573.56</ele>
        <time>2017-03-09T09:00:13Z</time>
      </trkpt>
      <trkpt lat="43.23065" lon="5.92057">
        <ele>574.04</ele>
        <time>2017-03-09T09:00:18Z</time>
      </trkpt>
      <trkpt lat="43.23069" lon="5.92062">
        <ele>574.04</ele>
        <time>2017-03-09T09:00:25Z</time>
      </trkpt>
      <trkpt lat="43.23075" lon="5.92072">
        <ele>574.53</ele>
        <time>2017-03-09T09:00:33Z</time>
      </trkpt>
      <trkpt lat="43.23076" lon="5.92073">
        <ele>574.53</ele>
        <time>2017-03-09T09:00:35Z</time>
      </trkpt>
      <trkpt lat="43.23078" lon="5.92076">
        <ele>574.53</ele>
        <time>2017-03-09T09:00:38Z</time>
      </trkpt>
      <trkpt lat="43.23081" lon="5.92078">
        <ele>574.53</ele>
        <time>2017-03-09T09:00:41Z</time>
      </trkpt>
      <trkpt lat="43.23082" lon="5.9208">
        <ele>574.53</ele>
        <time>2017-03-09T09:00:43Z</time>
      </trkpt>
      <trkpt lat="43.23086" lon="5.92081">
        <ele>574.53</ele>
        <time>2017-03-09T09:00:46Z</time>
      </trkpt>
      <trkpt lat="43.23089" lon="5.92089">
        <ele>574.53</ele>
        <time>2017-03-09T09:00:52Z</time>
      </trkpt>
      <trkpt lat="43.23092" lon="5.92098">
        <ele>574.53</ele>
        <time>2017-03-09T09:00:59Z</time>
      </trkpt>
      <trkpt lat="43.23093" lon="5.92101">
        <ele>574.53</ele>
        <time>2017-03-09T09:01:01Z</time>
      </trkpt>
      <trkpt lat="43.23095" lon="5.92102">
        <ele>574.53</ele>
        <time>2017-03-09T09:01:03Z</time>
      </trkpt>
      <trkpt lat="43.23101" lon="5.92107">
        <ele>574.53</ele>
        <time>2017-03-09T09:01:11Z</time>
      </trkpt>
      <trkpt lat="43.23105" lon="5.92109">
        <ele>574.04</ele>
        <time>2017-03-09T09:01:14Z</time>
      </trkpt>
      <trkpt lat="43.23111" lon="5.92115">
        <ele>574.04</ele>
        <time>2017-03-09T09:01:21Z</time>
      </trkpt>
      <trkpt lat="43.23125" lon="5.92115">
        <ele>574.04</ele>
        <time>2017-03-09T09:01:32Z</time>
      </trkpt>
      <trkpt lat="43.23127" lon="5.92115">
        <ele>574.04</ele>
        <time>2017-03-09T09:01:34Z</time>
      </trkpt>
      <trkpt lat="43.2313" lon="5.92114">
        <ele>574.04</ele>
        <time>2017-03-09T09:01:37Z</time>
      </trkpt>
      <trkpt lat="43.23146" lon="5.92109">
        <ele>574.04</ele>
        <time>2017-03-09T09:01:50Z</time>
      </trkpt>
      <trkpt lat="43.2315" lon="5.92104">
        <ele>574.53</ele>
        <time>2017-03-09T09:01:54Z</time>
      </trkpt>
      <trkpt lat="43.23164" lon="5.921">
        <ele>574.04</ele>
        <time>2017-03-09T09:02:08Z</time>
      </trkpt>
      <trkpt lat="43.23164" lon="5.921">
        <ele>574.53</ele>
        <time>2017-03-09T09:02:09Z</time>
      </trkpt>
      <trkpt lat="43.23172" lon="5.92103">
        <ele>574.53</ele>
        <time>2017-03-09T09:02:17Z</time>
      </trkpt>
      <trkpt lat="43.23173" lon="5.92105">
        <ele>574.53</ele>
        <time>2017-03-09T09:02:18Z</time>
      </trkpt>
      <trkpt lat="43.23182" lon="5.9211">
        <ele>574.04</ele>
        <time>2017-03-09T09:02:24Z</time>
      </trkpt>
      <trkpt lat="43.23193" lon="5.92109">
        <ele>574.53</ele>
        <time>2017-03-09T09:02:31Z</time>
      </trkpt>
      <trkpt lat="43.23213" lon="5.92105">
        <ele>575.01</ele>
        <time>2017-03-09T09:02:42Z</time>
      </trkpt>
      <trkpt lat="43.23225" lon="5.92098">
        <ele>574.53</ele>
        <time>2017-03-09T09:02:55Z</time>
      </trkpt>
      <trkpt lat="43.23233" lon="5.92098">
        <ele>575.01</ele>
        <time>2017-03-09T09:03:06Z</time>
      </trkpt>
      <trkpt lat="43.23245" lon="5.92097">
        <ele>575.49</ele>
        <time>2017-03-09T09:03:16Z</time>
      </trkpt>
      <trkpt lat="43.23247" lon="5.92097">
        <ele>575.49</ele>
        <time>2017-03-09T09:03:18Z</time>
      </trkpt>
      <trkpt lat="43.23253" lon="5.92097">
        <ele>575.49</ele>
        <time>2017-03-09T09:03:24Z</time>
      </trkpt>
      <trkpt lat="43.23257" lon="5.92097">
        <ele>575.49</ele>
        <time>2017-03-09T09:03:29Z</time>
      </trkpt>
      <trkpt lat="43.23264" lon="5.92093">
        <ele>575.01</ele>
        <time>2017-03-09T09:03:44Z</time>
      </trkpt>
      <trkpt lat="43.23271" lon="5.92096">
        <ele>575.01</ele>
        <time>2017-03-09T09:03:58Z</time>
      </trkpt>
      <trkpt lat="43.23278" lon="5.921">
        <ele>575.01</ele>
        <time>2017-03-09T09:04:07Z</time>
      </trkpt>
      <trkpt lat="43.23284" lon="5.92106">
        <ele>574.53</ele>
        <time>2017-03-09T09:04:14Z</time>
      </trkpt>
      <trkpt lat="43.23288" lon="5.92109">
        <ele>574.53</ele>
        <time>2017-03-09T09:04:17Z</time>
      </trkpt>
      <trkpt lat="43.23296" lon="5.92113">
        <ele>574.04</ele>
        <time>2017-03-09T09:04:23Z</time>
      </trkpt>
      <trkpt lat="43.23299" lon="5.92114">
        <ele>574.04</ele>
        <time>2017-03-09T09:04:26Z</time>
      </trkpt>
      <trkpt lat="43.23302" lon="5.92118">
        <ele>574.53</ele>
        <time>2017-03-09T09:04:30Z</time>
      </trkpt>
      <trkpt lat="43.23305" lon="5.9212">
        <ele>574.53</ele>
        <time>2017-03-09T09:04:33Z</time>
      </trkpt>
      <trkpt lat="43.23314" lon="5.92127">
        <ele>574.53</ele>
        <time>2017-03-09T09:04:42Z</time>
      </trkpt>
      <trkpt lat="43.23325" lon="5.92127">
        <ele>573.08</ele>
        <time>2017-03-09T09:04:55Z</time>
      </trkpt>
      <trkpt lat="43.23331" lon="5.92123">
        <ele>573.08</ele>
        <time>2017-03-09T09:05:04Z</time>
      </trkpt>
      <trkpt lat="43.23338" lon="5.9212">
        <ele>573.08</ele>
        <time>2017-03-09T09:05:12Z</time>
      </trkpt>
      <trkpt lat="43.23346" lon="5.92121">
        <ele>573.08</ele>
        <time>2017-03-09T09:05:19Z</time>
      </trkpt>
      <trkpt lat="43.23356" lon="5.92125">
        <ele>572.12</ele>
        <time>2017-03-09T09:05:28Z</time>
      </trkpt>
      <trkpt lat="43.23359" lon="5.92126">
        <ele>572.12</ele>
        <time>2017-03-09T09:05:30Z</time>
      </trkpt>
      <trkpt lat="43.23366" lon="5.92133">
        <ele>572.12</ele>
        <time>2017-03-09T09:05:37Z</time>
      </trkpt>
      <trkpt lat="43.23369" lon="5.92135">
        <ele>572.6</ele>
        <time>2017-03-09T09:05:39Z</time>
      </trkpt>
      <trkpt lat="43.23372" lon="5.92136">
        <ele>572.6</ele>
        <time>2017-03-09T09:05:41Z</time>
      </trkpt>
      <trkpt lat="43.23381" lon="5.92144">
        <ele>571.64</ele>
        <time>2017-03-09T09:05:48Z</time>
      </trkpt>
      <trkpt lat="43.23389" lon="5.92146">
        <ele>571.16</ele>
        <time>2017-03-09T09:05:54Z</time>
      </trkpt>
      <trkpt lat="43.23394" lon="5.92145">
        <ele>570.68</ele>
        <time>2017-03-09T09:05:56Z</time>
      </trkpt>
      <trkpt lat="43.234" lon="5.92149">
        <ele>570.2</ele>
        <time>2017-03-09T09:06:00Z</time>
      </trkpt>
      <trkpt lat="43.23408" lon="5.92154">
        <ele>570.2</ele>
        <time>2017-03-09T09:06:06Z</time>
      </trkpt>
      <trkpt lat="43.23411" lon="5.92164">
        <ele>570.68</ele>
        <time>2017-03-09T09:06:11Z</time>
      </trkpt>
      <trkpt lat="43.23411" lon="5.92182">
        <ele>570.2</ele>
        <time>2017-03-09T09:06:21Z</time>
      </trkpt>
      <trkpt lat="43.23412" lon="5.92202">
        <ele>569.72</ele>
        <time>2017-03-09T09:06:33Z</time>
      </trkpt>
      <trkpt lat="43.23413" lon="5.92207">
        <ele>569.24</ele>
        <time>2017-03-09T09:06:37Z</time>
      </trkpt>
      <trkpt lat="43.23422" lon="5.92227">
        <ele>568.76</ele>
        <time>2017-03-09T09:06:51Z</time>
      </trkpt>
      <trkpt lat="43.23426" lon="5.92232">
        <ele>568.76</ele>
        <time>2017-03-09T09:06:57Z</time>
      </trkpt>
      <trkpt lat="43.23428" lon="5.92234">
        <ele>569.24</ele>
        <time>2017-03-09T09:06:59Z</time>
      </trkpt>
      <trkpt lat="43.23433" lon="5.92237">
        <ele>569.24</ele>
        <time>2017-03-09T09:07:03Z</time>
      </trkpt>
      <trkpt lat="43.2344" lon="5.92244">
        <ele>569.72</ele>
        <time>2017-03-09T09:07:11Z</time>
      </trkpt>
      <trkpt lat="43.23445" lon="5.92248">
        <ele>570.2</ele>
        <time>2017-03-09T09:07:16Z</time>
      </trkpt>
      <trkpt lat="43.23447" lon="5.92249">
        <ele>570.2</ele>
        <time>2017-03-09T09:07:18Z</time>
      </trkpt>
      <trkpt lat="43.23456" lon="5.92253">
        <ele>569.72</ele>
        <time>2017-03-09T09:07:25Z</time>
      </trkpt>
      <trkpt lat="43.23461" lon="5.92255">
        <ele>570.2</ele>
        <time>2017-03-09T09:07:30Z</time>
      </trkpt>
      <trkpt lat="43.23472" lon="5.9225">
        <ele>570.2</ele>
        <time>2017-03-09T09:07:39Z</time>
      </trkpt>
      <trkpt lat="43.23479" lon="5.92247">
        <ele>570.2</ele>
        <time>2017-03-09T09:07:46Z</time>
      </trkpt>
      <trkpt lat="43.23482" lon="5.92247">
        <ele>570.2</ele>
        <time>2017-03-09T09:07:48Z</time>
      </trkpt>
      <trkpt lat="43.23496" lon="5.92242">
        <ele>570.68</ele>
        <time>2017-03-09T09:08:01Z</time>
      </trkpt>
      <trkpt lat="43.23509" lon="5.92245">
        <ele>570.68</ele>
        <time>2017-03-09T09:08:13Z</time>
      </trkpt>
      <trkpt lat="43.23513" lon="5.92246">
        <ele>570.68</ele>
        <time>2017-03-09T09:08:17Z</time>
      </trkpt>
      <trkpt lat="43.23523" lon="5.92257">
        <ele>570.68</ele>
        <time>2017-03-09T09:08:29Z</time>
      </trkpt>
      <trkpt lat="43.23531" lon="5.92268">
        <ele>570.68</ele>
        <time>2017-03-09T09:08:41Z</time>
      </trkpt>
      <trkpt lat="43.23533" lon="5.92274">
        <ele>570.68</ele>
        <time>2017-03-09T09:08:46Z</time>
      </trkpt>
      <trkpt lat="43.23532" lon="5.92291">
        <ele>571.16</ele>
        <time>2017-03-09T09:08:57Z</time>
      </trkpt>
      <trkpt lat="43.23532" lon="5.92294">
        <ele>571.16</ele>
        <time>2017-03-09T09:08:59Z</time>
      </trkpt>
      <trkpt lat="43.23527" lon="5.92311">
        <ele>571.16</ele>
        <time>2017-03-09T09:09:11Z</time>
      </trkpt>
      <trkpt lat="43.23524" lon="5.92321">
        <ele>571.16</ele>
        <time>2017-03-09T09:09:18Z</time>
      </trkpt>
      <trkpt lat="43.23513" lon="5.92341">
        <ele>570.68</ele>
        <time>2017-03-09T09:09:33Z</time>
      </trkpt>
      <trkpt lat="43.2351" lon="5.92345">
        <ele>570.68</ele>
        <time>2017-03-09T09:09:37Z</time>
      </trkpt>
      <trkpt lat="43.23506" lon="5.9236">
        <ele>570.68</ele>
        <time>2017-03-09T09:09:49Z</time>
      </trkpt>
      <trkpt lat="43.23506" lon="5.92364">
        <ele>570.68</ele>
        <time>2017-03-09T09:09:52Z</time>
      </trkpt>
      <trkpt lat="43.23505" lon="5.92369">
        <ele>570.68</ele>
        <time>2017-03-09T09:09:55Z</time>
      </trkpt>
      <trkpt lat="43.23504" lon="5.92377">
        <ele>571.16</ele>
        <time>2017-03-09T09:10:01Z</time>
      </trkpt>
      <trkpt lat="43.23502" lon="5.92385">
        <ele>571.16</ele>
        <time>2017-03-09T09:10:06Z</time>
      </trkpt>
      <trkpt lat="43.23492" lon="5.92409">
        <ele>570.68</ele>
        <time>2017-03-09T09:10:20Z</time>
      </trkpt>
      <trkpt lat="43.23492" lon="5.9241">
        <ele>570.68</ele>
        <time>2017-03-09T09:10:21Z</time>
      </trkpt>
      <trkpt lat="43.23486" lon="5.92433">
        <ele>570.68</ele>
        <time>2017-03-09T09:10:35Z</time>
      </trkpt>
      <trkpt lat="43.23485" lon="5.9244">
        <ele>570.68</ele>
        <time>2017-03-09T09:10:40Z</time>
      </trkpt>
      <trkpt lat="43.23483" lon="5.92446">
        <ele>570.68</ele>
        <time>2017-03-09T09:10:45Z</time>
      </trkpt>
      <trkpt lat="43.23481" lon="5.92463">
        <ele>570.2</ele>
        <time>2017-03-09T09:10:58Z</time>
      </trkpt>
      <trkpt lat="43.23485" lon="5.92472">
        <ele>570.68</ele>
        <time>2017-03-09T09:11:10Z</time>
      </trkpt>
      <trkpt lat="43.23486" lon="5.92472">
        <ele>570.68</ele>
        <time>2017-03-09T09:11:12Z</time>
      </trkpt>
      <trkpt lat="43.23488" lon="5.9248">
        <ele>571.16</ele>
        <time>2017-03-09T09:11:21Z</time>
      </trkpt>
      <trkpt lat="43.23492" lon="5.92491">
        <ele>571.16</ele>
        <time>2017-03-09T09:11:30Z</time>
      </trkpt>
      <trkpt lat="43.23496" lon="5.9249">
        <ele>571.16</ele>
        <time>2017-03-09T09:11:33Z</time>
      </trkpt>
      <trkpt lat="43.23501" lon="5.92497">
        <ele>571.16</ele>
        <time>2017-03-09T09:11:42Z</time>
      </trkpt>
      <trkpt lat="43.23508" lon="5.92498">
        <ele>571.16</ele>
        <time>2017-03-09T09:11:48Z</time>
      </trkpt>
      <trkpt lat="43.23514" lon="5.92504">
        <ele>571.16</ele>
        <time>2017-03-09T09:11:53Z</time>
      </trkpt>
      <trkpt lat="43.23516" lon="5.92512">
        <ele>571.16</ele>
        <time>2017-03-09T09:11:58Z</time>
      </trkpt>
      <trkpt lat="43.23517" lon="5.9252">
        <ele>571.16</ele>
        <time>2017-03-09T09:12:03Z</time>
      </trkpt>
      <trkpt lat="43.23516" lon="5.92533">
        <ele>570.68</ele>
        <time>2017-03-09T09:12:10Z</time>
      </trkpt>
      <trkpt lat="43.2352" lon="5.9255">
        <ele>570.68</ele>
        <time>2017-03-09T09:12:22Z</time>
      </trkpt>
      <trkpt lat="43.2352" lon="5.92551">
        <ele>570.68</ele>
        <time>2017-03-09T09:12:23Z</time>
      </trkpt>
      <trkpt lat="43.23523" lon="5.92557">
        <ele>570.68</ele>
        <time>2017-03-09T09:12:27Z</time>
      </trkpt>
      <trkpt lat="43.23526" lon="5.92567">
        <ele>570.68</ele>
        <time>2017-03-09T09:12:34Z</time>
      </trkpt>
      <trkpt lat="43.23528" lon="5.9257">
        <ele>570.68</ele>
        <time>2017-03-09T09:12:37Z</time>
      </trkpt>
      <trkpt lat="43.23525" lon="5.92583">
        <ele>570.68</ele>
        <time>2017-03-09T09:12:49Z</time>
      </trkpt>
      <trkpt lat="43.23523" lon="5.92587">
        <ele>571.16</ele>
        <time>2017-03-09T09:13:02Z</time>
      </trkpt>
      <trkpt lat="43.23531" lon="5.92583">
        <ele>571.64</ele>
        <time>2017-03-09T09:13:12Z</time>
      </trkpt>
      <trkpt lat="43.23528" lon="5.92583">
        <ele>571.16</ele>
        <time>2017-03-09T09:13:27Z</time>
      </trkpt>
      <trkpt lat="43.2353" lon="5.92582">
        <ele>571.64</ele>
        <time>2017-03-09T09:13:47Z</time>
      </trkpt>
      <trkpt lat="43.2353" lon="5.92582">
        <ele>571.64</ele>
        <time>2017-03-09T09:13:59Z</time>
      </trkpt>
      <trkpt lat="43.23532" lon="5.92583">
        <ele>571.64</ele>
        <time>2017-03-09T09:14:14Z</time>
      </trkpt>
      <trkpt lat="43.2353" lon="5.92583">
        <ele>572.12</ele>
        <time>2017-03-09T09:14:26Z</time>
      </trkpt>
      <trkpt lat="43.23529" lon="5.92583">
        <ele>572.6</ele>
        <time>2017-03-09T09:14:37Z</time>
      </trkpt>
      <trkpt lat="43.2353" lon="5.92583">
        <ele>572.6</ele>
        <time>2017-03-09T09:14:56Z</time>
      </trkpt>
      <trkpt lat="43.23531" lon="5.92585">
        <ele>573.08</ele>
        <time>2017-03-09T09:15:08Z</time>
      </trkpt>
      <trkpt lat="43.23531" lon="5.92587">
        <ele>573.56</ele>
        <time>2017-03-09T09:15:28Z</time>
      </trkpt>
      <trkpt lat="43.23531" lon="5.92587">
        <ele>573.08</ele>
        <time>2017-03-09T09:15:32Z</time>
      </trkpt>
      <trkpt lat="43.23531" lon="5.92592">
        <ele>573.08</ele>
        <time>2017-03-09T09:15:36Z</time>
      </trkpt>
      <trkpt lat="43.23535" lon="5.92606">
        <ele>573.08</ele>
        <time>2017-03-09T09:15:48Z</time>
      </trkpt>
      <trkpt lat="43.23535" lon="5.92607">
        <ele>573.08</ele>
        <time>2017-03-09T09:15:56Z</time>
      </trkpt>
      <trkpt lat="43.2354" lon="5.9261">
        <ele>572.6</ele>
        <time>2017-03-09T09:16:01Z</time>
      </trkpt>
      <trkpt lat="43.23551" lon="5.92613">
        <ele>574.04</ele>
        <time>2017-03-09T09:16:15Z</time>
      </trkpt>
      <trkpt lat="43.23552" lon="5.92613">
        <ele>574.04</ele>
        <time>2017-03-09T09:16:17Z</time>
      </trkpt>
      <trkpt lat="43.23557" lon="5.92618">
        <ele>573.56</ele>
        <time>2017-03-09T09:16:31Z</time>
      </trkpt>
      <trkpt lat="43.23553" lon="5.9262">
        <ele>574.04</ele>
        <time>2017-03-09T09:16:43Z</time>
      </trkpt>
      <trkpt lat="43.23545" lon="5.92616">
        <ele>572.6</ele>
        <time>2017-03-09T09:16:59Z</time>
      </trkpt>
      <trkpt lat="43.23543" lon="5.92615">
        <ele>573.08</ele>
        <time>2017-03-09T09:17:03Z</time>
      </trkpt>
      <trkpt lat="43.23537" lon="5.9262">
        <ele>573.56</ele>
        <time>2017-03-09T09:17:09Z</time>
      </trkpt>
      <trkpt lat="43.23535" lon="5.92623">
        <ele>574.53</ele>
        <time>2017-03-09T09:17:17Z</time>
      </trkpt>
      <trkpt lat="43.23535" lon="5.92625">
        <ele>574.53</ele>
        <time>2017-03-09T09:17:19Z</time>
      </trkpt>
      <trkpt lat="43.23534" lon="5.92627">
        <ele>574.53</ele>
        <time>2017-03-09T09:17:21Z</time>
      </trkpt>
      <trkpt lat="43.23537" lon="5.92643">
        <ele>575.49</ele>
        <time>2017-03-09T09:17:33Z</time>
      </trkpt>
      <trkpt lat="43.23537" lon="5.92644">
        <ele>575.49</ele>
        <time>2017-03-09T09:17:34Z</time>
      </trkpt>
      <trkpt lat="43.23539" lon="5.92649">
        <ele>575.97</ele>
        <time>2017-03-09T09:17:38Z</time>
      </trkpt>
      <trkpt lat="43.2354" lon="5.92659">
        <ele>576.45</ele>
        <time>2017-03-09T09:17:46Z</time>
      </trkpt>
      <trkpt lat="43.23542" lon="5.92663">
        <ele>576.93</ele>
        <time>2017-03-09T09:17:50Z</time>
      </trkpt>
      <trkpt lat="43.23545" lon="5.9268">
        <ele>576.93</ele>
        <time>2017-03-09T09:18:03Z</time>
      </trkpt>
      <trkpt lat="43.23548" lon="5.92687">
        <ele>577.41</ele>
        <time>2017-03-09T09:18:10Z</time>
      </trkpt>
      <trkpt lat="43.23555" lon="5.92698">
        <ele>577.41</ele>
        <time>2017-03-09T09:18:22Z</time>
      </trkpt>
      <trkpt lat="43.23565" lon="5.92701">
        <ele>576.45</ele>
        <time>2017-03-09T09:18:33Z</time>
      </trkpt>
      <trkpt lat="43.23567" lon="5.92703">
        <ele>576.45</ele>
        <time>2017-03-09T09:18:36Z</time>
      </trkpt>
      <trkpt lat="43.23567" lon="5.92717">
        <ele>575.01</ele>
        <time>2017-03-09T09:18:48Z</time>
      </trkpt>
      <trkpt lat="43.23565" lon="5.92719">
        <ele>574.53</ele>
        <time>2017-03-09T09:18:51Z</time>
      </trkpt>
      <trkpt lat="43.23562" lon="5.92722">
        <ele>574.04</ele>
        <time>2017-03-09T09:18:56Z</time>
      </trkpt>
      <trkpt lat="43.2356" lon="5.92725">
        <ele>574.04</ele>
        <time>2017-03-09T09:18:59Z</time>
      </trkpt>
      <trkpt lat="43.23558" lon="5.92728">
        <ele>573.56</ele>
        <time>2017-03-09T09:19:02Z</time>
      </trkpt>
      <trkpt lat="43.23549" lon="5.92741">
        <ele>572.6</ele>
        <time>2017-03-09T09:19:14Z</time>
      </trkpt>
      <trkpt lat="43.23544" lon="5.92748">
        <ele>572.12</ele>
        <time>2017-03-09T09:19:22Z</time>
      </trkpt>
      <trkpt lat="43.23535" lon="5.92759">
        <ele>571.64</ele>
        <time>2017-03-09T09:19:35Z</time>
      </trkpt>
      <trkpt lat="43.23529" lon="5.9277">
        <ele>572.12</ele>
        <time>2017-03-09T09:19:47Z</time>
      </trkpt>
      <trkpt lat="43.23524" lon="5.92785">
        <ele>573.08</ele>
        <time>2017-03-09T09:19:59Z</time>
      </trkpt>
      <trkpt lat="43.23516" lon="5.92802">
        <ele>573.56</ele>
        <time>2017-03-09T09:20:12Z</time>
      </trkpt>
      <trkpt lat="43.23516" lon="5.92803">
        <ele>574.04</ele>
        <time>2017-03-09T09:20:13Z</time>
      </trkpt>
      <trkpt lat="43.23507" lon="5.92817">
        <ele>575.49</ele>
        <time>2017-03-09T09:20:27Z</time>
      </trkpt>
      <trkpt lat="43.23501" lon="5.92832">
        <ele>576.45</ele>
        <time>2017-03-09T09:20:40Z</time>
      </trkpt>
      <trkpt lat="43.23497" lon="5.92837">
        <ele>577.41</ele>
        <time>2017-03-09T09:20:48Z</time>
      </trkpt>
      <trkpt lat="43.23493" lon="5.92845">
        <ele>577.41</ele>
        <time>2017-03-09T09:21:00Z</time>
      </trkpt>
      <trkpt lat="43.23493" lon="5.92846">
        <ele>577.41</ele>
        <time>2017-03-09T09:21:01Z</time>
      </trkpt>
      <trkpt lat="43.23491" lon="5.92848">
        <ele>577.41</ele>
        <time>2017-03-09T09:21:05Z</time>
      </trkpt>
      <trkpt lat="43.23489" lon="5.92851">
        <ele>577.41</ele>
        <time>2017-03-09T09:21:07Z</time>
      </trkpt>
      <trkpt lat="43.23476" lon="5.92863">
        <ele>576.93</ele>
        <time>2017-03-09T09:21:21Z</time>
      </trkpt>
      <trkpt lat="43.23467" lon="5.92871">
        <ele>576.45</ele>
        <time>2017-03-09T09:21:33Z</time>
      </trkpt>
      <trkpt lat="43.23464" lon="5.92879">
        <ele>577.41</ele>
        <time>2017-03-09T09:21:47Z</time>
      </trkpt>
      <trkpt lat="43.23462" lon="5.92884">
        <ele>577.41</ele>
        <time>2017-03-09T09:21:58Z</time>
      </trkpt>
      <trkpt lat="43.23458" lon="5.92888">
        <ele>577.89</ele>
        <time>2017-03-09T09:22:10Z</time>
      </trkpt>
      <trkpt lat="43.23455" lon="5.9289">
        <ele>578.37</ele>
        <time>2017-03-09T09:22:27Z</time>
      </trkpt>
      <trkpt lat="43.23453" lon="5.92896">
        <ele>578.85</ele>
        <time>2017-03-09T09:22:39Z</time>
      </trkpt>
      <trkpt lat="43.23455" lon="5.92896">
        <ele>578.37</ele>
        <time>2017-03-09T09:22:54Z</time>
      </trkpt>
      <trkpt lat="43.23454" lon="5.92896">
        <ele>579.81</ele>
        <time>2017-03-09T09:23:22Z</time>
      </trkpt>
      <trkpt lat="43.23452" lon="5.92895">
        <ele>579.81</ele>
        <time>2017-03-09T09:23:36Z</time>
      </trkpt>
      <trkpt lat="43.23452" lon="5.92895">
        <ele>579.81</ele>
        <time>2017-03-09T09:23:55Z</time>
      </trkpt>
      <trkpt lat="43.23446" lon="5.92905">
        <ele>580.77</ele>
        <time>2017-03-09T09:24:07Z</time>
      </trkpt>
      <trkpt lat="43.23435" lon="5.92908">
        <ele>581.73</ele>
        <time>2017-03-09T09:24:19Z</time>
      </trkpt>
      <trkpt lat="43.23427" lon="5.92916">
        <ele>583.18</ele>
        <time>2017-03-09T09:24:34Z</time>
      </trkpt>
      <trkpt lat="43.23417" lon="5.92924">
        <ele>583.66</ele>
        <time>2017-03-09T09:24:43Z</time>
      </trkpt>
      <trkpt lat="43.23414" lon="5.92925">
        <ele>584.14</ele>
        <time>2017-03-09T09:24:46Z</time>
      </trkpt>
      <trkpt lat="43.23402" lon="5.92931">
        <ele>585.1</ele>
        <time>2017-03-09T09:24:58Z</time>
      </trkpt>
      <trkpt lat="43.23388" lon="5.92933">
        <ele>585.1</ele>
        <time>2017-03-09T09:25:13Z</time>
      </trkpt>
      <trkpt lat="43.23378" lon="5.92937">
        <ele>585.1</ele>
        <time>2017-03-09T09:25:23Z</time>
      </trkpt>
      <trkpt lat="43.23372" lon="5.92941">
        <ele>586.06</ele>
        <time>2017-03-09T09:25:34Z</time>
      </trkpt>
      <trkpt lat="43.23369" lon="5.92941">
        <ele>586.06</ele>
        <time>2017-03-09T09:25:45Z</time>
      </trkpt>
      <trkpt lat="43.23364" lon="5.92943">
        <ele>586.06</ele>
        <time>2017-03-09T09:25:57Z</time>
      </trkpt>
      <trkpt lat="43.23355" lon="5.92948">
        <ele>586.06</ele>
        <time>2017-03-09T09:26:11Z</time>
      </trkpt>
      <trkpt lat="43.23347" lon="5.92951">
        <ele>585.58</ele>
        <time>2017-03-09T09:26:22Z</time>
      </trkpt>
      <trkpt lat="43.23339" lon="5.92951">
        <ele>585.1</ele>
        <time>2017-03-09T09:26:36Z</time>
      </trkpt>
      <trkpt lat="43.23337" lon="5.92956">
        <ele>585.58</ele>
        <time>2017-03-09T09:26:46Z</time>
      </trkpt>
      <trkpt lat="43.23339" lon="5.92959">
        <ele>586.06</ele>
        <time>2017-03-09T09:26:52Z</time>
      </trkpt>
      <trkpt lat="43.23346" lon="5.92964">
        <ele>587.5</ele>
        <time>2017-03-09T09:27:03Z</time>
      </trkpt>
      <trkpt lat="43.23348" lon="5.92974">
        <ele>587.98</ele>
        <time>2017-03-09T09:27:14Z</time>
      </trkpt>
      <trkpt lat="43.23347" lon="5.92979">
        <ele>588.46</ele>
        <time>2017-03-09T09:27:27Z</time>
      </trkpt>
      <trkpt lat="43.23347" lon="5.92979">
        <ele>588.46</ele>
        <time>2017-03-09T09:27:30Z</time>
      </trkpt>
      <trkpt lat="43.23342" lon="5.92984">
        <ele>588.95</ele>
        <time>2017-03-09T09:27:44Z</time>
      </trkpt>
      <trkpt lat="43.2334" lon="5.92985">
        <ele>588.95</ele>
        <time>2017-03-09T09:27:46Z</time>
      </trkpt>
      <trkpt lat="43.23331" lon="5.92991">
        <ele>589.43</ele>
        <time>2017-03-09T09:27:58Z</time>
      </trkpt>
      <trkpt lat="43.23323" lon="5.93001">
        <ele>590.87</ele>
        <time>2017-03-09T09:28:11Z</time>
      </trkpt>
      <trkpt lat="43.23314" lon="5.93003">
        <ele>590.87</ele>
        <time>2017-03-09T09:28:23Z</time>
      </trkpt>
      <trkpt lat="43.23304" lon="5.93008">
        <ele>591.83</ele>
        <time>2017-03-09T09:28:34Z</time>
      </trkpt>
      <trkpt lat="43.23298" lon="5.93017">
        <ele>592.79</ele>
        <time>2017-03-09T09:28:46Z</time>
      </trkpt>
      <trkpt lat="43.23298" lon="5.93019">
        <ele>593.27</ele>
        <time>2017-03-09T09:28:59Z</time>
      </trkpt>
      <trkpt lat="43.23298" lon="5.93019">
        <ele>593.27</ele>
        <time>2017-03-09T09:29:00Z</time>
      </trkpt>
      <trkpt lat="43.23297" lon="5.93021">
        <ele>593.27</ele>
        <time>2017-03-09T09:29:02Z</time>
      </trkpt>
      <trkpt lat="43.23293" lon="5.9303">
        <ele>594.23</ele>
        <time>2017-03-09T09:29:10Z</time>
      </trkpt>
      <trkpt lat="43.23287" lon="5.93034">
        <ele>594.71</ele>
        <time>2017-03-09T09:29:16Z</time>
      </trkpt>
      <trkpt lat="43.23274" lon="5.93037">
        <ele>595.19</ele>
        <time>2017-03-09T09:29:31Z</time>
      </trkpt>
      <trkpt lat="43.2327" lon="5.93039">
        <ele>595.19</ele>
        <time>2017-03-09T09:29:44Z</time>
      </trkpt>
      <trkpt lat="43.23268" lon="5.9304">
        <ele>594.71</ele>
        <time>2017-03-09T09:29:47Z</time>
      </trkpt>
      <trkpt lat="43.23262" lon="5.93047">
        <ele>594.23</ele>
        <time>2017-03-09T09:29:56Z</time>
      </trkpt>
      <trkpt lat="43.23252" lon="5.93059">
        <ele>594.23</ele>
        <time>2017-03-09T09:30:09Z</time>
      </trkpt>
      <trkpt lat="43.23242" lon="5.93068">
        <ele>594.71</ele>
        <time>2017-03-09T09:30:20Z</time>
      </trkpt>
      <trkpt lat="43.23237" lon="5.93072">
        <ele>594.71</ele>
        <time>2017-03-09T09:30:26Z</time>
      </trkpt>
      <trkpt lat="43.23235" lon="5.93074">
        <ele>594.71</ele>
        <time>2017-03-09T09:30:28Z</time>
      </trkpt>
      <trkpt lat="43.2323" lon="5.93077">
        <ele>594.71</ele>
        <time>2017-03-09T09:30:34Z</time>
      </trkpt>
      <trkpt lat="43.23227" lon="5.93078">
        <ele>594.71</ele>
        <time>2017-03-09T09:30:36Z</time>
      </trkpt>
      <trkpt lat="43.23221" lon="5.93089">
        <ele>595.67</ele>
        <time>2017-03-09T09:30:48Z</time>
      </trkpt>
      <trkpt lat="43.23219" lon="5.93103">
        <ele>596.15</ele>
        <time>2017-03-09T09:30:59Z</time>
      </trkpt>
      <trkpt lat="43.23219" lon="5.93107">
        <ele>596.15</ele>
        <time>2017-03-09T09:31:02Z</time>
      </trkpt>
      <trkpt lat="43.23216" lon="5.93123">
        <ele>596.64</ele>
        <time>2017-03-09T09:31:14Z</time>
      </trkpt>
      <trkpt lat="43.23212" lon="5.93138">
        <ele>597.12</ele>
        <time>2017-03-09T09:31:26Z</time>
      </trkpt>
      <trkpt lat="43.23206" lon="5.93147">
        <ele>597.6</ele>
        <time>2017-03-09T09:31:38Z</time>
      </trkpt>
      <trkpt lat="43.23202" lon="5.93154">
        <ele>597.6</ele>
        <time>2017-03-09T09:31:45Z</time>
      </trkpt>
      <trkpt lat="43.23195" lon="5.93166">
        <ele>597.6</ele>
        <time>2017-03-09T09:31:57Z</time>
      </trkpt>
      <trkpt lat="43.23187" lon="5.93177">
        <ele>598.56</ele>
        <time>2017-03-09T09:32:09Z</time>
      </trkpt>
      <trkpt lat="43.23183" lon="5.93183">
        <ele>598.56</ele>
        <time>2017-03-09T09:32:16Z</time>
      </trkpt>
      <trkpt lat="43.23174" lon="5.93192">
        <ele>598.56</ele>
        <time>2017-03-09T09:32:30Z</time>
      </trkpt>
      <trkpt lat="43.23163" lon="5.93201">
        <ele>598.56</ele>
        <time>2017-03-09T09:32:44Z</time>
      </trkpt>
      <trkpt lat="43.23155" lon="5.93213">
        <ele>599.04</ele>
        <time>2017-03-09T09:32:57Z</time>
      </trkpt>
      <trkpt lat="43.23152" lon="5.93228">
        <ele>599.04</ele>
        <time>2017-03-09T09:33:09Z</time>
      </trkpt>
      <trkpt lat="43.23143" lon="5.9324">
        <ele>599.04</ele>
        <time>2017-03-09T09:33:21Z</time>
      </trkpt>
      <trkpt lat="43.23129" lon="5.93252">
        <ele>599.04</ele>
        <time>2017-03-09T09:33:36Z</time>
      </trkpt>
      <trkpt lat="43.23125" lon="5.93263">
        <ele>598.56</ele>
        <time>2017-03-09T09:33:45Z</time>
      </trkpt>
      <trkpt lat="43.23125" lon="5.93269">
        <ele>598.56</ele>
        <time>2017-03-09T09:33:50Z</time>
      </trkpt>
      <trkpt lat="43.23122" lon="5.93288">
        <ele>598.08</ele>
        <time>2017-03-09T09:34:03Z</time>
      </trkpt>
      <trkpt lat="43.23116" lon="5.93302">
        <ele>598.08</ele>
        <time>2017-03-09T09:34:16Z</time>
      </trkpt>
      <trkpt lat="43.2311" lon="5.9332">
        <ele>598.08</ele>
        <time>2017-03-09T09:34:30Z</time>
      </trkpt>
      <trkpt lat="43.23109" lon="5.93323">
        <ele>598.08</ele>
        <time>2017-03-09T09:34:33Z</time>
      </trkpt>
      <trkpt lat="43.23108" lon="5.93338">
        <ele>598.08</ele>
        <time>2017-03-09T09:34:45Z</time>
      </trkpt>
      <trkpt lat="43.23106" lon="5.93348">
        <ele>598.08</ele>
        <time>2017-03-09T09:34:52Z</time>
      </trkpt>
      <trkpt lat="43.23109" lon="5.93366">
        <ele>597.6</ele>
        <time>2017-03-09T09:35:05Z</time>
      </trkpt>
      <trkpt lat="43.2311" lon="5.93378">
        <ele>597.6</ele>
        <time>2017-03-09T09:35:12Z</time>
      </trkpt>
      <trkpt lat="43.23112" lon="5.93391">
        <ele>597.12</ele>
        <time>2017-03-09T09:35:22Z</time>
      </trkpt>
      <trkpt lat="43.23113" lon="5.93395">
        <ele>597.6</ele>
        <time>2017-03-09T09:35:25Z</time>
      </trkpt>
      <trkpt lat="43.23114" lon="5.934">
        <ele>598.08</ele>
        <time>2017-03-09T09:35:30Z</time>
      </trkpt>
      <trkpt lat="43.23115" lon="5.93403">
        <ele>597.6</ele>
        <time>2017-03-09T09:35:32Z</time>
      </trkpt>
      <trkpt lat="43.23118" lon="5.93411">
        <ele>598.08</ele>
        <time>2017-03-09T09:35:38Z</time>
      </trkpt>
      <trkpt lat="43.23119" lon="5.93414">
        <ele>598.08</ele>
        <time>2017-03-09T09:35:40Z</time>
      </trkpt>
      <trkpt lat="43.2312" lon="5.93419">
        <ele>598.56</ele>
        <time>2017-03-09T09:35:45Z</time>
      </trkpt>
      <trkpt lat="43.2312" lon="5.93434">
        <ele>598.08</ele>
        <time>2017-03-09T09:35:57Z</time>
      </trkpt>
      <trkpt lat="43.23117" lon="5.93446">
        <ele>599.04</ele>
        <time>2017-03-09T09:36:09Z</time>
      </trkpt>
      <trkpt lat="43.23117" lon="5.93457">
        <ele>599.52</ele>
        <time>2017-03-09T09:36:20Z</time>
      </trkpt>
      <trkpt lat="43.23116" lon="5.93471">
        <ele>599.04</ele>
        <time>2017-03-09T09:36:32Z</time>
      </trkpt>
      <trkpt lat="43.23111" lon="5.93484">
        <ele>600</ele>
        <time>2017-03-09T09:36:46Z</time>
      </trkpt>
      <trkpt lat="43.23111" lon="5.93485">
        <ele>600</ele>
        <time>2017-03-09T09:36:47Z</time>
      </trkpt>
      <trkpt lat="43.23103" lon="5.93499">
        <ele>600</ele>
        <time>2017-03-09T09:37:01Z</time>
      </trkpt>
      <trkpt lat="43.23099" lon="5.93506">
        <ele>600.48</ele>
        <time>2017-03-09T09:37:09Z</time>
      </trkpt>
      <trkpt lat="43.23092" lon="5.9352">
        <ele>600.48</ele>
        <time>2017-03-09T09:37:23Z</time>
      </trkpt>
      <trkpt lat="43.23084" lon="5.93539">
        <ele>600.96</ele>
        <time>2017-03-09T09:37:38Z</time>
      </trkpt>
      <trkpt lat="43.23079" lon="5.93553">
        <ele>600.96</ele>
        <time>2017-03-09T09:37:49Z</time>
      </trkpt>
      <trkpt lat="43.23072" lon="5.93566">
        <ele>601.44</ele>
        <time>2017-03-09T09:38:02Z</time>
      </trkpt>
      <trkpt lat="43.23067" lon="5.93582">
        <ele>601.44</ele>
        <time>2017-03-09T09:38:15Z</time>
      </trkpt>
      <trkpt lat="43.23067" lon="5.93584">
        <ele>601.44</ele>
        <time>2017-03-09T09:38:16Z</time>
      </trkpt>
      <trkpt lat="43.23066" lon="5.93598">
        <ele>601.44</ele>
        <time>2017-03-09T09:38:27Z</time>
      </trkpt>
      <trkpt lat="43.23066" lon="5.93613">
        <ele>601.44</ele>
        <time>2017-03-09T09:38:39Z</time>
      </trkpt>
      <trkpt lat="43.23066" lon="5.93614">
        <ele>601.44</ele>
        <time>2017-03-09T09:38:40Z</time>
      </trkpt>
      <trkpt lat="43.23068" lon="5.93627">
        <ele>601.92</ele>
        <time>2017-03-09T09:38:50Z</time>
      </trkpt>
      <trkpt lat="43.23069" lon="5.93638">
        <ele>601.92</ele>
        <time>2017-03-09T09:38:58Z</time>
      </trkpt>
      <trkpt lat="43.23071" lon="5.93646">
        <ele>601.44</ele>
        <time>2017-03-09T09:39:04Z</time>
      </trkpt>
      <trkpt lat="43.23073" lon="5.93649">
        <ele>601.44</ele>
        <time>2017-03-09T09:39:07Z</time>
      </trkpt>
      <trkpt lat="43.23073" lon="5.93656">
        <ele>600.96</ele>
        <time>2017-03-09T09:39:12Z</time>
      </trkpt>
      <trkpt lat="43.23071" lon="5.93677">
        <ele>600.96</ele>
        <time>2017-03-09T09:39:26Z</time>
      </trkpt>
      <trkpt lat="43.23071" lon="5.9368">
        <ele>600.96</ele>
        <time>2017-03-09T09:39:28Z</time>
      </trkpt>
      <trkpt lat="43.23067" lon="5.93698">
        <ele>600.96</ele>
        <time>2017-03-09T09:39:40Z</time>
      </trkpt>
      <trkpt lat="43.23063" lon="5.93706">
        <ele>600.48</ele>
        <time>2017-03-09T09:39:52Z</time>
      </trkpt>
      <trkpt lat="43.23063" lon="5.93711">
        <ele>600.96</ele>
        <time>2017-03-09T09:40:03Z</time>
      </trkpt>
      <trkpt lat="43.23062" lon="5.93712">
        <ele>600.96</ele>
        <time>2017-03-09T09:40:20Z</time>
      </trkpt>
      <trkpt lat="43.23062" lon="5.93715">
        <ele>600.48</ele>
        <time>2017-03-09T09:40:38Z</time>
      </trkpt>
      <trkpt lat="43.2306" lon="5.93716">
        <ele>601.44</ele>
        <time>2017-03-09T09:41:04Z</time>
      </trkpt>
      <trkpt lat="43.23057" lon="5.93722">
        <ele>601.44</ele>
        <time>2017-03-09T09:41:11Z</time>
      </trkpt>
      <trkpt lat="43.23053" lon="5.93739">
        <ele>600.48</ele>
        <time>2017-03-09T09:41:24Z</time>
      </trkpt>
      <trkpt lat="43.2305" lon="5.93758">
        <ele>600</ele>
        <time>2017-03-09T09:41:38Z</time>
      </trkpt>
      <trkpt lat="43.23048" lon="5.93764">
        <ele>600</ele>
        <time>2017-03-09T09:41:43Z</time>
      </trkpt>
      <trkpt lat="43.23043" lon="5.93785">
        <ele>600</ele>
        <time>2017-03-09T09:41:58Z</time>
      </trkpt>
      <trkpt lat="43.2304" lon="5.9379">
        <ele>600</ele>
        <time>2017-03-09T09:42:03Z</time>
      </trkpt>
      <trkpt lat="43.23039" lon="5.938">
        <ele>600</ele>
        <time>2017-03-09T09:42:09Z</time>
      </trkpt>
      <trkpt lat="43.23038" lon="5.93812">
        <ele>600</ele>
        <time>2017-03-09T09:42:18Z</time>
      </trkpt>
      <trkpt lat="43.23037" lon="5.93816">
        <ele>600</ele>
        <time>2017-03-09T09:42:21Z</time>
      </trkpt>
      <trkpt lat="43.23038" lon="5.93824">
        <ele>599.52</ele>
        <time>2017-03-09T09:42:27Z</time>
      </trkpt>
      <trkpt lat="43.23039" lon="5.93834">
        <ele>599.52</ele>
        <time>2017-03-09T09:42:34Z</time>
      </trkpt>
      <trkpt lat="43.2304" lon="5.93839">
        <ele>599.04</ele>
        <time>2017-03-09T09:42:37Z</time>
      </trkpt>
      <trkpt lat="43.23043" lon="5.93854">
        <ele>598.56</ele>
        <time>2017-03-09T09:42:49Z</time>
      </trkpt>
      <trkpt lat="43.23042" lon="5.93863">
        <ele>598.56</ele>
        <time>2017-03-09T09:42:59Z</time>
      </trkpt>
      <trkpt lat="43.23043" lon="5.93873">
        <ele>598.56</ele>
        <time>2017-03-09T09:43:06Z</time>
      </trkpt>
      <trkpt lat="43.23046" lon="5.93893">
        <ele>598.08</ele>
        <time>2017-03-09T09:43:20Z</time>
      </trkpt>
      <trkpt lat="43.23049" lon="5.93907">
        <ele>598.08</ele>
        <time>2017-03-09T09:43:32Z</time>
      </trkpt>
      <trkpt lat="43.2305" lon="5.93908">
        <ele>598.08</ele>
        <time>2017-03-09T09:43:34Z</time>
      </trkpt>
      <trkpt lat="43.23049" lon="5.93914">
        <ele>598.08</ele>
        <time>2017-03-09T09:43:38Z</time>
      </trkpt>
      <trkpt lat="43.23049" lon="5.93933">
        <ele>597.6</ele>
        <time>2017-03-09T09:43:51Z</time>
      </trkpt>
      <trkpt lat="43.23043" lon="5.93945">
        <ele>597.6</ele>
        <time>2017-03-09T09:44:03Z</time>
      </trkpt>
      <trkpt lat="43.2304" lon="5.93947">
        <ele>597.6</ele>
        <time>2017-03-09T09:44:06Z</time>
      </trkpt>
      <trkpt lat="43.23036" lon="5.93954">
        <ele>597.6</ele>
        <time>2017-03-09T09:44:12Z</time>
      </trkpt>
      <trkpt lat="43.23032" lon="5.93969">
        <ele>597.12</ele>
        <time>2017-03-09T09:44:22Z</time>
      </trkpt>
      <trkpt lat="43.23029" lon="5.93971">
        <ele>597.12</ele>
        <time>2017-03-09T09:44:25Z</time>
      </trkpt>
      <trkpt lat="43.23026" lon="5.93977">
        <ele>597.12</ele>
        <time>2017-03-09T09:44:30Z</time>
      </trkpt>
      <trkpt lat="43.23024" lon="5.93985">
        <ele>596.64</ele>
        <time>2017-03-09T09:44:36Z</time>
      </trkpt>
      <trkpt lat="43.23023" lon="5.93989">
        <ele>596.64</ele>
        <time>2017-03-09T09:44:39Z</time>
      </trkpt>
      <trkpt lat="43.23022" lon="5.94002">
        <ele>597.6</ele>
        <time>2017-03-09T09:44:49Z</time>
      </trkpt>
      <trkpt lat="43.23021" lon="5.94017">
        <ele>596.15</ele>
        <time>2017-03-09T09:45:03Z</time>
      </trkpt>
      <trkpt lat="43.23022" lon="5.94022">
        <ele>595.67</ele>
        <time>2017-03-09T09:45:11Z</time>
      </trkpt>
      <trkpt lat="43.2302" lon="5.94035">
        <ele>595.67</ele>
        <time>2017-03-09T09:45:21Z</time>
      </trkpt>
      <trkpt lat="43.2302" lon="5.94041">
        <ele>595.67</ele>
        <time>2017-03-09T09:45:25Z</time>
      </trkpt>
      <trkpt lat="43.23021" lon="5.94044">
        <ele>595.67</ele>
        <time>2017-03-09T09:45:27Z</time>
      </trkpt>
      <trkpt lat="43.23018" lon="5.94056">
        <ele>595.67</ele>
        <time>2017-03-09T09:45:39Z</time>
      </trkpt>
      <trkpt lat="43.23014" lon="5.9406">
        <ele>595.67</ele>
        <time>2017-03-09T09:45:44Z</time>
      </trkpt>
      <trkpt lat="43.23011" lon="5.94066">
        <ele>595.67</ele>
        <time>2017-03-09T09:45:49Z</time>
      </trkpt>
      <trkpt lat="43.23011" lon="5.9407">
        <ele>596.15</ele>
        <time>2017-03-09T09:45:53Z</time>
      </trkpt>
      <trkpt lat="43.23006" lon="5.94082">
        <ele>596.64</ele>
        <time>2017-03-09T09:46:04Z</time>
      </trkpt>
      <trkpt lat="43.23" lon="5.94096">
        <ele>597.12</ele>
        <time>2017-03-09T09:46:17Z</time>
      </trkpt>
      <trkpt lat="43.23" lon="5.94101">
        <ele>597.12</ele>
        <time>2017-03-09T09:46:21Z</time>
      </trkpt>
      <trkpt lat="43.23" lon="5.94104">
        <ele>597.12</ele>
        <time>2017-03-09T09:46:24Z</time>
      </trkpt>
      <trkpt lat="43.23" lon="5.94107">
        <ele>597.12</ele>
        <time>2017-03-09T09:46:26Z</time>
      </trkpt>
      <trkpt lat="43.22995" lon="5.9412">
        <ele>598.08</ele>
        <time>2017-03-09T09:46:39Z</time>
      </trkpt>
      <trkpt lat="43.22995" lon="5.94121">
        <ele>597.6</ele>
        <time>2017-03-09T09:46:40Z</time>
      </trkpt>
      <trkpt lat="43.22988" lon="5.94131">
        <ele>598.56</ele>
        <time>2017-03-09T09:46:53Z</time>
      </trkpt>
      <trkpt lat="43.22985" lon="5.94143">
        <ele>599.04</ele>
        <time>2017-03-09T09:47:05Z</time>
      </trkpt>
      <trkpt lat="43.22982" lon="5.94157">
        <ele>600</ele>
        <time>2017-03-09T09:47:18Z</time>
      </trkpt>
      <trkpt lat="43.22977" lon="5.94164">
        <ele>600</ele>
        <time>2017-03-09T09:47:26Z</time>
      </trkpt>
      <trkpt lat="43.22973" lon="5.94168">
        <ele>600.96</ele>
        <time>2017-03-09T09:47:31Z</time>
      </trkpt>
      <trkpt lat="43.22968" lon="5.94172">
        <ele>601.44</ele>
        <time>2017-03-09T09:47:38Z</time>
      </trkpt>
      <trkpt lat="43.22958" lon="5.9418">
        <ele>602.88</ele>
        <time>2017-03-09T09:47:52Z</time>
      </trkpt>
      <trkpt lat="43.22948" lon="5.94188">
        <ele>603.36</ele>
        <time>2017-03-09T09:48:05Z</time>
      </trkpt>
      <trkpt lat="43.2294" lon="5.94194">
        <ele>603.85</ele>
        <time>2017-03-09T09:48:15Z</time>
      </trkpt>
      <trkpt lat="43.2293" lon="5.94205">
        <ele>604.81</ele>
        <time>2017-03-09T09:48:29Z</time>
      </trkpt>
      <trkpt lat="43.22924" lon="5.94212">
        <ele>605.29</ele>
        <time>2017-03-09T09:48:39Z</time>
      </trkpt>
      <trkpt lat="43.22915" lon="5.94225">
        <ele>605.29</ele>
        <time>2017-03-09T09:48:53Z</time>
      </trkpt>
      <trkpt lat="43.2291" lon="5.9424">
        <ele>604.81</ele>
        <time>2017-03-09T09:49:06Z</time>
      </trkpt>
      <trkpt lat="43.22905" lon="5.94254">
        <ele>604.33</ele>
        <time>2017-03-09T09:49:19Z</time>
      </trkpt>
      <trkpt lat="43.22899" lon="5.94265">
        <ele>603.36</ele>
        <time>2017-03-09T09:49:30Z</time>
      </trkpt>
      <trkpt lat="43.22896" lon="5.94273">
        <ele>603.36</ele>
        <time>2017-03-09T09:49:36Z</time>
      </trkpt>
      <trkpt lat="43.22891" lon="5.94287">
        <ele>603.36</ele>
        <time>2017-03-09T09:49:50Z</time>
      </trkpt>
      <trkpt lat="43.22886" lon="5.94293">
        <ele>602.88</ele>
        <time>2017-03-09T09:49:57Z</time>
      </trkpt>
      <trkpt lat="43.22885" lon="5.94296">
        <ele>602.88</ele>
        <time>2017-03-09T09:49:59Z</time>
      </trkpt>
      <trkpt lat="43.22884" lon="5.94298">
        <ele>602.4</ele>
        <time>2017-03-09T09:50:01Z</time>
      </trkpt>
      <trkpt lat="43.22883" lon="5.94301">
        <ele>602.88</ele>
        <time>2017-03-09T09:50:03Z</time>
      </trkpt>
      <trkpt lat="43.22877" lon="5.94316">
        <ele>603.36</ele>
        <time>2017-03-09T09:50:17Z</time>
      </trkpt>
      <trkpt lat="43.22872" lon="5.94325">
        <ele>603.85</ele>
        <time>2017-03-09T09:50:27Z</time>
      </trkpt>
      <trkpt lat="43.22872" lon="5.94329">
        <ele>603.85</ele>
        <time>2017-03-09T09:50:30Z</time>
      </trkpt>
      <trkpt lat="43.22866" lon="5.94336">
        <ele>604.33</ele>
        <time>2017-03-09T09:50:45Z</time>
      </trkpt>
      <trkpt lat="43.22863" lon="5.9434">
        <ele>604.33</ele>
        <time>2017-03-09T09:51:00Z</time>
      </trkpt>
      <trkpt lat="43.22863" lon="5.94341">
        <ele>604.81</ele>
        <time>2017-03-09T09:51:01Z</time>
      </trkpt>
      <trkpt lat="43.22858" lon="5.94351">
        <ele>604.33</ele>
        <time>2017-03-09T09:51:12Z</time>
      </trkpt>
      <trkpt lat="43.22856" lon="5.94356">
        <ele>604.33</ele>
        <time>2017-03-09T09:51:24Z</time>
      </trkpt>
      <trkpt lat="43.22848" lon="5.94365">
        <ele>604.33</ele>
        <time>2017-03-09T09:51:39Z</time>
      </trkpt>
      <trkpt lat="43.22838" lon="5.94373">
        <ele>604.33</ele>
        <time>2017-03-09T09:51:52Z</time>
      </trkpt>
      <trkpt lat="43.22825" lon="5.94381">
        <ele>603.85</ele>
        <time>2017-03-09T09:52:08Z</time>
      </trkpt>
      <trkpt lat="43.22815" lon="5.94388">
        <ele>604.33</ele>
        <time>2017-03-09T09:52:22Z</time>
      </trkpt>
      <trkpt lat="43.22805" lon="5.94398">
        <ele>604.81</ele>
        <time>2017-03-09T09:52:37Z</time>
      </trkpt>
      <trkpt lat="43.22794" lon="5.9441">
        <ele>604.33</ele>
        <time>2017-03-09T09:52:53Z</time>
      </trkpt>
      <trkpt lat="43.22793" lon="5.94413">
        <ele>604.33</ele>
        <time>2017-03-09T09:52:55Z</time>
      </trkpt>
      <trkpt lat="43.2279" lon="5.94422">
        <ele>604.81</ele>
        <time>2017-03-09T09:53:03Z</time>
      </trkpt>
      <trkpt lat="43.22778" lon="5.9443">
        <ele>604.33</ele>
        <time>2017-03-09T09:53:16Z</time>
      </trkpt>
      <trkpt lat="43.22767" lon="5.94434">
        <ele>604.33</ele>
        <time>2017-03-09T09:53:31Z</time>
      </trkpt>
      <trkpt lat="43.22758" lon="5.94433">
        <ele>604.81</ele>
        <time>2017-03-09T09:53:45Z</time>
      </trkpt>
      <trkpt lat="43.22749" lon="5.94433">
        <ele>605.29</ele>
        <time>2017-03-09T09:54:00Z</time>
      </trkpt>
      <trkpt lat="43.22738" lon="5.94435">
        <ele>605.77</ele>
        <time>2017-03-09T09:54:12Z</time>
      </trkpt>
      <trkpt lat="43.22724" lon="5.9444">
        <ele>606.25</ele>
        <time>2017-03-09T09:54:25Z</time>
      </trkpt>
      <trkpt lat="43.22714" lon="5.94443">
        <ele>606.25</ele>
        <time>2017-03-09T09:54:35Z</time>
      </trkpt>
      <trkpt lat="43.22706" lon="5.94447">
        <ele>606.73</ele>
        <time>2017-03-09T09:54:44Z</time>
      </trkpt>
      <trkpt lat="43.22693" lon="5.94452">
        <ele>606.73</ele>
        <time>2017-03-09T09:54:59Z</time>
      </trkpt>
      <trkpt lat="43.22685" lon="5.94455">
        <ele>607.21</ele>
        <time>2017-03-09T09:55:07Z</time>
      </trkpt>
      <trkpt lat="43.22681" lon="5.94458">
        <ele>607.69</ele>
        <time>2017-03-09T09:55:11Z</time>
      </trkpt>
      <trkpt lat="43.2267" lon="5.94464">
        <ele>606.73</ele>
        <time>2017-03-09T09:55:24Z</time>
      </trkpt>
      <trkpt lat="43.22654" lon="5.94469">
        <ele>607.21</ele>
        <time>2017-03-09T09:55:40Z</time>
      </trkpt>
      <trkpt lat="43.22648" lon="5.94477">
        <ele>606.73</ele>
        <time>2017-03-09T09:55:49Z</time>
      </trkpt>
      <trkpt lat="43.22653" lon="5.94491">
        <ele>606.73</ele>
        <time>2017-03-09T09:56:01Z</time>
      </trkpt>
      <trkpt lat="43.22659" lon="5.945">
        <ele>606.73</ele>
        <time>2017-03-09T09:56:09Z</time>
      </trkpt>
      <trkpt lat="43.22661" lon="5.94509">
        <ele>606.25</ele>
        <time>2017-03-09T09:56:16Z</time>
      </trkpt>
      <trkpt lat="43.2266" lon="5.94515">
        <ele>606.25</ele>
        <time>2017-03-09T09:56:21Z</time>
      </trkpt>
      <trkpt lat="43.2266" lon="5.94526">
        <ele>606.25</ele>
        <time>2017-03-09T09:56:33Z</time>
      </trkpt>
      <trkpt lat="43.22662" lon="5.94539">
        <ele>605.77</ele>
        <time>2017-03-09T09:56:44Z</time>
      </trkpt>
      <trkpt lat="43.22659" lon="5.94553">
        <ele>605.29</ele>
        <time>2017-03-09T09:56:56Z</time>
      </trkpt>
      <trkpt lat="43.22655" lon="5.94561">
        <ele>604.81</ele>
        <time>2017-03-09T09:57:04Z</time>
      </trkpt>
      <trkpt lat="43.22654" lon="5.94563">
        <ele>604.81</ele>
        <time>2017-03-09T09:57:06Z</time>
      </trkpt>
      <trkpt lat="43.22649" lon="5.94569">
        <ele>604.81</ele>
        <time>2017-03-09T09:57:12Z</time>
      </trkpt>
      <trkpt lat="43.22639" lon="5.94575">
        <ele>604.81</ele>
        <time>2017-03-09T09:57:24Z</time>
      </trkpt>
      <trkpt lat="43.2263" lon="5.94579">
        <ele>605.29</ele>
        <time>2017-03-09T09:57:35Z</time>
      </trkpt>
      <trkpt lat="43.2262" lon="5.94588">
        <ele>604.33</ele>
        <time>2017-03-09T09:57:48Z</time>
      </trkpt>
      <trkpt lat="43.22612" lon="5.94595">
        <ele>603.85</ele>
        <time>2017-03-09T09:57:59Z</time>
      </trkpt>
      <trkpt lat="43.22613" lon="5.94601">
        <ele>604.81</ele>
        <time>2017-03-09T09:58:10Z</time>
      </trkpt>
      <trkpt lat="43.22613" lon="5.94601">
        <ele>603.85</ele>
        <time>2017-03-09T09:58:22Z</time>
      </trkpt>
      <trkpt lat="43.22612" lon="5.94604">
        <ele>603.85</ele>
        <time>2017-03-09T09:58:50Z</time>
      </trkpt>
      <trkpt lat="43.22612" lon="5.94604">
        <ele>604.33</ele>
        <time>2017-03-09T09:59:22Z</time>
      </trkpt>
      <trkpt lat="43.22613" lon="5.94604">
        <ele>604.33</ele>
        <time>2017-03-09T09:59:47Z</time>
      </trkpt>
      <trkpt lat="43.22613" lon="5.94604">
        <ele>604.81</ele>
        <time>2017-03-09T10:00:12Z</time>
      </trkpt>
      <trkpt lat="43.22612" lon="5.94603">
        <ele>603.85</ele>
        <time>2017-03-09T10:00:46Z</time>
      </trkpt>
      <trkpt lat="43.22612" lon="5.94604">
        <ele>604.33</ele>
        <time>2017-03-09T10:01:09Z</time>
      </trkpt>
      <trkpt lat="43.22612" lon="5.94603">
        <ele>603.85</ele>
        <time>2017-03-09T10:01:27Z</time>
      </trkpt>
      <trkpt lat="43.22611" lon="5.94601">
        <ele>604.81</ele>
        <time>2017-03-09T10:01:51Z</time>
      </trkpt>
      <trkpt lat="43.22612" lon="5.94601">
        <ele>604.81</ele>
        <time>2017-03-09T10:02:25Z</time>
      </trkpt>
      <trkpt lat="43.22613" lon="5.94602">
        <ele>605.29</ele>
        <time>2017-03-09T10:02:53Z</time>
      </trkpt>
      <trkpt lat="43.22614" lon="5.94602">
        <ele>604.81</ele>
        <time>2017-03-09T10:03:21Z</time>
      </trkpt>
      <trkpt lat="43.22614" lon="5.94603">
        <ele>605.29</ele>
        <time>2017-03-09T10:03:54Z</time>
      </trkpt>
      <trkpt lat="43.22615" lon="5.94602">
        <ele>605.29</ele>
        <time>2017-03-09T10:04:24Z</time>
      </trkpt>
      <trkpt lat="43.22615" lon="5.94602">
        <ele>605.29</ele>
        <time>2017-03-09T10:04:51Z</time>
      </trkpt>
      <trkpt lat="43.22614" lon="5.94603">
        <ele>606.25</ele>
        <time>2017-03-09T10:05:05Z</time>
      </trkpt>
      <trkpt lat="43.2262" lon="5.94606">
        <ele>606.73</ele>
        <time>2017-03-09T10:05:17Z</time>
      </trkpt>
      <trkpt lat="43.2262" lon="5.94607">
        <ele>607.21</ele>
        <time>2017-03-09T10:05:18Z</time>
      </trkpt>
      <trkpt lat="43.22625" lon="5.94613">
        <ele>606.73</ele>
        <time>2017-03-09T10:05:27Z</time>
      </trkpt>
      <trkpt lat="43.22636" lon="5.94617">
        <ele>606.25</ele>
        <time>2017-03-09T10:05:42Z</time>
      </trkpt>
      <trkpt lat="43.2264" lon="5.94618">
        <ele>605.77</ele>
        <time>2017-03-09T10:05:50Z</time>
      </trkpt>
      <trkpt lat="43.22649" lon="5.94616">
        <ele>605.29</ele>
        <time>2017-03-09T10:06:03Z</time>
      </trkpt>
      <trkpt lat="43.22651" lon="5.94616">
        <ele>605.29</ele>
        <time>2017-03-09T10:06:05Z</time>
      </trkpt>
      <trkpt lat="43.22662" lon="5.94619">
        <ele>604.81</ele>
        <time>2017-03-09T10:06:20Z</time>
      </trkpt>
      <trkpt lat="43.22666" lon="5.94626">
        <ele>603.85</ele>
        <time>2017-03-09T10:06:30Z</time>
      </trkpt>
      <trkpt lat="43.22672" lon="5.94633">
        <ele>603.36</ele>
        <time>2017-03-09T10:06:40Z</time>
      </trkpt>
      <trkpt lat="43.22675" lon="5.94643">
        <ele>603.36</ele>
        <time>2017-03-09T10:06:53Z</time>
      </trkpt>
      <trkpt lat="43.22681" lon="5.94652">
        <ele>602.88</ele>
        <time>2017-03-09T10:07:06Z</time>
      </trkpt>
      <trkpt lat="43.22688" lon="5.94659">
        <ele>603.36</ele>
        <time>2017-03-09T10:07:19Z</time>
      </trkpt>
      <trkpt lat="43.22695" lon="5.94665">
        <ele>603.36</ele>
        <time>2017-03-09T10:07:29Z</time>
      </trkpt>
      <trkpt lat="43.22702" lon="5.94669">
        <ele>602.88</ele>
        <time>2017-03-09T10:07:42Z</time>
      </trkpt>
      <trkpt lat="43.22707" lon="5.94674">
        <ele>603.36</ele>
        <time>2017-03-09T10:07:50Z</time>
      </trkpt>
      <trkpt lat="43.2271" lon="5.94675">
        <ele>603.36</ele>
        <time>2017-03-09T10:07:53Z</time>
      </trkpt>
      <trkpt lat="43.22712" lon="5.94676">
        <ele>602.88</ele>
        <time>2017-03-09T10:07:56Z</time>
      </trkpt>
      <trkpt lat="43.22722" lon="5.94684">
        <ele>603.36</ele>
        <time>2017-03-09T10:08:11Z</time>
      </trkpt>
      <trkpt lat="43.22726" lon="5.9469">
        <ele>602.88</ele>
        <time>2017-03-09T10:08:22Z</time>
      </trkpt>
      <trkpt lat="43.22731" lon="5.94694">
        <ele>601.92</ele>
        <time>2017-03-09T10:08:34Z</time>
      </trkpt>
      <trkpt lat="43.22738" lon="5.94699">
        <ele>600.96</ele>
        <time>2017-03-09T10:08:47Z</time>
      </trkpt>
      <trkpt lat="43.22743" lon="5.94703">
        <ele>599.52</ele>
        <time>2017-03-09T10:08:56Z</time>
      </trkpt>
      <trkpt lat="43.22751" lon="5.94708">
        <ele>598.08</ele>
        <time>2017-03-09T10:09:11Z</time>
      </trkpt>
      <trkpt lat="43.22757" lon="5.94717">
        <ele>596.64</ele>
        <time>2017-03-09T10:09:23Z</time>
      </trkpt>
      <trkpt lat="43.22763" lon="5.94722">
        <ele>594.71</ele>
        <time>2017-03-09T10:09:35Z</time>
      </trkpt>
      <trkpt lat="43.2277" lon="5.94727">
        <ele>593.27</ele>
        <time>2017-03-09T10:09:46Z</time>
      </trkpt>
      <trkpt lat="43.22776" lon="5.94735">
        <ele>592.31</ele>
        <time>2017-03-09T10:09:56Z</time>
      </trkpt>
      <trkpt lat="43.22772" lon="5.9475">
        <ele>590.87</ele>
        <time>2017-03-09T10:10:09Z</time>
      </trkpt>
      <trkpt lat="43.22764" lon="5.94757">
        <ele>590.39</ele>
        <time>2017-03-09T10:10:23Z</time>
      </trkpt>
      <trkpt lat="43.22763" lon="5.9476">
        <ele>590.39</ele>
        <time>2017-03-09T10:10:28Z</time>
      </trkpt>
      <trkpt lat="43.22762" lon="5.94763">
        <ele>589.91</ele>
        <time>2017-03-09T10:10:31Z</time>
      </trkpt>
      <trkpt lat="43.22763" lon="5.94772">
        <ele>589.43</ele>
        <time>2017-03-09T10:10:37Z</time>
      </trkpt>
      <trkpt lat="43.22764" lon="5.94775">
        <ele>589.43</ele>
        <time>2017-03-09T10:10:39Z</time>
      </trkpt>
      <trkpt lat="43.22772" lon="5.94783">
        <ele>588.95</ele>
        <time>2017-03-09T10:10:48Z</time>
      </trkpt>
      <trkpt lat="43.22773" lon="5.94783">
        <ele>588.95</ele>
        <time>2017-03-09T10:11:02Z</time>
      </trkpt>
      <trkpt lat="43.22774" lon="5.94784">
        <ele>588.95</ele>
        <time>2017-03-09T10:11:19Z</time>
      </trkpt>
      <trkpt lat="43.22773" lon="5.94783">
        <ele>588.95</ele>
        <time>2017-03-09T10:11:37Z</time>
      </trkpt>
      <trkpt lat="43.22779" lon="5.94784">
        <ele>588.95</ele>
        <time>2017-03-09T10:11:50Z</time>
      </trkpt>
      <trkpt lat="43.22789" lon="5.94785">
        <ele>588.95</ele>
        <time>2017-03-09T10:12:02Z</time>
      </trkpt>
      <trkpt lat="43.22797" lon="5.94784">
        <ele>588.95</ele>
        <time>2017-03-09T10:12:13Z</time>
      </trkpt>
      <trkpt lat="43.22798" lon="5.94784">
        <ele>588.95</ele>
        <time>2017-03-09T10:12:17Z</time>
      </trkpt>
      <trkpt lat="43.228" lon="5.94783">
        <ele>588.95</ele>
        <time>2017-03-09T10:12:19Z</time>
      </trkpt>
      <trkpt lat="43.22808" lon="5.94779">
        <ele>589.43</ele>
        <time>2017-03-09T10:12:28Z</time>
      </trkpt>
      <trkpt lat="43.22819" lon="5.9477">
        <ele>589.43</ele>
        <time>2017-03-09T10:12:42Z</time>
      </trkpt>
      <trkpt lat="43.22825" lon="5.94763">
        <ele>589.91</ele>
        <time>2017-03-09T10:12:54Z</time>
      </trkpt>
      <trkpt lat="43.2283" lon="5.94762">
        <ele>589.91</ele>
        <time>2017-03-09T10:13:01Z</time>
      </trkpt>
      <trkpt lat="43.22844" lon="5.94758">
        <ele>589.91</ele>
        <time>2017-03-09T10:13:11Z</time>
      </trkpt>
      <trkpt lat="43.22859" lon="5.94756">
        <ele>591.35</ele>
        <time>2017-03-09T10:13:25Z</time>
      </trkpt>
      <trkpt lat="43.22866" lon="5.94757">
        <ele>591.83</ele>
        <time>2017-03-09T10:13:33Z</time>
      </trkpt>
      <trkpt lat="43.22879" lon="5.94767">
        <ele>592.31</ele>
        <time>2017-03-09T10:13:49Z</time>
      </trkpt>
      <trkpt lat="43.22882" lon="5.94773">
        <ele>592.79</ele>
        <time>2017-03-09T10:13:55Z</time>
      </trkpt>
      <trkpt lat="43.22891" lon="5.94779">
        <ele>593.75</ele>
        <time>2017-03-09T10:14:07Z</time>
      </trkpt>
      <trkpt lat="43.22895" lon="5.94777">
        <ele>593.75</ele>
        <time>2017-03-09T10:14:13Z</time>
      </trkpt>
      <trkpt lat="43.22903" lon="5.9478">
        <ele>594.71</ele>
        <time>2017-03-09T10:14:23Z</time>
      </trkpt>
      <trkpt lat="43.22912" lon="5.94781">
        <ele>594.23</ele>
        <time>2017-03-09T10:14:34Z</time>
      </trkpt>
      <trkpt lat="43.22914" lon="5.94782">
        <ele>594.23</ele>
        <time>2017-03-09T10:14:36Z</time>
      </trkpt>
      <trkpt lat="43.22922" lon="5.9479">
        <ele>594.23</ele>
        <time>2017-03-09T10:14:48Z</time>
      </trkpt>
      <trkpt lat="43.22923" lon="5.9479">
        <ele>594.23</ele>
        <time>2017-03-09T10:14:49Z</time>
      </trkpt>
      <trkpt lat="43.22931" lon="5.94793">
        <ele>593.75</ele>
        <time>2017-03-09T10:15:01Z</time>
      </trkpt>
      <trkpt lat="43.22939" lon="5.94794">
        <ele>593.75</ele>
        <time>2017-03-09T10:15:11Z</time>
      </trkpt>
      <trkpt lat="43.22947" lon="5.94794">
        <ele>593.27</ele>
        <time>2017-03-09T10:15:18Z</time>
      </trkpt>
      <trkpt lat="43.22962" lon="5.94795">
        <ele>593.75</ele>
        <time>2017-03-09T10:15:32Z</time>
      </trkpt>
      <trkpt lat="43.22966" lon="5.94793">
        <ele>594.23</ele>
        <time>2017-03-09T10:15:45Z</time>
      </trkpt>
      <trkpt lat="43.22969" lon="5.94795">
        <ele>594.71</ele>
        <time>2017-03-09T10:15:57Z</time>
      </trkpt>
      <trkpt lat="43.22968" lon="5.94798">
        <ele>594.71</ele>
        <time>2017-03-09T10:16:07Z</time>
      </trkpt>
      <trkpt lat="43.22978" lon="5.94801">
        <ele>595.67</ele>
        <time>2017-03-09T10:16:19Z</time>
      </trkpt>
      <trkpt lat="43.22987" lon="5.94809">
        <ele>595.19</ele>
        <time>2017-03-09T10:16:32Z</time>
      </trkpt>
      <trkpt lat="43.2299" lon="5.94814">
        <ele>595.67</ele>
        <time>2017-03-09T10:16:38Z</time>
      </trkpt>
      <trkpt lat="43.22992" lon="5.94825">
        <ele>596.15</ele>
        <time>2017-03-09T10:16:48Z</time>
      </trkpt>
      <trkpt lat="43.22994" lon="5.94825">
        <ele>596.64</ele>
        <time>2017-03-09T10:16:52Z</time>
      </trkpt>
      <trkpt lat="43.23007" lon="5.94823">
        <ele>598.56</ele>
        <time>2017-03-09T10:17:04Z</time>
      </trkpt>
      <trkpt lat="43.23019" lon="5.94815">
        <ele>599.04</ele>
        <time>2017-03-09T10:17:16Z</time>
      </trkpt>
      <trkpt lat="43.23016" lon="5.94815">
        <ele>599.04</ele>
        <time>2017-03-09T10:17:31Z</time>
      </trkpt>
      <trkpt lat="43.23037" lon="5.94803">
        <ele>598.56</ele>
        <time>2017-03-09T10:17:48Z</time>
      </trkpt>
      <trkpt lat="43.23044" lon="5.94802">
        <ele>598.08</ele>
        <time>2017-03-09T10:18:06Z</time>
      </trkpt>
      <trkpt lat="43.23044" lon="5.94809">
        <ele>598.08</ele>
        <time>2017-03-09T10:18:18Z</time>
      </trkpt>
      <trkpt lat="43.23045" lon="5.9481">
        <ele>598.08</ele>
        <time>2017-03-09T10:18:31Z</time>
      </trkpt>
      <trkpt lat="43.23044" lon="5.94811">
        <ele>598.08</ele>
        <time>2017-03-09T10:18:44Z</time>
      </trkpt>
      <trkpt lat="43.23045" lon="5.94813">
        <ele>598.08</ele>
        <time>2017-03-09T10:18:57Z</time>
      </trkpt>
      <trkpt lat="43.23046" lon="5.94811">
        <ele>598.56</ele>
        <time>2017-03-09T10:19:08Z</time>
      </trkpt>
      <trkpt lat="43.23043" lon="5.94811">
        <ele>598.08</ele>
        <time>2017-03-09T10:19:21Z</time>
      </trkpt>
      <trkpt lat="43.23046" lon="5.94813">
        <ele>598.56</ele>
        <time>2017-03-09T10:19:38Z</time>
      </trkpt>
      <trkpt lat="43.23047" lon="5.94817">
        <ele>598.56</ele>
        <time>2017-03-09T10:19:45Z</time>
      </trkpt>
      <trkpt lat="43.2305" lon="5.94817">
        <ele>599.04</ele>
        <time>2017-03-09T10:20:00Z</time>
      </trkpt>
      <trkpt lat="43.23058" lon="5.9482">
        <ele>599.52</ele>
        <time>2017-03-09T10:20:13Z</time>
      </trkpt>
      <trkpt lat="43.23067" lon="5.94825">
        <ele>600</ele>
        <time>2017-03-09T10:20:23Z</time>
      </trkpt>
      <trkpt lat="43.23076" lon="5.94828">
        <ele>600.96</ele>
        <time>2017-03-09T10:20:36Z</time>
      </trkpt>
      <trkpt lat="43.23088" lon="5.94826">
        <ele>602.4</ele>
        <time>2017-03-09T10:20:49Z</time>
      </trkpt>
      <trkpt lat="43.23088" lon="5.94826">
        <ele>602.4</ele>
        <time>2017-03-09T10:20:50Z</time>
      </trkpt>
      <trkpt lat="43.23099" lon="5.94822">
        <ele>603.85</ele>
        <time>2017-03-09T10:21:04Z</time>
      </trkpt>
      <trkpt lat="43.23107" lon="5.9482">
        <ele>605.29</ele>
        <time>2017-03-09T10:21:17Z</time>
      </trkpt>
      <trkpt lat="43.23113" lon="5.94819">
        <ele>606.73</ele>
        <time>2017-03-09T10:21:29Z</time>
      </trkpt>
      <trkpt lat="43.23125" lon="5.9482">
        <ele>608.17</ele>
        <time>2017-03-09T10:21:41Z</time>
      </trkpt>
      <trkpt lat="43.23137" lon="5.94824">
        <ele>608.65</ele>
        <time>2017-03-09T10:21:55Z</time>
      </trkpt>
      <trkpt lat="43.23144" lon="5.94831">
        <ele>609.61</ele>
        <time>2017-03-09T10:22:08Z</time>
      </trkpt>
      <trkpt lat="43.23148" lon="5.94835">
        <ele>610.09</ele>
        <time>2017-03-09T10:22:20Z</time>
      </trkpt>
      <trkpt lat="43.23153" lon="5.94841">
        <ele>611.06</ele>
        <time>2017-03-09T10:22:31Z</time>
      </trkpt>
      <trkpt lat="43.23161" lon="5.94849">
        <ele>612.98</ele>
        <time>2017-03-09T10:22:46Z</time>
      </trkpt>
      <trkpt lat="43.23165" lon="5.94857">
        <ele>614.9</ele>
        <time>2017-03-09T10:23:00Z</time>
      </trkpt>
      <trkpt lat="43.23169" lon="5.94866">
        <ele>616.82</ele>
        <time>2017-03-09T10:23:14Z</time>
      </trkpt>
      <trkpt lat="43.23171" lon="5.94869">
        <ele>617.3</ele>
        <time>2017-03-09T10:23:18Z</time>
      </trkpt>
      <trkpt lat="43.23176" lon="5.94875">
        <ele>619.23</ele>
        <time>2017-03-09T10:23:31Z</time>
      </trkpt>
      <trkpt lat="43.23182" lon="5.94879">
        <ele>620.19</ele>
        <time>2017-03-09T10:23:38Z</time>
      </trkpt>
      <trkpt lat="43.2319" lon="5.94881">
        <ele>621.15</ele>
        <time>2017-03-09T10:23:50Z</time>
      </trkpt>
      <trkpt lat="43.23196" lon="5.94887">
        <ele>622.59</ele>
        <time>2017-03-09T10:24:01Z</time>
      </trkpt>
      <trkpt lat="43.23204" lon="5.94893">
        <ele>624.51</ele>
        <time>2017-03-09T10:24:13Z</time>
      </trkpt>
      <trkpt lat="43.23209" lon="5.94899">
        <ele>625.96</ele>
        <time>2017-03-09T10:24:26Z</time>
      </trkpt>
      <trkpt lat="43.23213" lon="5.94905">
        <ele>627.4</ele>
        <time>2017-03-09T10:24:36Z</time>
      </trkpt>
      <trkpt lat="43.23218" lon="5.94913">
        <ele>627.88</ele>
        <time>2017-03-09T10:24:50Z</time>
      </trkpt>
      <trkpt lat="43.23224" lon="5.94923">
        <ele>628.84</ele>
        <time>2017-03-09T10:25:02Z</time>
      </trkpt>
      <trkpt lat="43.23231" lon="5.94933">
        <ele>630.76</ele>
        <time>2017-03-09T10:25:16Z</time>
      </trkpt>
      <trkpt lat="43.23239" lon="5.94938">
        <ele>632.2</ele>
        <time>2017-03-09T10:25:28Z</time>
      </trkpt>
      <trkpt lat="43.23247" lon="5.94944">
        <ele>633.17</ele>
        <time>2017-03-09T10:25:39Z</time>
      </trkpt>
      <trkpt lat="43.23253" lon="5.9495">
        <ele>634.61</ele>
        <time>2017-03-09T10:25:53Z</time>
      </trkpt>
      <trkpt lat="43.2326" lon="5.9496">
        <ele>636.05</ele>
        <time>2017-03-09T10:26:08Z</time>
      </trkpt>
      <trkpt lat="43.23266" lon="5.94965">
        <ele>637.97</ele>
        <time>2017-03-09T10:26:21Z</time>
      </trkpt>
      <trkpt lat="43.2327" lon="5.94967">
        <ele>638.45</ele>
        <time>2017-03-09T10:26:36Z</time>
      </trkpt>
      <trkpt lat="43.23275" lon="5.94975">
        <ele>639.89</ele>
        <time>2017-03-09T10:26:48Z</time>
      </trkpt>
      <trkpt lat="43.23282" lon="5.94986">
        <ele>642.3</ele>
        <time>2017-03-09T10:27:03Z</time>
      </trkpt>
      <trkpt lat="43.23293" lon="5.94999">
        <ele>644.22</ele>
        <time>2017-03-09T10:27:20Z</time>
      </trkpt>
      <trkpt lat="43.233" lon="5.95006">
        <ele>646.14</ele>
        <time>2017-03-09T10:27:35Z</time>
      </trkpt>
      <trkpt lat="43.23304" lon="5.95015">
        <ele>648.07</ele>
        <time>2017-03-09T10:27:50Z</time>
      </trkpt>
      <trkpt lat="43.23309" lon="5.95022">
        <ele>650.47</ele>
        <time>2017-03-09T10:28:05Z</time>
      </trkpt>
      <trkpt lat="43.23312" lon="5.95031">
        <ele>651.91</ele>
        <time>2017-03-09T10:28:18Z</time>
      </trkpt>
      <trkpt lat="43.23317" lon="5.95038">
        <ele>654.31</ele>
        <time>2017-03-09T10:28:33Z</time>
      </trkpt>
      <trkpt lat="43.2332" lon="5.95043">
        <ele>655.76</ele>
        <time>2017-03-09T10:28:47Z</time>
      </trkpt>
      <trkpt lat="43.23326" lon="5.95049">
        <ele>657.68</ele>
        <time>2017-03-09T10:29:02Z</time>
      </trkpt>
      <trkpt lat="43.23334" lon="5.95056">
        <ele>659.6</ele>
        <time>2017-03-09T10:29:16Z</time>
      </trkpt>
      <trkpt lat="43.23339" lon="5.95069">
        <ele>661.04</ele>
        <time>2017-03-09T10:29:29Z</time>
      </trkpt>
      <trkpt lat="43.23345" lon="5.95078">
        <ele>662.97</ele>
        <time>2017-03-09T10:29:43Z</time>
      </trkpt>
      <trkpt lat="43.2335" lon="5.95088">
        <ele>664.41</ele>
        <time>2017-03-09T10:29:57Z</time>
      </trkpt>
      <trkpt lat="43.23357" lon="5.95096">
        <ele>665.37</ele>
        <time>2017-03-09T10:30:08Z</time>
      </trkpt>
      <trkpt lat="43.23362" lon="5.95103">
        <ele>667.29</ele>
        <time>2017-03-09T10:30:20Z</time>
      </trkpt>
      <trkpt lat="43.23368" lon="5.9511">
        <ele>668.73</ele>
        <time>2017-03-09T10:30:36Z</time>
      </trkpt>
      <trkpt lat="43.23373" lon="5.95114">
        <ele>670.18</ele>
        <time>2017-03-09T10:30:49Z</time>
      </trkpt>
      <trkpt lat="43.2338" lon="5.95125">
        <ele>670.66</ele>
        <time>2017-03-09T10:31:04Z</time>
      </trkpt>
      <trkpt lat="43.23384" lon="5.95131">
        <ele>671.62</ele>
        <time>2017-03-09T10:31:17Z</time>
      </trkpt>
      <trkpt lat="43.23385" lon="5.95135">
        <ele>672.1</ele>
        <time>2017-03-09T10:31:29Z</time>
      </trkpt>
      <trkpt lat="43.23386" lon="5.95138">
        <ele>672.1</ele>
        <time>2017-03-09T10:31:36Z</time>
      </trkpt>
      <trkpt lat="43.23385" lon="5.95143">
        <ele>671.14</ele>
        <time>2017-03-09T10:31:47Z</time>
      </trkpt>
      <trkpt lat="43.23385" lon="5.95143">
        <ele>671.14</ele>
        <time>2017-03-09T10:32:10Z</time>
      </trkpt>
      <trkpt lat="43.23385" lon="5.95143">
        <ele>671.62</ele>
        <time>2017-03-09T10:32:35Z</time>
      </trkpt>
      <trkpt lat="43.23386" lon="5.95144">
        <ele>671.62</ele>
        <time>2017-03-09T10:33:06Z</time>
      </trkpt>
      <trkpt lat="43.23387" lon="5.95145">
        <ele>672.1</ele>
        <time>2017-03-09T10:33:37Z</time>
      </trkpt>
      <trkpt lat="43.23387" lon="5.95145">
        <ele>672.1</ele>
        <time>2017-03-09T10:34:07Z</time>
      </trkpt>
      <trkpt lat="43.23386" lon="5.95145">
        <ele>673.54</ele>
        <time>2017-03-09T10:34:25Z</time>
      </trkpt>
      <trkpt lat="43.23386" lon="5.95145">
        <ele>673.06</ele>
        <time>2017-03-09T10:34:45Z</time>
      </trkpt>
      <trkpt lat="43.23386" lon="5.95144">
        <ele>673.54</ele>
        <time>2017-03-09T10:35:04Z</time>
      </trkpt>
      <trkpt lat="43.23386" lon="5.95144">
        <ele>673.54</ele>
        <time>2017-03-09T10:35:33Z</time>
      </trkpt>
      <trkpt lat="43.23387" lon="5.95145">
        <ele>673.54</ele>
        <time>2017-03-09T10:35:57Z</time>
      </trkpt>
      <trkpt lat="43.23387" lon="5.95145">
        <ele>674.02</ele>
        <time>2017-03-09T10:36:28Z</time>
      </trkpt>
      <trkpt lat="43.23387" lon="5.95145">
        <ele>673.54</ele>
        <time>2017-03-09T10:36:49Z</time>
      </trkpt>
      <trkpt lat="43.23387" lon="5.95145">
        <ele>673.54</ele>
        <time>2017-03-09T10:37:15Z</time>
      </trkpt>
      <trkpt lat="43.23387" lon="5.95145">
        <ele>673.54</ele>
        <time>2017-03-09T10:37:35Z</time>
      </trkpt>
      <trkpt lat="43.23386" lon="5.95145">
        <ele>674.5</ele>
        <time>2017-03-09T10:38:00Z</time>
      </trkpt>
      <trkpt lat="43.23387" lon="5.95148">
        <ele>674.5</ele>
        <time>2017-03-09T10:38:26Z</time>
      </trkpt>
      <trkpt lat="43.23391" lon="5.9516">
        <ele>674.98</ele>
        <time>2017-03-09T10:38:39Z</time>
      </trkpt>
      <trkpt lat="43.23391" lon="5.95168">
        <ele>674.98</ele>
        <time>2017-03-09T10:38:52Z</time>
      </trkpt>
      <trkpt lat="43.23396" lon="5.95175">
        <ele>675.94</ele>
        <time>2017-03-09T10:39:04Z</time>
      </trkpt>
      <trkpt lat="43.23401" lon="5.95186">
        <ele>676.42</ele>
        <time>2017-03-09T10:39:18Z</time>
      </trkpt>
      <trkpt lat="43.23404" lon="5.95193">
        <ele>677.87</ele>
        <time>2017-03-09T10:39:30Z</time>
      </trkpt>
      <trkpt lat="43.23411" lon="5.95199">
        <ele>678.83</ele>
        <time>2017-03-09T10:39:43Z</time>
      </trkpt>
      <trkpt lat="43.23412" lon="5.95201">
        <ele>679.31</ele>
        <time>2017-03-09T10:39:47Z</time>
      </trkpt>
      <trkpt lat="43.23421" lon="5.9521">
        <ele>680.75</ele>
        <time>2017-03-09T10:40:02Z</time>
      </trkpt>
      <trkpt lat="43.23427" lon="5.95213">
        <ele>682.67</ele>
        <time>2017-03-09T10:40:15Z</time>
      </trkpt>
      <trkpt lat="43.23433" lon="5.9522">
        <ele>684.12</ele>
        <time>2017-03-09T10:40:28Z</time>
      </trkpt>
      <trkpt lat="43.23435" lon="5.95222">
        <ele>684.6</ele>
        <time>2017-03-09T10:40:36Z</time>
      </trkpt>
      <trkpt lat="43.23439" lon="5.95233">
        <ele>685.56</ele>
        <time>2017-03-09T10:40:48Z</time>
      </trkpt>
      <trkpt lat="43.2344" lon="5.95239">
        <ele>687.48</ele>
        <time>2017-03-09T10:41:03Z</time>
      </trkpt>
      <trkpt lat="43.23443" lon="5.95246">
        <ele>688.44</ele>
        <time>2017-03-09T10:41:13Z</time>
      </trkpt>
      <trkpt lat="43.23446" lon="5.95253">
        <ele>689.88</ele>
        <time>2017-03-09T10:41:28Z</time>
      </trkpt>
      <trkpt lat="43.2345" lon="5.95262">
        <ele>691.33</ele>
        <time>2017-03-09T10:41:38Z</time>
      </trkpt>
      <trkpt lat="43.23456" lon="5.95271">
        <ele>692.29</ele>
        <time>2017-03-09T10:41:50Z</time>
      </trkpt>
      <trkpt lat="43.23463" lon="5.95282">
        <ele>692.77</ele>
        <time>2017-03-09T10:42:01Z</time>
      </trkpt>
      <trkpt lat="43.23466" lon="5.95285">
        <ele>693.25</ele>
        <time>2017-03-09T10:42:06Z</time>
      </trkpt>
      <trkpt lat="43.23476" lon="5.95295">
        <ele>693.73</ele>
        <time>2017-03-09T10:42:19Z</time>
      </trkpt>
      <trkpt lat="43.2348" lon="5.95305">
        <ele>694.21</ele>
        <time>2017-03-09T10:42:27Z</time>
      </trkpt>
      <trkpt lat="43.23484" lon="5.95317">
        <ele>694.69</ele>
        <time>2017-03-09T10:42:39Z</time>
      </trkpt>
      <trkpt lat="43.23485" lon="5.9532">
        <ele>694.69</ele>
        <time>2017-03-09T10:42:41Z</time>
      </trkpt>
      <trkpt lat="43.23488" lon="5.95335">
        <ele>695.17</ele>
        <time>2017-03-09T10:42:52Z</time>
      </trkpt>
      <trkpt lat="43.23491" lon="5.95344">
        <ele>695.17</ele>
        <time>2017-03-09T10:42:58Z</time>
      </trkpt>
      <trkpt lat="43.23498" lon="5.95359">
        <ele>695.65</ele>
        <time>2017-03-09T10:43:11Z</time>
      </trkpt>
      <trkpt lat="43.235" lon="5.95363">
        <ele>695.65</ele>
        <time>2017-03-09T10:43:14Z</time>
      </trkpt>
      <trkpt lat="43.23502" lon="5.9537">
        <ele>696.13</ele>
        <time>2017-03-09T10:43:22Z</time>
      </trkpt>
      <trkpt lat="43.23505" lon="5.95384">
        <ele>696.61</ele>
        <time>2017-03-09T10:43:34Z</time>
      </trkpt>
      <trkpt lat="43.23507" lon="5.954">
        <ele>696.61</ele>
        <time>2017-03-09T10:43:46Z</time>
      </trkpt>
      <trkpt lat="43.23506" lon="5.95406">
        <ele>696.61</ele>
        <time>2017-03-09T10:43:50Z</time>
      </trkpt>
      <trkpt lat="43.23506" lon="5.95409">
        <ele>696.61</ele>
        <time>2017-03-09T10:43:52Z</time>
      </trkpt>
      <trkpt lat="43.23511" lon="5.95423">
        <ele>697.09</ele>
        <time>2017-03-09T10:44:06Z</time>
      </trkpt>
      <trkpt lat="43.23511" lon="5.95424">
        <ele>697.09</ele>
        <time>2017-03-09T10:44:07Z</time>
      </trkpt>
      <trkpt lat="43.23512" lon="5.9543">
        <ele>696.61</ele>
        <time>2017-03-09T10:44:11Z</time>
      </trkpt>
      <trkpt lat="43.23512" lon="5.95438">
        <ele>696.61</ele>
        <time>2017-03-09T10:44:18Z</time>
      </trkpt>
      <trkpt lat="43.23515" lon="5.95441">
        <ele>696.13</ele>
        <time>2017-03-09T10:44:21Z</time>
      </trkpt>
      <trkpt lat="43.23524" lon="5.95453">
        <ele>696.13</ele>
        <time>2017-03-09T10:44:33Z</time>
      </trkpt>
      <trkpt lat="43.23525" lon="5.95454">
        <ele>696.13</ele>
        <time>2017-03-09T10:44:34Z</time>
      </trkpt>
      <trkpt lat="43.23532" lon="5.95468">
        <ele>696.13</ele>
        <time>2017-03-09T10:44:47Z</time>
      </trkpt>
      <trkpt lat="43.23537" lon="5.95478">
        <ele>696.13</ele>
        <time>2017-03-09T10:44:58Z</time>
      </trkpt>
      <trkpt lat="43.23538" lon="5.95483">
        <ele>695.65</ele>
        <time>2017-03-09T10:45:04Z</time>
      </trkpt>
      <trkpt lat="43.23542" lon="5.95497">
        <ele>695.65</ele>
        <time>2017-03-09T10:45:16Z</time>
      </trkpt>
      <trkpt lat="43.23545" lon="5.95512">
        <ele>695.65</ele>
        <time>2017-03-09T10:45:28Z</time>
      </trkpt>
      <trkpt lat="43.23551" lon="5.95526">
        <ele>696.13</ele>
        <time>2017-03-09T10:45:42Z</time>
      </trkpt>
      <trkpt lat="43.23555" lon="5.95538">
        <ele>695.65</ele>
        <time>2017-03-09T10:45:54Z</time>
      </trkpt>
      <trkpt lat="43.23559" lon="5.95553">
        <ele>694.69</ele>
        <time>2017-03-09T10:46:08Z</time>
      </trkpt>
      <trkpt lat="43.23557" lon="5.95566">
        <ele>694.21</ele>
        <time>2017-03-09T10:46:19Z</time>
      </trkpt>
      <trkpt lat="43.23553" lon="5.95579">
        <ele>693.73</ele>
        <time>2017-03-09T10:46:30Z</time>
      </trkpt>
      <trkpt lat="43.23549" lon="5.95587">
        <ele>693.73</ele>
        <time>2017-03-09T10:46:41Z</time>
      </trkpt>
      <trkpt lat="43.23547" lon="5.95596">
        <ele>693.73</ele>
        <time>2017-03-09T10:46:55Z</time>
      </trkpt>
      <trkpt lat="43.23546" lon="5.95598">
        <ele>693.73</ele>
        <time>2017-03-09T10:47:14Z</time>
      </trkpt>
      <trkpt lat="43.23548" lon="5.95608">
        <ele>693.73</ele>
        <time>2017-03-09T10:47:29Z</time>
      </trkpt>
      <trkpt lat="43.23551" lon="5.95622">
        <ele>693.73</ele>
        <time>2017-03-09T10:47:43Z</time>
      </trkpt>
      <trkpt lat="43.23556" lon="5.95636">
        <ele>693.73</ele>
        <time>2017-03-09T10:47:56Z</time>
      </trkpt>
      <trkpt lat="43.23558" lon="5.9565">
        <ele>693.73</ele>
        <time>2017-03-09T10:48:09Z</time>
      </trkpt>
      <trkpt lat="43.23562" lon="5.95661">
        <ele>694.21</ele>
        <time>2017-03-09T10:48:21Z</time>
      </trkpt>
      <trkpt lat="43.23565" lon="5.95666">
        <ele>694.21</ele>
        <time>2017-03-09T10:48:34Z</time>
      </trkpt>
      <trkpt lat="43.23565" lon="5.95665">
        <ele>694.21</ele>
        <time>2017-03-09T10:48:54Z</time>
      </trkpt>
      <trkpt lat="43.23568" lon="5.95668">
        <ele>694.21</ele>
        <time>2017-03-09T10:49:09Z</time>
      </trkpt>
      <trkpt lat="43.2357" lon="5.95674">
        <ele>694.69</ele>
        <time>2017-03-09T10:49:16Z</time>
      </trkpt>
      <trkpt lat="43.23576" lon="5.95685">
        <ele>695.17</ele>
        <time>2017-03-09T10:49:28Z</time>
      </trkpt>
      <trkpt lat="43.23585" lon="5.95693">
        <ele>696.13</ele>
        <time>2017-03-09T10:49:42Z</time>
      </trkpt>
      <trkpt lat="43.23594" lon="5.957">
        <ele>697.09</ele>
        <time>2017-03-09T10:49:55Z</time>
      </trkpt>
      <trkpt lat="43.23599" lon="5.95709">
        <ele>698.05</ele>
        <time>2017-03-09T10:50:08Z</time>
      </trkpt>
      <trkpt lat="43.23598" lon="5.95713">
        <ele>699.02</ele>
        <time>2017-03-09T10:50:21Z</time>
      </trkpt>
      <trkpt lat="43.236" lon="5.95718">
        <ele>699.02</ele>
        <time>2017-03-09T10:50:36Z</time>
      </trkpt>
      <trkpt lat="43.23598" lon="5.95726">
        <ele>699.02</ele>
        <time>2017-03-09T10:50:44Z</time>
      </trkpt>
      <trkpt lat="43.23598" lon="5.95732">
        <ele>698.53</ele>
        <time>2017-03-09T10:50:47Z</time>
      </trkpt>
      <trkpt lat="43.23605" lon="5.95744">
        <ele>699.02</ele>
        <time>2017-03-09T10:51:01Z</time>
      </trkpt>
      <trkpt lat="43.23608" lon="5.95752">
        <ele>700.46</ele>
        <time>2017-03-09T10:51:14Z</time>
      </trkpt>
      <trkpt lat="43.23612" lon="5.95765">
        <ele>701.42</ele>
        <time>2017-03-09T10:51:27Z</time>
      </trkpt>
      <trkpt lat="43.23614" lon="5.95773">
        <ele>701.9</ele>
        <time>2017-03-09T10:51:43Z</time>
      </trkpt>
      <trkpt lat="43.23617" lon="5.95777">
        <ele>702.86</ele>
        <time>2017-03-09T10:51:58Z</time>
      </trkpt>
      <trkpt lat="43.23618" lon="5.95781">
        <ele>703.34</ele>
        <time>2017-03-09T10:52:12Z</time>
      </trkpt>
      <trkpt lat="43.23624" lon="5.95792">
        <ele>704.78</ele>
        <time>2017-03-09T10:52:27Z</time>
      </trkpt>
      <trkpt lat="43.23628" lon="5.958">
        <ele>705.75</ele>
        <time>2017-03-09T10:52:38Z</time>
      </trkpt>
      <trkpt lat="43.23631" lon="5.95806">
        <ele>707.19</ele>
        <time>2017-03-09T10:52:49Z</time>
      </trkpt>
      <trkpt lat="43.23637" lon="5.95817">
        <ele>708.15</ele>
        <time>2017-03-09T10:53:02Z</time>
      </trkpt>
      <trkpt lat="43.23641" lon="5.95825">
        <ele>709.11</ele>
        <time>2017-03-09T10:53:15Z</time>
      </trkpt>
      <trkpt lat="43.23645" lon="5.95834">
        <ele>710.07</ele>
        <time>2017-03-09T10:53:26Z</time>
      </trkpt>
      <trkpt lat="43.23653" lon="5.95842">
        <ele>711.51</ele>
        <time>2017-03-09T10:53:40Z</time>
      </trkpt>
      <trkpt lat="43.2366" lon="5.95849">
        <ele>712.95</ele>
        <time>2017-03-09T10:53:53Z</time>
      </trkpt>
      <trkpt lat="43.23668" lon="5.9586">
        <ele>713.92</ele>
        <time>2017-03-09T10:54:07Z</time>
      </trkpt>
      <trkpt lat="43.23669" lon="5.95871">
        <ele>714.88</ele>
        <time>2017-03-09T10:54:19Z</time>
      </trkpt>
      <trkpt lat="43.23671" lon="5.9588">
        <ele>715.84</ele>
        <time>2017-03-09T10:54:32Z</time>
      </trkpt>
      <trkpt lat="43.23676" lon="5.95891">
        <ele>716.32</ele>
        <time>2017-03-09T10:54:45Z</time>
      </trkpt>
      <trkpt lat="43.2368" lon="5.95901">
        <ele>717.28</ele>
        <time>2017-03-09T10:54:56Z</time>
      </trkpt>
      <trkpt lat="43.23686" lon="5.95917">
        <ele>718.24</ele>
        <time>2017-03-09T10:55:07Z</time>
      </trkpt>
      <trkpt lat="43.23689" lon="5.95926">
        <ele>719.68</ele>
        <time>2017-03-09T10:55:19Z</time>
      </trkpt>
      <trkpt lat="43.23693" lon="5.95938">
        <ele>720.65</ele>
        <time>2017-03-09T10:55:31Z</time>
      </trkpt>
      <trkpt lat="43.23694" lon="5.9594">
        <ele>721.13</ele>
        <time>2017-03-09T10:55:33Z</time>
      </trkpt>
      <trkpt lat="43.23702" lon="5.95952">
        <ele>722.57</ele>
        <time>2017-03-09T10:55:48Z</time>
      </trkpt>
      <trkpt lat="43.23705" lon="5.95959">
        <ele>723.53</ele>
        <time>2017-03-09T10:56:00Z</time>
      </trkpt>
      <trkpt lat="43.2371" lon="5.95969">
        <ele>724.01</ele>
        <time>2017-03-09T10:56:13Z</time>
      </trkpt>
      <trkpt lat="43.2371" lon="5.95969">
        <ele>724.49</ele>
        <time>2017-03-09T10:56:34Z</time>
      </trkpt>
      <trkpt lat="43.2371" lon="5.9597">
        <ele>724.49</ele>
        <time>2017-03-09T10:56:47Z</time>
      </trkpt>
      <trkpt lat="43.23709" lon="5.9597">
        <ele>724.97</ele>
        <time>2017-03-09T10:57:11Z</time>
      </trkpt>
      <trkpt lat="43.23709" lon="5.9597">
        <ele>724.01</ele>
        <time>2017-03-09T10:57:32Z</time>
      </trkpt>
      <trkpt lat="43.23714" lon="5.95975">
        <ele>724.97</ele>
        <time>2017-03-09T10:57:48Z</time>
      </trkpt>
      <trkpt lat="43.23718" lon="5.95981">
        <ele>724.49</ele>
        <time>2017-03-09T10:58:01Z</time>
      </trkpt>
      <trkpt lat="43.2372" lon="5.95989">
        <ele>723.53</ele>
        <time>2017-03-09T10:58:12Z</time>
      </trkpt>
      <trkpt lat="43.23725" lon="5.95996">
        <ele>722.09</ele>
        <time>2017-03-09T10:58:23Z</time>
      </trkpt>
      <trkpt lat="43.23728" lon="5.96003">
        <ele>721.13</ele>
        <time>2017-03-09T10:58:36Z</time>
      </trkpt>
      <trkpt lat="43.23733" lon="5.96011">
        <ele>719.68</ele>
        <time>2017-03-09T10:58:48Z</time>
      </trkpt>
      <trkpt lat="43.23738" lon="5.96021">
        <ele>717.76</ele>
        <time>2017-03-09T10:59:06Z</time>
      </trkpt>
      <trkpt lat="43.23741" lon="5.96031">
        <ele>716.32</ele>
        <time>2017-03-09T10:59:19Z</time>
      </trkpt>
      <trkpt lat="43.23744" lon="5.96037">
        <ele>714.88</ele>
        <time>2017-03-09T10:59:34Z</time>
      </trkpt>
      <trkpt lat="43.23747" lon="5.96044">
        <ele>713.92</ele>
        <time>2017-03-09T10:59:42Z</time>
      </trkpt>
      <trkpt lat="43.2375" lon="5.96054">
        <ele>712.95</ele>
        <time>2017-03-09T10:59:53Z</time>
      </trkpt>
      <trkpt lat="43.23751" lon="5.96065">
        <ele>711.51</ele>
        <time>2017-03-09T11:00:07Z</time>
      </trkpt>
      <trkpt lat="43.23756" lon="5.96075">
        <ele>710.07</ele>
        <time>2017-03-09T11:00:23Z</time>
      </trkpt>
      <trkpt lat="43.23757" lon="5.96082">
        <ele>709.59</ele>
        <time>2017-03-09T11:00:37Z</time>
      </trkpt>
      <trkpt lat="43.23762" lon="5.96087">
        <ele>708.15</ele>
        <time>2017-03-09T11:00:48Z</time>
      </trkpt>
      <trkpt lat="43.23765" lon="5.96094">
        <ele>706.23</ele>
        <time>2017-03-09T11:01:03Z</time>
      </trkpt>
      <trkpt lat="43.23767" lon="5.961">
        <ele>704.78</ele>
        <time>2017-03-09T11:01:14Z</time>
      </trkpt>
      <trkpt lat="43.2377" lon="5.9611">
        <ele>703.34</ele>
        <time>2017-03-09T11:01:28Z</time>
      </trkpt>
      <trkpt lat="43.23775" lon="5.96123">
        <ele>702.38</ele>
        <time>2017-03-09T11:01:41Z</time>
      </trkpt>
      <trkpt lat="43.2378" lon="5.96133">
        <ele>700.94</ele>
        <time>2017-03-09T11:01:55Z</time>
      </trkpt>
      <trkpt lat="43.23786" lon="5.96142">
        <ele>699.02</ele>
        <time>2017-03-09T11:02:10Z</time>
      </trkpt>
      <trkpt lat="43.23791" lon="5.96153">
        <ele>697.09</ele>
        <time>2017-03-09T11:02:24Z</time>
      </trkpt>
      <trkpt lat="43.23794" lon="5.96165">
        <ele>695.65</ele>
        <time>2017-03-09T11:02:37Z</time>
      </trkpt>
      <trkpt lat="43.23798" lon="5.96174">
        <ele>694.21</ele>
        <time>2017-03-09T11:02:49Z</time>
      </trkpt>
      <trkpt lat="43.23802" lon="5.96184">
        <ele>692.29</ele>
        <time>2017-03-09T11:03:04Z</time>
      </trkpt>
      <trkpt lat="43.23802" lon="5.96199">
        <ele>691.33</ele>
        <time>2017-03-09T11:03:16Z</time>
      </trkpt>
      <trkpt lat="43.23805" lon="5.96204">
        <ele>689.88</ele>
        <time>2017-03-09T11:03:29Z</time>
      </trkpt>
      <trkpt lat="43.23809" lon="5.96208">
        <ele>688.44</ele>
        <time>2017-03-09T11:03:42Z</time>
      </trkpt>
      <trkpt lat="43.23816" lon="5.96217">
        <ele>686.04</ele>
        <time>2017-03-09T11:03:57Z</time>
      </trkpt>
      <trkpt lat="43.23825" lon="5.96221">
        <ele>684.12</ele>
        <time>2017-03-09T11:04:11Z</time>
      </trkpt>
      <trkpt lat="43.23832" lon="5.96232">
        <ele>682.19</ele>
        <time>2017-03-09T11:04:26Z</time>
      </trkpt>
      <trkpt lat="43.23833" lon="5.96236">
        <ele>680.75</ele>
        <time>2017-03-09T11:04:41Z</time>
      </trkpt>
      <trkpt lat="43.23835" lon="5.96239">
        <ele>679.31</ele>
        <time>2017-03-09T11:04:55Z</time>
      </trkpt>
      <trkpt lat="43.23843" lon="5.96246">
        <ele>677.39</ele>
        <time>2017-03-09T11:05:08Z</time>
      </trkpt>
      <trkpt lat="43.2385" lon="5.9625">
        <ele>674.98</ele>
        <time>2017-03-09T11:05:23Z</time>
      </trkpt>
      <trkpt lat="43.23855" lon="5.96258">
        <ele>672.58</ele>
        <time>2017-03-09T11:05:37Z</time>
      </trkpt>
      <trkpt lat="43.23858" lon="5.96267">
        <ele>670.66</ele>
        <time>2017-03-09T11:05:50Z</time>
      </trkpt>
      <trkpt lat="43.23864" lon="5.96273">
        <ele>669.22</ele>
        <time>2017-03-09T11:06:04Z</time>
      </trkpt>
      <trkpt lat="43.23868" lon="5.96276">
        <ele>667.29</ele>
        <time>2017-03-09T11:06:15Z</time>
      </trkpt>
      <trkpt lat="43.23877" lon="5.96281">
        <ele>665.37</ele>
        <time>2017-03-09T11:06:31Z</time>
      </trkpt>
      <trkpt lat="43.2388" lon="5.96285">
        <ele>663.93</ele>
        <time>2017-03-09T11:06:43Z</time>
      </trkpt>
      <trkpt lat="43.23885" lon="5.96287">
        <ele>662.97</ele>
        <time>2017-03-09T11:06:56Z</time>
      </trkpt>
      <trkpt lat="43.23891" lon="5.96289">
        <ele>661.04</ele>
        <time>2017-03-09T11:07:09Z</time>
      </trkpt>
      <trkpt lat="43.23897" lon="5.96294">
        <ele>659.6</ele>
        <time>2017-03-09T11:07:23Z</time>
      </trkpt>
      <trkpt lat="43.23898" lon="5.963">
        <ele>658.64</ele>
        <time>2017-03-09T11:07:36Z</time>
      </trkpt>
      <trkpt lat="43.23903" lon="5.96305">
        <ele>657.2</ele>
        <time>2017-03-09T11:07:49Z</time>
      </trkpt>
      <trkpt lat="43.23904" lon="5.96313">
        <ele>655.76</ele>
        <time>2017-03-09T11:08:00Z</time>
      </trkpt>
      <trkpt lat="43.23909" lon="5.9632">
        <ele>654.8</ele>
        <time>2017-03-09T11:08:11Z</time>
      </trkpt>
      <trkpt lat="43.23911" lon="5.96328">
        <ele>652.87</ele>
        <time>2017-03-09T11:08:23Z</time>
      </trkpt>
      <trkpt lat="43.23912" lon="5.96337">
        <ele>651.91</ele>
        <time>2017-03-09T11:08:33Z</time>
      </trkpt>
      <trkpt lat="43.23914" lon="5.96344">
        <ele>650.47</ele>
        <time>2017-03-09T11:08:48Z</time>
      </trkpt>
      <trkpt lat="43.23915" lon="5.96351">
        <ele>649.51</ele>
        <time>2017-03-09T11:09:00Z</time>
      </trkpt>
      <trkpt lat="43.23914" lon="5.96357">
        <ele>648.55</ele>
        <time>2017-03-09T11:09:14Z</time>
      </trkpt>
      <trkpt lat="43.23915" lon="5.96359">
        <ele>647.59</ele>
        <time>2017-03-09T11:09:23Z</time>
      </trkpt>
      <trkpt lat="43.23919" lon="5.96366">
        <ele>645.18</ele>
        <time>2017-03-09T11:09:33Z</time>
      </trkpt>
      <trkpt lat="43.23923" lon="5.96374">
        <ele>643.74</ele>
        <time>2017-03-09T11:09:44Z</time>
      </trkpt>
      <trkpt lat="43.23923" lon="5.96385">
        <ele>641.82</ele>
        <time>2017-03-09T11:09:57Z</time>
      </trkpt>
      <trkpt lat="43.23923" lon="5.96397">
        <ele>640.38</ele>
        <time>2017-03-09T11:10:08Z</time>
      </trkpt>
      <trkpt lat="43.23929" lon="5.96406">
        <ele>638.93</ele>
        <time>2017-03-09T11:10:21Z</time>
      </trkpt>
      <trkpt lat="43.23934" lon="5.96414">
        <ele>637.49</ele>
        <time>2017-03-09T11:10:32Z</time>
      </trkpt>
      <trkpt lat="43.23938" lon="5.96419">
        <ele>636.53</ele>
        <time>2017-03-09T11:10:44Z</time>
      </trkpt>
      <trkpt lat="43.23946" lon="5.96429">
        <ele>636.05</ele>
        <time>2017-03-09T11:10:57Z</time>
      </trkpt>
      <trkpt lat="43.2395" lon="5.96442">
        <ele>635.09</ele>
        <time>2017-03-09T11:11:10Z</time>
      </trkpt>
      <trkpt lat="43.2395" lon="5.96444">
        <ele>635.09</ele>
        <time>2017-03-09T11:11:11Z</time>
      </trkpt>
      <trkpt lat="43.2395" lon="5.96458">
        <ele>634.61</ele>
        <time>2017-03-09T11:11:24Z</time>
      </trkpt>
      <trkpt lat="43.23947" lon="5.96466">
        <ele>634.61</ele>
        <time>2017-03-09T11:11:38Z</time>
      </trkpt>
      <trkpt lat="43.2395" lon="5.96477">
        <ele>634.61</ele>
        <time>2017-03-09T11:11:51Z</time>
      </trkpt>
      <trkpt lat="43.23952" lon="5.96478">
        <ele>635.09</ele>
        <time>2017-03-09T11:12:07Z</time>
      </trkpt>
      <trkpt lat="43.23954" lon="5.96483">
        <ele>634.61</ele>
        <time>2017-03-09T11:12:14Z</time>
      </trkpt>
      <trkpt lat="43.23955" lon="5.96485">
        <ele>633.17</ele>
        <time>2017-03-09T11:12:23Z</time>
      </trkpt>
      <trkpt lat="43.23955" lon="5.96485">
        <ele>633.17</ele>
        <time>2017-03-09T11:12:48Z</time>
      </trkpt>
      <trkpt lat="43.23955" lon="5.96485">
        <ele>633.17</ele>
        <time>2017-03-09T11:13:22Z</time>
      </trkpt>
      <trkpt lat="43.23955" lon="5.96485">
        <ele>633.17</ele>
        <time>2017-03-09T11:13:54Z</time>
      </trkpt>
      <trkpt lat="43.23955" lon="5.96484">
        <ele>633.17</ele>
        <time>2017-03-09T11:14:23Z</time>
      </trkpt>
      <trkpt lat="43.23955" lon="5.96482">
        <ele>634.13</ele>
        <time>2017-03-09T11:14:50Z</time>
      </trkpt>
      <trkpt lat="43.23955" lon="5.96478">
        <ele>634.61</ele>
        <time>2017-03-09T11:15:03Z</time>
      </trkpt>
      <trkpt lat="43.23955" lon="5.96476">
        <ele>634.13</ele>
        <time>2017-03-09T11:15:14Z</time>
      </trkpt>
      <trkpt lat="43.23955" lon="5.96475">
        <ele>634.13</ele>
        <time>2017-03-09T11:15:37Z</time>
      </trkpt>
      <trkpt lat="43.23955" lon="5.96475">
        <ele>634.13</ele>
        <time>2017-03-09T11:16:09Z</time>
      </trkpt>
      <trkpt lat="43.23955" lon="5.96474">
        <ele>634.13</ele>
        <time>2017-03-09T11:16:37Z</time>
      </trkpt>
      <trkpt lat="43.23955" lon="5.96475">
        <ele>634.61</ele>
        <time>2017-03-09T11:17:00Z</time>
      </trkpt>
      <trkpt lat="43.23955" lon="5.96475">
        <ele>634.61</ele>
        <time>2017-03-09T11:17:25Z</time>
      </trkpt>
      <trkpt lat="43.23955" lon="5.96474">
        <ele>634.61</ele>
        <time>2017-03-09T11:17:57Z</time>
      </trkpt>
      <trkpt lat="43.23955" lon="5.96473">
        <ele>634.61</ele>
        <time>2017-03-09T11:18:19Z</time>
      </trkpt>
      <trkpt lat="43.23955" lon="5.96473">
        <ele>634.61</ele>
        <time>2017-03-09T11:18:44Z</time>
      </trkpt>
      <trkpt lat="43.23955" lon="5.96472">
        <ele>635.09</ele>
        <time>2017-03-09T11:19:10Z</time>
      </trkpt>
      <trkpt lat="43.23955" lon="5.96472">
        <ele>635.09</ele>
        <time>2017-03-09T11:19:40Z</time>
      </trkpt>
      <trkpt lat="43.23955" lon="5.96472">
        <ele>634.61</ele>
        <time>2017-03-09T11:20:09Z</time>
      </trkpt>
      <trkpt lat="43.23954" lon="5.96473">
        <ele>634.61</ele>
        <time>2017-03-09T11:20:37Z</time>
      </trkpt>
      <trkpt lat="43.23954" lon="5.96473">
        <ele>634.61</ele>
        <time>2017-03-09T11:21:11Z</time>
      </trkpt>
      <trkpt lat="43.23954" lon="5.96473">
        <ele>634.13</ele>
        <time>2017-03-09T11:21:42Z</time>
      </trkpt>
      <trkpt lat="43.23954" lon="5.96473">
        <ele>634.13</ele>
        <time>2017-03-09T11:22:19Z</time>
      </trkpt>
      <trkpt lat="43.23954" lon="5.96474">
        <ele>634.13</ele>
        <time>2017-03-09T11:22:48Z</time>
      </trkpt>
      <trkpt lat="43.23954" lon="5.96474">
        <ele>634.13</ele>
        <time>2017-03-09T11:23:12Z</time>
      </trkpt>
      <trkpt lat="43.23954" lon="5.96474">
        <ele>634.61</ele>
        <time>2017-03-09T11:23:43Z</time>
      </trkpt>
      <trkpt lat="43.23955" lon="5.96474">
        <ele>634.13</ele>
        <time>2017-03-09T11:24:12Z</time>
      </trkpt>
      <trkpt lat="43.23955" lon="5.96474">
        <ele>634.13</ele>
        <time>2017-03-09T11:24:43Z</time>
      </trkpt>
      <trkpt lat="43.23955" lon="5.96474">
        <ele>634.13</ele>
        <time>2017-03-09T11:25:10Z</time>
      </trkpt>
      <trkpt lat="43.23955" lon="5.96473">
        <ele>634.13</ele>
        <time>2017-03-09T11:25:37Z</time>
      </trkpt>
      <trkpt lat="43.23955" lon="5.96473">
        <ele>634.13</ele>
        <time>2017-03-09T11:26:06Z</time>
      </trkpt>
      <trkpt lat="43.23955" lon="5.96473">
        <ele>634.13</ele>
        <time>2017-03-09T11:26:35Z</time>
      </trkpt>
      <trkpt lat="43.23955" lon="5.96473">
        <ele>634.13</ele>
        <time>2017-03-09T11:27:02Z</time>
      </trkpt>
      <trkpt lat="43.23955" lon="5.96472">
        <ele>634.61</ele>
        <time>2017-03-09T11:27:29Z</time>
      </trkpt>
      <trkpt lat="43.23955" lon="5.96472">
        <ele>634.13</ele>
        <time>2017-03-09T11:27:56Z</time>
      </trkpt>
      <trkpt lat="43.23955" lon="5.96472">
        <ele>634.61</ele>
        <time>2017-03-09T11:28:27Z</time>
      </trkpt>
      <trkpt lat="43.23955" lon="5.96472">
        <ele>634.61</ele>
        <time>2017-03-09T11:28:56Z</time>
      </trkpt>
      <trkpt lat="43.23955" lon="5.96472">
        <ele>634.13</ele>
        <time>2017-03-09T11:29:26Z</time>
      </trkpt>
      <trkpt lat="43.23955" lon="5.96473">
        <ele>634.61</ele>
        <time>2017-03-09T11:29:59Z</time>
      </trkpt>
      <trkpt lat="43.23955" lon="5.96473">
        <ele>634.13</ele>
        <time>2017-03-09T11:30:30Z</time>
      </trkpt>
      <trkpt lat="43.23955" lon="5.96473">
        <ele>634.13</ele>
        <time>2017-03-09T11:31:00Z</time>
      </trkpt>
      <trkpt lat="43.23955" lon="5.96472">
        <ele>634.13</ele>
        <time>2017-03-09T11:31:30Z</time>
      </trkpt>
      <trkpt lat="43.23955" lon="5.96473">
        <ele>634.13</ele>
        <time>2017-03-09T11:32:01Z</time>
      </trkpt>
      <trkpt lat="43.23955" lon="5.96472">
        <ele>634.13</ele>
        <time>2017-03-09T11:32:29Z</time>
      </trkpt>
      <trkpt lat="43.23955" lon="5.96472">
        <ele>634.13</ele>
        <time>2017-03-09T11:33:00Z</time>
      </trkpt>
      <trkpt lat="43.23955" lon="5.96472">
        <ele>634.13</ele>
        <time>2017-03-09T11:33:28Z</time>
      </trkpt>
      <trkpt lat="43.23955" lon="5.96472">
        <ele>633.65</ele>
        <time>2017-03-09T11:33:56Z</time>
      </trkpt>
      <trkpt lat="43.23955" lon="5.96473">
        <ele>633.65</ele>
        <time>2017-03-09T11:34:26Z</time>
      </trkpt>
      <trkpt lat="43.23955" lon="5.96473">
        <ele>633.65</ele>
        <time>2017-03-09T11:34:58Z</time>
      </trkpt>
      <trkpt lat="43.23956" lon="5.96473">
        <ele>633.65</ele>
        <time>2017-03-09T11:35:29Z</time>
      </trkpt>
      <trkpt lat="43.23956" lon="5.96473">
        <ele>633.65</ele>
        <time>2017-03-09T11:36:02Z</time>
      </trkpt>
      <trkpt lat="43.23955" lon="5.96473">
        <ele>633.17</ele>
        <time>2017-03-09T11:36:31Z</time>
      </trkpt>
      <trkpt lat="43.23956" lon="5.96473">
        <ele>632.68</ele>
        <time>2017-03-09T11:36:58Z</time>
      </trkpt>
      <trkpt lat="43.23955" lon="5.96473">
        <ele>632.68</ele>
        <time>2017-03-09T11:37:31Z</time>
      </trkpt>
      <trkpt lat="43.23954" lon="5.96474">
        <ele>632.68</ele>
        <time>2017-03-09T11:37:58Z</time>
      </trkpt>
      <trkpt lat="43.23954" lon="5.96475">
        <ele>632.68</ele>
        <time>2017-03-09T11:38:35Z</time>
      </trkpt>
      <trkpt lat="43.23954" lon="5.96474">
        <ele>632.68</ele>
        <time>2017-03-09T11:39:13Z</time>
      </trkpt>
      <trkpt lat="43.23954" lon="5.96474">
        <ele>632.68</ele>
        <time>2017-03-09T11:39:37Z</time>
      </trkpt>
      <trkpt lat="43.23955" lon="5.96474">
        <ele>632.68</ele>
        <time>2017-03-09T11:40:04Z</time>
      </trkpt>
      <trkpt lat="43.23955" lon="5.96474">
        <ele>633.17</ele>
        <time>2017-03-09T11:40:17Z</time>
      </trkpt>
      <trkpt lat="43.23955" lon="5.96474">
        <ele>632.68</ele>
        <time>2017-03-09T11:40:47Z</time>
      </trkpt>
      <trkpt lat="43.23955" lon="5.96474">
        <ele>633.17</ele>
        <time>2017-03-09T11:41:20Z</time>
      </trkpt>
      <trkpt lat="43.23955" lon="5.96474">
        <ele>632.68</ele>
        <time>2017-03-09T11:41:51Z</time>
      </trkpt>
      <trkpt lat="43.23955" lon="5.96474">
        <ele>633.17</ele>
        <time>2017-03-09T11:42:20Z</time>
      </trkpt>
      <trkpt lat="43.23956" lon="5.96474">
        <ele>633.17</ele>
        <time>2017-03-09T11:42:50Z</time>
      </trkpt>
      <trkpt lat="43.23955" lon="5.96474">
        <ele>633.17</ele>
        <time>2017-03-09T11:43:23Z</time>
      </trkpt>
      <trkpt lat="43.23955" lon="5.96474">
        <ele>633.17</ele>
        <time>2017-03-09T11:43:46Z</time>
      </trkpt>
      <trkpt lat="43.23955" lon="5.96474">
        <ele>633.65</ele>
        <time>2017-03-09T11:44:19Z</time>
      </trkpt>
      <trkpt lat="43.23955" lon="5.96474">
        <ele>633.65</ele>
        <time>2017-03-09T11:44:52Z</time>
      </trkpt>
      <trkpt lat="43.23955" lon="5.96474">
        <ele>633.65</ele>
        <time>2017-03-09T11:45:22Z</time>
      </trkpt>
      <trkpt lat="43.23955" lon="5.96475">
        <ele>633.65</ele>
        <time>2017-03-09T11:45:57Z</time>
      </trkpt>
      <trkpt lat="43.23955" lon="5.96474">
        <ele>633.17</ele>
        <time>2017-03-09T11:46:28Z</time>
      </trkpt>
      <trkpt lat="43.23955" lon="5.96474">
        <ele>633.65</ele>
        <time>2017-03-09T11:47:00Z</time>
      </trkpt>
      <trkpt lat="43.23955" lon="5.96474">
        <ele>633.65</ele>
        <time>2017-03-09T11:47:38Z</time>
      </trkpt>
      <trkpt lat="43.23955" lon="5.96474">
        <ele>633.65</ele>
        <time>2017-03-09T11:48:11Z</time>
      </trkpt>
      <trkpt lat="43.23955" lon="5.96473">
        <ele>634.13</ele>
        <time>2017-03-09T11:48:47Z</time>
      </trkpt>
      <trkpt lat="43.23955" lon="5.96473">
        <ele>634.13</ele>
        <time>2017-03-09T11:49:16Z</time>
      </trkpt>
      <trkpt lat="43.23955" lon="5.96473">
        <ele>634.13</ele>
        <time>2017-03-09T11:49:48Z</time>
      </trkpt>
      <trkpt lat="43.23955" lon="5.96473">
        <ele>634.13</ele>
        <time>2017-03-09T11:50:18Z</time>
      </trkpt>
      <trkpt lat="43.23955" lon="5.96473">
        <ele>634.13</ele>
        <time>2017-03-09T11:50:52Z</time>
      </trkpt>
      <trkpt lat="43.23955" lon="5.96473">
        <ele>634.61</ele>
        <time>2017-03-09T11:51:18Z</time>
      </trkpt>
      <trkpt lat="43.23955" lon="5.96473">
        <ele>634.61</ele>
        <time>2017-03-09T11:51:45Z</time>
      </trkpt>
      <trkpt lat="43.23955" lon="5.96473">
        <ele>633.65</ele>
        <time>2017-03-09T11:52:18Z</time>
      </trkpt>
      <trkpt lat="43.23955" lon="5.96473">
        <ele>633.65</ele>
        <time>2017-03-09T11:52:50Z</time>
      </trkpt>
      <trkpt lat="43.23955" lon="5.96473">
        <ele>633.65</ele>
        <time>2017-03-09T11:53:21Z</time>
      </trkpt>
      <trkpt lat="43.23955" lon="5.96473">
        <ele>633.65</ele>
        <time>2017-03-09T11:53:57Z</time>
      </trkpt>
      <trkpt lat="43.23955" lon="5.96473">
        <ele>634.13</ele>
        <time>2017-03-09T11:54:28Z</time>
      </trkpt>
      <trkpt lat="43.23955" lon="5.96473">
        <ele>633.65</ele>
        <time>2017-03-09T11:54:55Z</time>
      </trkpt>
      <trkpt lat="43.23955" lon="5.96473">
        <ele>633.65</ele>
        <time>2017-03-09T11:55:21Z</time>
      </trkpt>
      <trkpt lat="43.23955" lon="5.96473">
        <ele>633.17</ele>
        <time>2017-03-09T11:55:49Z</time>
      </trkpt>
      <trkpt lat="43.23955" lon="5.96473">
        <ele>633.17</ele>
        <time>2017-03-09T11:56:12Z</time>
      </trkpt>
      <trkpt lat="43.23955" lon="5.96473">
        <ele>633.17</ele>
        <time>2017-03-09T11:56:36Z</time>
      </trkpt>
      <trkpt lat="43.23955" lon="5.96473">
        <ele>633.65</ele>
        <time>2017-03-09T11:57:10Z</time>
      </trkpt>
      <trkpt lat="43.23955" lon="5.96474">
        <ele>633.65</ele>
        <time>2017-03-09T11:57:40Z</time>
      </trkpt>
      <trkpt lat="43.23955" lon="5.96473">
        <ele>634.13</ele>
        <time>2017-03-09T11:58:15Z</time>
      </trkpt>
      <trkpt lat="43.23955" lon="5.96473">
        <ele>634.13</ele>
        <time>2017-03-09T11:58:51Z</time>
      </trkpt>
      <trkpt lat="43.23955" lon="5.96473">
        <ele>633.17</ele>
        <time>2017-03-09T11:59:26Z</time>
      </trkpt>
      <trkpt lat="43.23955" lon="5.96473">
        <ele>633.17</ele>
        <time>2017-03-09T12:00:01Z</time>
      </trkpt>
      <trkpt lat="43.23955" lon="5.96473">
        <ele>633.65</ele>
        <time>2017-03-09T12:00:39Z</time>
      </trkpt>
      <trkpt lat="43.23955" lon="5.96473">
        <ele>633.65</ele>
        <time>2017-03-09T12:01:09Z</time>
      </trkpt>
      <trkpt lat="43.23955" lon="5.96472">
        <ele>633.65</ele>
        <time>2017-03-09T12:01:38Z</time>
      </trkpt>
      <trkpt lat="43.23955" lon="5.96473">
        <ele>633.65</ele>
        <time>2017-03-09T12:02:10Z</time>
      </trkpt>
      <trkpt lat="43.23955" lon="5.96473">
        <ele>633.65</ele>
        <time>2017-03-09T12:02:44Z</time>
      </trkpt>
      <trkpt lat="43.23955" lon="5.96473">
        <ele>633.65</ele>
        <time>2017-03-09T12:03:22Z</time>
      </trkpt>
      <trkpt lat="43.23956" lon="5.96473">
        <ele>633.65</ele>
        <time>2017-03-09T12:03:55Z</time>
      </trkpt>
      <trkpt lat="43.23955" lon="5.96473">
        <ele>634.13</ele>
        <time>2017-03-09T12:04:24Z</time>
      </trkpt>
      <trkpt lat="43.23955" lon="5.96473">
        <ele>634.13</ele>
        <time>2017-03-09T12:04:45Z</time>
      </trkpt>
      <trkpt lat="43.23955" lon="5.96473">
        <ele>634.13</ele>
        <time>2017-03-09T12:05:19Z</time>
      </trkpt>
      <trkpt lat="43.23955" lon="5.96473">
        <ele>634.13</ele>
        <time>2017-03-09T12:05:51Z</time>
      </trkpt>
      <trkpt lat="43.23955" lon="5.96473">
        <ele>634.61</ele>
        <time>2017-03-09T12:06:27Z</time>
      </trkpt>
      <trkpt lat="43.23955" lon="5.96474">
        <ele>633.65</ele>
        <time>2017-03-09T12:06:56Z</time>
      </trkpt>
      <trkpt lat="43.23956" lon="5.96473">
        <ele>634.13</ele>
        <time>2017-03-09T12:07:37Z</time>
      </trkpt>
      <trkpt lat="43.23956" lon="5.96473">
        <ele>634.13</ele>
        <time>2017-03-09T12:08:06Z</time>
      </trkpt>
      <trkpt lat="43.23955" lon="5.96473">
        <ele>634.13</ele>
        <time>2017-03-09T12:08:41Z</time>
      </trkpt>
      <trkpt lat="43.23956" lon="5.96473">
        <ele>634.13</ele>
        <time>2017-03-09T12:09:18Z</time>
      </trkpt>
      <trkpt lat="43.23956" lon="5.96473">
        <ele>634.13</ele>
        <time>2017-03-09T12:09:47Z</time>
      </trkpt>
      <trkpt lat="43.23956" lon="5.96473">
        <ele>634.13</ele>
        <time>2017-03-09T12:10:20Z</time>
      </trkpt>
      <trkpt lat="43.23956" lon="5.96474">
        <ele>634.13</ele>
        <time>2017-03-09T12:10:56Z</time>
      </trkpt>
      <trkpt lat="43.23956" lon="5.96473">
        <ele>634.13</ele>
        <time>2017-03-09T12:11:30Z</time>
      </trkpt>
      <trkpt lat="43.23956" lon="5.96473">
        <ele>634.61</ele>
        <time>2017-03-09T12:12:04Z</time>
      </trkpt>
      <trkpt lat="43.23957" lon="5.96473">
        <ele>634.13</ele>
        <time>2017-03-09T12:12:34Z</time>
      </trkpt>
      <trkpt lat="43.23957" lon="5.96474">
        <ele>634.13</ele>
        <time>2017-03-09T12:13:00Z</time>
      </trkpt>
      <trkpt lat="43.23957" lon="5.96473">
        <ele>634.61</ele>
        <time>2017-03-09T12:13:30Z</time>
      </trkpt>
      <trkpt lat="43.23957" lon="5.96473">
        <ele>634.61</ele>
        <time>2017-03-09T12:13:55Z</time>
      </trkpt>
      <trkpt lat="43.23956" lon="5.96473">
        <ele>634.61</ele>
        <time>2017-03-09T12:14:25Z</time>
      </trkpt>
      <trkpt lat="43.23956" lon="5.96473">
        <ele>634.61</ele>
        <time>2017-03-09T12:14:58Z</time>
      </trkpt>
      <trkpt lat="43.23956" lon="5.96473">
        <ele>634.61</ele>
        <time>2017-03-09T12:15:27Z</time>
      </trkpt>
      <trkpt lat="43.23956" lon="5.96473">
        <ele>634.61</ele>
        <time>2017-03-09T12:15:54Z</time>
      </trkpt>
      <trkpt lat="43.23956" lon="5.96473">
        <ele>635.09</ele>
        <time>2017-03-09T12:16:22Z</time>
      </trkpt>
      <trkpt lat="43.23956" lon="5.96473">
        <ele>635.09</ele>
        <time>2017-03-09T12:16:54Z</time>
      </trkpt>
      <trkpt lat="43.23956" lon="5.96473">
        <ele>634.61</ele>
        <time>2017-03-09T12:17:19Z</time>
      </trkpt>
      <trkpt lat="43.23956" lon="5.96473">
        <ele>634.61</ele>
        <time>2017-03-09T12:17:46Z</time>
      </trkpt>
      <trkpt lat="43.23956" lon="5.96474">
        <ele>634.61</ele>
        <time>2017-03-09T12:18:18Z</time>
      </trkpt>
      <trkpt lat="43.23956" lon="5.96474">
        <ele>634.61</ele>
        <time>2017-03-09T12:18:49Z</time>
      </trkpt>
      <trkpt lat="43.23956" lon="5.96474">
        <ele>634.61</ele>
        <time>2017-03-09T12:19:20Z</time>
      </trkpt>
      <trkpt lat="43.23956" lon="5.96474">
        <ele>634.13</ele>
        <time>2017-03-09T12:19:49Z</time>
      </trkpt>
      <trkpt lat="43.23956" lon="5.96474">
        <ele>634.61</ele>
        <time>2017-03-09T12:20:14Z</time>
      </trkpt>
      <trkpt lat="43.23956" lon="5.96474">
        <ele>634.61</ele>
        <time>2017-03-09T12:20:32Z</time>
      </trkpt>
      <trkpt lat="43.23956" lon="5.96474">
        <ele>635.09</ele>
        <time>2017-03-09T12:21:02Z</time>
      </trkpt>
      <trkpt lat="43.23956" lon="5.96474">
        <ele>635.09</ele>
        <time>2017-03-09T12:21:29Z</time>
      </trkpt>
      <trkpt lat="43.23955" lon="5.96474">
        <ele>635.09</ele>
        <time>2017-03-09T12:22:02Z</time>
      </trkpt>
      <trkpt lat="43.23955" lon="5.96474">
        <ele>635.09</ele>
        <time>2017-03-09T12:22:35Z</time>
      </trkpt>
      <trkpt lat="43.23955" lon="5.96475">
        <ele>635.09</ele>
        <time>2017-03-09T12:23:06Z</time>
      </trkpt>
      <trkpt lat="43.23955" lon="5.96475">
        <ele>635.09</ele>
        <time>2017-03-09T12:23:42Z</time>
      </trkpt>
      <trkpt lat="43.23954" lon="5.96474">
        <ele>634.61</ele>
        <time>2017-03-09T12:24:22Z</time>
      </trkpt>
      <trkpt lat="43.23954" lon="5.96475">
        <ele>635.09</ele>
        <time>2017-03-09T12:25:04Z</time>
      </trkpt>
      <trkpt lat="43.23954" lon="5.96475">
        <ele>635.09</ele>
        <time>2017-03-09T12:25:28Z</time>
      </trkpt>
      <trkpt lat="43.23954" lon="5.96475">
        <ele>634.61</ele>
        <time>2017-03-09T12:25:52Z</time>
      </trkpt>
      <trkpt lat="43.23954" lon="5.96475">
        <ele>634.61</ele>
        <time>2017-03-09T12:26:18Z</time>
      </trkpt>
      <trkpt lat="43.23954" lon="5.96476">
        <ele>635.09</ele>
        <time>2017-03-09T12:26:51Z</time>
      </trkpt>
      <trkpt lat="43.23954" lon="5.96476">
        <ele>635.57</ele>
        <time>2017-03-09T12:27:22Z</time>
      </trkpt>
      <trkpt lat="43.23955" lon="5.96476">
        <ele>635.09</ele>
        <time>2017-03-09T12:27:48Z</time>
      </trkpt>
      <trkpt lat="43.23954" lon="5.96476">
        <ele>635.57</ele>
        <time>2017-03-09T12:28:15Z</time>
      </trkpt>
      <trkpt lat="43.23954" lon="5.96475">
        <ele>635.57</ele>
        <time>2017-03-09T12:28:47Z</time>
      </trkpt>
      <trkpt lat="43.23954" lon="5.96475">
        <ele>636.05</ele>
        <time>2017-03-09T12:29:23Z</time>
      </trkpt>
      <trkpt lat="43.23954" lon="5.96475">
        <ele>636.05</ele>
        <time>2017-03-09T12:29:56Z</time>
      </trkpt>
      <trkpt lat="43.23954" lon="5.96474">
        <ele>636.05</ele>
        <time>2017-03-09T12:30:26Z</time>
      </trkpt>
      <trkpt lat="43.23954" lon="5.96475">
        <ele>637.49</ele>
        <time>2017-03-09T12:30:44Z</time>
      </trkpt>
      <trkpt lat="43.23955" lon="5.96475">
        <ele>637.01</ele>
        <time>2017-03-09T12:31:01Z</time>
      </trkpt>
      <trkpt lat="43.23954" lon="5.96475">
        <ele>637.49</ele>
        <time>2017-03-09T12:31:18Z</time>
      </trkpt>
      <trkpt lat="43.23954" lon="5.96474">
        <ele>637.01</ele>
        <time>2017-03-09T12:31:40Z</time>
      </trkpt>
      <trkpt lat="43.23953" lon="5.96475">
        <ele>637.01</ele>
        <time>2017-03-09T12:31:59Z</time>
      </trkpt>
      <trkpt lat="43.23949" lon="5.96476">
        <ele>636.05</ele>
        <time>2017-03-09T12:32:12Z</time>
      </trkpt>
      <trkpt lat="43.23946" lon="5.96476">
        <ele>636.05</ele>
        <time>2017-03-09T12:32:28Z</time>
      </trkpt>
      <trkpt lat="43.23946" lon="5.96478">
        <ele>635.57</ele>
        <time>2017-03-09T12:32:42Z</time>
      </trkpt>
      <trkpt lat="43.23943" lon="5.96483">
        <ele>635.57</ele>
        <time>2017-03-09T12:32:58Z</time>
      </trkpt>
      <trkpt lat="43.23938" lon="5.96485">
        <ele>634.13</ele>
        <time>2017-03-09T12:33:12Z</time>
      </trkpt>
      <trkpt lat="43.23935" lon="5.96492">
        <ele>632.68</ele>
        <time>2017-03-09T12:33:25Z</time>
      </trkpt>
      <trkpt lat="43.23933" lon="5.96497">
        <ele>631.72</ele>
        <time>2017-03-09T12:33:42Z</time>
      </trkpt>
      <trkpt lat="43.23938" lon="5.96507">
        <ele>630.28</ele>
        <time>2017-03-09T12:33:53Z</time>
      </trkpt>
      <trkpt lat="43.23944" lon="5.96519">
        <ele>628.84</ele>
        <time>2017-03-09T12:34:06Z</time>
      </trkpt>
      <trkpt lat="43.23951" lon="5.96528">
        <ele>627.4</ele>
        <time>2017-03-09T12:34:20Z</time>
      </trkpt>
      <trkpt lat="43.23953" lon="5.96531">
        <ele>626.44</ele>
        <time>2017-03-09T12:34:25Z</time>
      </trkpt>
      <trkpt lat="43.23951" lon="5.96537">
        <ele>624.99</ele>
        <time>2017-03-09T12:34:37Z</time>
      </trkpt>
      <trkpt lat="43.23955" lon="5.96546">
        <ele>623.07</ele>
        <time>2017-03-09T12:34:50Z</time>
      </trkpt>
      <trkpt lat="43.23955" lon="5.96552">
        <ele>621.15</ele>
        <time>2017-03-09T12:35:01Z</time>
      </trkpt>
      <trkpt lat="43.23957" lon="5.96562">
        <ele>619.23</ele>
        <time>2017-03-09T12:35:13Z</time>
      </trkpt>
      <trkpt lat="43.23963" lon="5.96571">
        <ele>617.78</ele>
        <time>2017-03-09T12:35:23Z</time>
      </trkpt>
      <trkpt lat="43.23966" lon="5.96579">
        <ele>615.86</ele>
        <time>2017-03-09T12:35:35Z</time>
      </trkpt>
      <trkpt lat="43.23975" lon="5.96587">
        <ele>613.94</ele>
        <time>2017-03-09T12:35:48Z</time>
      </trkpt>
      <trkpt lat="43.2398" lon="5.96595">
        <ele>611.54</ele>
        <time>2017-03-09T12:36:01Z</time>
      </trkpt>
      <trkpt lat="43.23987" lon="5.96609">
        <ele>610.09</ele>
        <time>2017-03-09T12:36:15Z</time>
      </trkpt>
      <trkpt lat="43.23993" lon="5.9662">
        <ele>608.17</ele>
        <time>2017-03-09T12:36:28Z</time>
      </trkpt>
      <trkpt lat="43.23995" lon="5.96633">
        <ele>607.69</ele>
        <time>2017-03-09T12:36:41Z</time>
      </trkpt>
      <trkpt lat="43.23994" lon="5.96637">
        <ele>606.25</ele>
        <time>2017-03-09T12:36:52Z</time>
      </trkpt>
      <trkpt lat="43.23999" lon="5.96638">
        <ele>603.85</ele>
        <time>2017-03-09T12:37:03Z</time>
      </trkpt>
      <trkpt lat="43.24009" lon="5.96639">
        <ele>601.44</ele>
        <time>2017-03-09T12:37:17Z</time>
      </trkpt>
      <trkpt lat="43.24011" lon="5.96642">
        <ele>600.96</ele>
        <time>2017-03-09T12:37:33Z</time>
      </trkpt>
      <trkpt lat="43.24017" lon="5.96644">
        <ele>599.52</ele>
        <time>2017-03-09T12:37:47Z</time>
      </trkpt>
      <trkpt lat="43.24022" lon="5.96651">
        <ele>599.52</ele>
        <time>2017-03-09T12:37:59Z</time>
      </trkpt>
      <trkpt lat="43.24024" lon="5.96648">
        <ele>597.12</ele>
        <time>2017-03-09T12:38:12Z</time>
      </trkpt>
      <trkpt lat="43.24029" lon="5.9665">
        <ele>596.15</ele>
        <time>2017-03-09T12:38:26Z</time>
      </trkpt>
      <trkpt lat="43.24032" lon="5.96656">
        <ele>595.67</ele>
        <time>2017-03-09T12:38:40Z</time>
      </trkpt>
      <trkpt lat="43.24033" lon="5.96662">
        <ele>595.19</ele>
        <time>2017-03-09T12:38:55Z</time>
      </trkpt>
      <trkpt lat="43.24034" lon="5.96664">
        <ele>595.67</ele>
        <time>2017-03-09T12:39:12Z</time>
      </trkpt>
      <trkpt lat="43.2403" lon="5.96668">
        <ele>596.15</ele>
        <time>2017-03-09T12:39:29Z</time>
      </trkpt>
      <trkpt lat="43.2403" lon="5.96666">
        <ele>599.04</ele>
        <time>2017-03-09T12:39:47Z</time>
      </trkpt>
      <trkpt lat="43.24029" lon="5.96667">
        <ele>598.08</ele>
        <time>2017-03-09T12:40:03Z</time>
      </trkpt>
      <trkpt lat="43.24035" lon="5.96664">
        <ele>596.15</ele>
        <time>2017-03-09T12:40:20Z</time>
      </trkpt>
      <trkpt lat="43.24037" lon="5.96661">
        <ele>595.19</ele>
        <time>2017-03-09T12:40:38Z</time>
      </trkpt>
      <trkpt lat="43.2404" lon="5.9666">
        <ele>593.27</ele>
        <time>2017-03-09T12:40:53Z</time>
      </trkpt>
      <trkpt lat="43.24047" lon="5.96667">
        <ele>591.83</ele>
        <time>2017-03-09T12:41:06Z</time>
      </trkpt>
      <trkpt lat="43.24043" lon="5.96672">
        <ele>591.83</ele>
        <time>2017-03-09T12:41:18Z</time>
      </trkpt>
      <trkpt lat="43.24038" lon="5.96679">
        <ele>592.31</ele>
        <time>2017-03-09T12:41:33Z</time>
      </trkpt>
      <trkpt lat="43.24038" lon="5.96679">
        <ele>591.83</ele>
        <time>2017-03-09T12:41:46Z</time>
      </trkpt>
      <trkpt lat="43.2404" lon="5.96696">
        <ele>592.31</ele>
        <time>2017-03-09T12:41:58Z</time>
      </trkpt>
      <trkpt lat="43.24039" lon="5.96703">
        <ele>592.31</ele>
        <time>2017-03-09T12:42:10Z</time>
      </trkpt>
      <trkpt lat="43.2404" lon="5.96704">
        <ele>591.83</ele>
        <time>2017-03-09T12:42:25Z</time>
      </trkpt>
      <trkpt lat="43.2404" lon="5.96705">
        <ele>591.83</ele>
        <time>2017-03-09T12:42:40Z</time>
      </trkpt>
      <trkpt lat="43.24043" lon="5.96711">
        <ele>591.35</ele>
        <time>2017-03-09T12:42:50Z</time>
      </trkpt>
      <trkpt lat="43.24043" lon="5.96711">
        <ele>591.35</ele>
        <time>2017-03-09T12:43:08Z</time>
      </trkpt>
      <trkpt lat="43.24044" lon="5.9671">
        <ele>591.83</ele>
        <time>2017-03-09T12:43:32Z</time>
      </trkpt>
      <trkpt lat="43.24044" lon="5.96711">
        <ele>590.87</ele>
        <time>2017-03-09T12:43:44Z</time>
      </trkpt>
      <trkpt lat="43.24044" lon="5.96714">
        <ele>591.35</ele>
        <time>2017-03-09T12:44:05Z</time>
      </trkpt>
      <trkpt lat="43.24044" lon="5.96717">
        <ele>591.35</ele>
        <time>2017-03-09T12:44:18Z</time>
      </trkpt>
      <trkpt lat="43.24046" lon="5.96721">
        <ele>590.87</ele>
        <time>2017-03-09T12:44:33Z</time>
      </trkpt>
      <trkpt lat="43.24047" lon="5.96727">
        <ele>590.87</ele>
        <time>2017-03-09T12:44:47Z</time>
      </trkpt>
      <trkpt lat="43.24046" lon="5.96729">
        <ele>590.87</ele>
        <time>2017-03-09T12:45:00Z</time>
      </trkpt>
      <trkpt lat="43.24047" lon="5.96733">
        <ele>590.39</ele>
        <time>2017-03-09T12:45:13Z</time>
      </trkpt>
      <trkpt lat="43.24054" lon="5.96747">
        <ele>589.43</ele>
        <time>2017-03-09T12:45:25Z</time>
      </trkpt>
      <trkpt lat="43.24058" lon="5.96757">
        <ele>588.95</ele>
        <time>2017-03-09T12:45:34Z</time>
      </trkpt>
      <trkpt lat="43.24062" lon="5.96773">
        <ele>588.46</ele>
        <time>2017-03-09T12:45:48Z</time>
      </trkpt>
      <trkpt lat="43.24062" lon="5.96782">
        <ele>588.95</ele>
        <time>2017-03-09T12:46:02Z</time>
      </trkpt>
      <trkpt lat="43.24062" lon="5.96784">
        <ele>588.95</ele>
        <time>2017-03-09T12:46:15Z</time>
      </trkpt>
      <trkpt lat="43.24062" lon="5.96786">
        <ele>588.95</ele>
        <time>2017-03-09T12:46:29Z</time>
      </trkpt>
      <trkpt lat="43.24064" lon="5.96788">
        <ele>588.95</ele>
        <time>2017-03-09T12:46:43Z</time>
      </trkpt>
      <trkpt lat="43.24064" lon="5.96787">
        <ele>588.95</ele>
        <time>2017-03-09T12:46:56Z</time>
      </trkpt>
      <trkpt lat="43.24064" lon="5.96788">
        <ele>589.43</ele>
        <time>2017-03-09T12:47:19Z</time>
      </trkpt>
      <trkpt lat="43.24063" lon="5.9679">
        <ele>589.43</ele>
        <time>2017-03-09T12:47:39Z</time>
      </trkpt>
      <trkpt lat="43.24063" lon="5.9679">
        <ele>589.43</ele>
        <time>2017-03-09T12:47:55Z</time>
      </trkpt>
      <trkpt lat="43.24063" lon="5.96794">
        <ele>589.91</ele>
        <time>2017-03-09T12:48:11Z</time>
      </trkpt>
      <trkpt lat="43.24063" lon="5.96804">
        <ele>590.87</ele>
        <time>2017-03-09T12:48:25Z</time>
      </trkpt>
      <trkpt lat="43.24063" lon="5.96817">
        <ele>591.83</ele>
        <time>2017-03-09T12:48:35Z</time>
      </trkpt>
      <trkpt lat="43.24064" lon="5.9682">
        <ele>592.31</ele>
        <time>2017-03-09T12:48:38Z</time>
      </trkpt>
      <trkpt lat="43.24063" lon="5.96833">
        <ele>592.79</ele>
        <time>2017-03-09T12:48:50Z</time>
      </trkpt>
      <trkpt lat="43.24065" lon="5.96842">
        <ele>593.27</ele>
        <time>2017-03-09T12:49:00Z</time>
      </trkpt>
      <trkpt lat="43.24065" lon="5.96844">
        <ele>593.27</ele>
        <time>2017-03-09T12:49:02Z</time>
      </trkpt>
      <trkpt lat="43.24067" lon="5.96854">
        <ele>594.23</ele>
        <time>2017-03-09T12:49:13Z</time>
      </trkpt>
      <trkpt lat="43.24065" lon="5.96867">
        <ele>595.19</ele>
        <time>2017-03-09T12:49:24Z</time>
      </trkpt>
      <trkpt lat="43.24062" lon="5.96882">
        <ele>596.15</ele>
        <time>2017-03-09T12:49:36Z</time>
      </trkpt>
      <trkpt lat="43.24058" lon="5.9689">
        <ele>596.64</ele>
        <time>2017-03-09T12:49:47Z</time>
      </trkpt>
      <trkpt lat="43.2405" lon="5.96903">
        <ele>597.6</ele>
        <time>2017-03-09T12:50:02Z</time>
      </trkpt>
      <trkpt lat="43.24045" lon="5.96917">
        <ele>598.56</ele>
        <time>2017-03-09T12:50:15Z</time>
      </trkpt>
      <trkpt lat="43.24035" lon="5.9693">
        <ele>599.52</ele>
        <time>2017-03-09T12:50:30Z</time>
      </trkpt>
      <trkpt lat="43.24024" lon="5.96935">
        <ele>601.44</ele>
        <time>2017-03-09T12:50:45Z</time>
      </trkpt>
      <trkpt lat="43.24017" lon="5.96947">
        <ele>601.92</ele>
        <time>2017-03-09T12:50:58Z</time>
      </trkpt>
      <trkpt lat="43.24012" lon="5.96961">
        <ele>601.92</ele>
        <time>2017-03-09T12:51:10Z</time>
      </trkpt>
      <trkpt lat="43.24009" lon="5.96975">
        <ele>602.4</ele>
        <time>2017-03-09T12:51:24Z</time>
      </trkpt>
      <trkpt lat="43.24005" lon="5.96983">
        <ele>603.36</ele>
        <time>2017-03-09T12:51:32Z</time>
      </trkpt>
      <trkpt lat="43.24003" lon="5.96986">
        <ele>603.36</ele>
        <time>2017-03-09T12:51:35Z</time>
      </trkpt>
      <trkpt lat="43.23993" lon="5.96996">
        <ele>604.81</ele>
        <time>2017-03-09T12:51:49Z</time>
      </trkpt>
      <trkpt lat="43.23989" lon="5.97001">
        <ele>605.77</ele>
        <time>2017-03-09T12:51:55Z</time>
      </trkpt>
      <trkpt lat="43.23983" lon="5.97011">
        <ele>606.25</ele>
        <time>2017-03-09T12:52:05Z</time>
      </trkpt>
      <trkpt lat="43.23981" lon="5.97024">
        <ele>606.25</ele>
        <time>2017-03-09T12:52:14Z</time>
      </trkpt>
      <trkpt lat="43.23981" lon="5.97028">
        <ele>605.77</ele>
        <time>2017-03-09T12:52:17Z</time>
      </trkpt>
      <trkpt lat="43.23981" lon="5.97031">
        <ele>606.25</ele>
        <time>2017-03-09T12:52:19Z</time>
      </trkpt>
      <trkpt lat="43.23982" lon="5.97035">
        <ele>605.29</ele>
        <time>2017-03-09T12:52:33Z</time>
      </trkpt>
      <trkpt lat="43.23982" lon="5.97036">
        <ele>605.29</ele>
        <time>2017-03-09T12:52:59Z</time>
      </trkpt>
      <trkpt lat="43.23982" lon="5.97035">
        <ele>605.29</ele>
        <time>2017-03-09T12:53:27Z</time>
      </trkpt>
      <trkpt lat="43.23983" lon="5.97035">
        <ele>605.77</ele>
        <time>2017-03-09T12:54:00Z</time>
      </trkpt>
      <trkpt lat="43.23983" lon="5.97035">
        <ele>605.77</ele>
        <time>2017-03-09T12:54:38Z</time>
      </trkpt>
      <trkpt lat="43.23983" lon="5.97035">
        <ele>605.77</ele>
        <time>2017-03-09T12:55:20Z</time>
      </trkpt>
      <trkpt lat="43.23983" lon="5.97035">
        <ele>605.29</ele>
        <time>2017-03-09T12:55:57Z</time>
      </trkpt>
      <trkpt lat="43.23983" lon="5.97036">
        <ele>605.77</ele>
        <time>2017-03-09T12:56:34Z</time>
      </trkpt>
      <trkpt lat="43.23983" lon="5.97035">
        <ele>605.29</ele>
        <time>2017-03-09T12:57:12Z</time>
      </trkpt>
      <trkpt lat="43.23982" lon="5.97034">
        <ele>606.73</ele>
        <time>2017-03-09T12:57:36Z</time>
      </trkpt>
      <trkpt lat="43.23978" lon="5.97023">
        <ele>606.25</ele>
        <time>2017-03-09T12:57:49Z</time>
      </trkpt>
      <trkpt lat="43.23974" lon="5.97017">
        <ele>606.25</ele>
        <time>2017-03-09T12:58:02Z</time>
      </trkpt>
      <trkpt lat="43.2397" lon="5.97015">
        <ele>605.77</ele>
        <time>2017-03-09T12:58:15Z</time>
      </trkpt>
      <trkpt lat="43.23972" lon="5.97014">
        <ele>605.77</ele>
        <time>2017-03-09T12:58:33Z</time>
      </trkpt>
      <trkpt lat="43.23979" lon="5.97009">
        <ele>605.77</ele>
        <time>2017-03-09T12:58:46Z</time>
      </trkpt>
      <trkpt lat="43.23984" lon="5.97009">
        <ele>606.25</ele>
        <time>2017-03-09T12:59:00Z</time>
      </trkpt>
      <trkpt lat="43.23987" lon="5.97005">
        <ele>605.77</ele>
        <time>2017-03-09T12:59:14Z</time>
      </trkpt>
      <trkpt lat="43.23988" lon="5.97003">
        <ele>605.77</ele>
        <time>2017-03-09T12:59:26Z</time>
      </trkpt>
      <trkpt lat="43.23992" lon="5.97">
        <ele>605.77</ele>
        <time>2017-03-09T12:59:38Z</time>
      </trkpt>
      <trkpt lat="43.23995" lon="5.96996">
        <ele>605.29</ele>
        <time>2017-03-09T12:59:51Z</time>
      </trkpt>
      <trkpt lat="43.23999" lon="5.96992">
        <ele>604.33</ele>
        <time>2017-03-09T13:00:07Z</time>
      </trkpt>
      <trkpt lat="43.24005" lon="5.96984">
        <ele>603.85</ele>
        <time>2017-03-09T13:00:21Z</time>
      </trkpt>
      <trkpt lat="43.24004" lon="5.96983">
        <ele>603.85</ele>
        <time>2017-03-09T13:00:39Z</time>
      </trkpt>
      <trkpt lat="43.24007" lon="5.96981">
        <ele>603.85</ele>
        <time>2017-03-09T13:00:54Z</time>
      </trkpt>
      <trkpt lat="43.24009" lon="5.96976">
        <ele>602.88</ele>
        <time>2017-03-09T13:01:09Z</time>
      </trkpt>
      <trkpt lat="43.24014" lon="5.96968">
        <ele>602.88</ele>
        <time>2017-03-09T13:01:16Z</time>
      </trkpt>
      <trkpt lat="43.24018" lon="5.96952">
        <ele>602.4</ele>
        <time>2017-03-09T13:01:29Z</time>
      </trkpt>
      <trkpt lat="43.24023" lon="5.9694">
        <ele>602.4</ele>
        <time>2017-03-09T13:01:41Z</time>
      </trkpt>
      <trkpt lat="43.24032" lon="5.96931">
        <ele>600.96</ele>
        <time>2017-03-09T13:01:55Z</time>
      </trkpt>
      <trkpt lat="43.24039" lon="5.96924">
        <ele>600.48</ele>
        <time>2017-03-09T13:02:05Z</time>
      </trkpt>
      <trkpt lat="43.24048" lon="5.96911">
        <ele>599.04</ele>
        <time>2017-03-09T13:02:19Z</time>
      </trkpt>
      <trkpt lat="43.24055" lon="5.96898">
        <ele>598.08</ele>
        <time>2017-03-09T13:02:31Z</time>
      </trkpt>
      <trkpt lat="43.2406" lon="5.96886">
        <ele>596.64</ele>
        <time>2017-03-09T13:02:43Z</time>
      </trkpt>
      <trkpt lat="43.24068" lon="5.96868">
        <ele>595.19</ele>
        <time>2017-03-09T13:02:57Z</time>
      </trkpt>
      <trkpt lat="43.24068" lon="5.96856">
        <ele>594.23</ele>
        <time>2017-03-09T13:03:06Z</time>
      </trkpt>
      <trkpt lat="43.24068" lon="5.96851">
        <ele>594.23</ele>
        <time>2017-03-09T13:03:10Z</time>
      </trkpt>
      <trkpt lat="43.24068" lon="5.96848">
        <ele>593.75</ele>
        <time>2017-03-09T13:03:12Z</time>
      </trkpt>
      <trkpt lat="43.24064" lon="5.96835">
        <ele>592.79</ele>
        <time>2017-03-09T13:03:26Z</time>
      </trkpt>
      <trkpt lat="43.24063" lon="5.96834">
        <ele>592.79</ele>
        <time>2017-03-09T13:03:27Z</time>
      </trkpt>
      <trkpt lat="43.24062" lon="5.96827">
        <ele>592.31</ele>
        <time>2017-03-09T13:03:38Z</time>
      </trkpt>
      <trkpt lat="43.24062" lon="5.96822">
        <ele>592.31</ele>
        <time>2017-03-09T13:03:41Z</time>
      </trkpt>
      <trkpt lat="43.24059" lon="5.96805">
        <ele>590.39</ele>
        <time>2017-03-09T13:03:52Z</time>
      </trkpt>
      <trkpt lat="43.2406" lon="5.96789">
        <ele>588.95</ele>
        <time>2017-03-09T13:04:01Z</time>
      </trkpt>
      <trkpt lat="43.24058" lon="5.96773">
        <ele>587.98</ele>
        <time>2017-03-09T13:04:14Z</time>
      </trkpt>
      <trkpt lat="43.2406" lon="5.96765">
        <ele>587.5</ele>
        <time>2017-03-09T13:04:21Z</time>
      </trkpt>
      <trkpt lat="43.2406" lon="5.96745">
        <ele>585.1</ele>
        <time>2017-03-09T13:04:34Z</time>
      </trkpt>
      <trkpt lat="43.24061" lon="5.96737">
        <ele>584.62</ele>
        <time>2017-03-09T13:04:39Z</time>
      </trkpt>
      <trkpt lat="43.24062" lon="5.96733">
        <ele>584.62</ele>
        <time>2017-03-09T13:04:41Z</time>
      </trkpt>
      <trkpt lat="43.24061" lon="5.96729">
        <ele>584.62</ele>
        <time>2017-03-09T13:04:44Z</time>
      </trkpt>
      <trkpt lat="43.24063" lon="5.96723">
        <ele>584.14</ele>
        <time>2017-03-09T13:04:48Z</time>
      </trkpt>
      <trkpt lat="43.24064" lon="5.96714">
        <ele>584.14</ele>
        <time>2017-03-09T13:05:02Z</time>
      </trkpt>
      <trkpt lat="43.24064" lon="5.96707">
        <ele>582.7</ele>
        <time>2017-03-09T13:05:14Z</time>
      </trkpt>
      <trkpt lat="43.24065" lon="5.96702">
        <ele>582.22</ele>
        <time>2017-03-09T13:05:30Z</time>
      </trkpt>
      <trkpt lat="43.24064" lon="5.96701">
        <ele>581.25</ele>
        <time>2017-03-09T13:05:51Z</time>
      </trkpt>
      <trkpt lat="43.24066" lon="5.96699">
        <ele>581.73</ele>
        <time>2017-03-09T13:06:03Z</time>
      </trkpt>
      <trkpt lat="43.24069" lon="5.96687">
        <ele>581.73</ele>
        <time>2017-03-09T13:06:16Z</time>
      </trkpt>
      <trkpt lat="43.24076" lon="5.96678">
        <ele>582.7</ele>
        <time>2017-03-09T13:06:28Z</time>
      </trkpt>
      <trkpt lat="43.24083" lon="5.96673">
        <ele>582.22</ele>
        <time>2017-03-09T13:06:40Z</time>
      </trkpt>
      <trkpt lat="43.24086" lon="5.96665">
        <ele>583.66</ele>
        <time>2017-03-09T13:06:54Z</time>
      </trkpt>
      <trkpt lat="43.24087" lon="5.96655">
        <ele>584.62</ele>
        <time>2017-03-09T13:07:06Z</time>
      </trkpt>
      <trkpt lat="43.24089" lon="5.96652">
        <ele>584.14</ele>
        <time>2017-03-09T13:07:26Z</time>
      </trkpt>
      <trkpt lat="43.24094" lon="5.96638">
        <ele>584.62</ele>
        <time>2017-03-09T13:07:39Z</time>
      </trkpt>
      <trkpt lat="43.24101" lon="5.96621">
        <ele>585.58</ele>
        <time>2017-03-09T13:07:53Z</time>
      </trkpt>
      <trkpt lat="43.24106" lon="5.96613">
        <ele>585.1</ele>
        <time>2017-03-09T13:08:02Z</time>
      </trkpt>
      <trkpt lat="43.24109" lon="5.96604">
        <ele>585.1</ele>
        <time>2017-03-09T13:08:09Z</time>
      </trkpt>
      <trkpt lat="43.24113" lon="5.96591">
        <ele>585.1</ele>
        <time>2017-03-09T13:08:19Z</time>
      </trkpt>
      <trkpt lat="43.24115" lon="5.96582">
        <ele>584.62</ele>
        <time>2017-03-09T13:08:25Z</time>
      </trkpt>
      <trkpt lat="43.24116" lon="5.96575">
        <ele>584.62</ele>
        <time>2017-03-09T13:08:30Z</time>
      </trkpt>
      <trkpt lat="43.24117" lon="5.96571">
        <ele>584.62</ele>
        <time>2017-03-09T13:08:33Z</time>
      </trkpt>
      <trkpt lat="43.2412" lon="5.96562">
        <ele>585.1</ele>
        <time>2017-03-09T13:08:38Z</time>
      </trkpt>
      <trkpt lat="43.24123" lon="5.96545">
        <ele>584.62</ele>
        <time>2017-03-09T13:08:51Z</time>
      </trkpt>
      <trkpt lat="43.24125" lon="5.9654">
        <ele>585.1</ele>
        <time>2017-03-09T13:08:54Z</time>
      </trkpt>
      <trkpt lat="43.24128" lon="5.96522">
        <ele>584.62</ele>
        <time>2017-03-09T13:09:07Z</time>
      </trkpt>
      <trkpt lat="43.24134" lon="5.96504">
        <ele>583.66</ele>
        <time>2017-03-09T13:09:21Z</time>
      </trkpt>
      <trkpt lat="43.24136" lon="5.96492">
        <ele>583.18</ele>
        <time>2017-03-09T13:09:33Z</time>
      </trkpt>
      <trkpt lat="43.24139" lon="5.9648">
        <ele>582.22</ele>
        <time>2017-03-09T13:09:46Z</time>
      </trkpt>
      <trkpt lat="43.24142" lon="5.9647">
        <ele>582.22</ele>
        <time>2017-03-09T13:09:57Z</time>
      </trkpt>
      <trkpt lat="43.24145" lon="5.96461">
        <ele>582.22</ele>
        <time>2017-03-09T13:10:05Z</time>
      </trkpt>
      <trkpt lat="43.24149" lon="5.96441">
        <ele>582.22</ele>
        <time>2017-03-09T13:10:19Z</time>
      </trkpt>
      <trkpt lat="43.24153" lon="5.96424">
        <ele>582.22</ele>
        <time>2017-03-09T13:10:32Z</time>
      </trkpt>
      <trkpt lat="43.24157" lon="5.96415">
        <ele>581.25</ele>
        <time>2017-03-09T13:10:41Z</time>
      </trkpt>
      <trkpt lat="43.24159" lon="5.96393">
        <ele>580.77</ele>
        <time>2017-03-09T13:10:56Z</time>
      </trkpt>
      <trkpt lat="43.24159" lon="5.96392">
        <ele>580.29</ele>
        <time>2017-03-09T13:10:57Z</time>
      </trkpt>
      <trkpt lat="43.24158" lon="5.96374">
        <ele>579.81</ele>
        <time>2017-03-09T13:11:11Z</time>
      </trkpt>
      <trkpt lat="43.24157" lon="5.9636">
        <ele>579.81</ele>
        <time>2017-03-09T13:11:20Z</time>
      </trkpt>
      <trkpt lat="43.24157" lon="5.96341">
        <ele>579.81</ele>
        <time>2017-03-09T13:11:33Z</time>
      </trkpt>
      <trkpt lat="43.24157" lon="5.96332">
        <ele>580.29</ele>
        <time>2017-03-09T13:11:41Z</time>
      </trkpt>
      <trkpt lat="43.24155" lon="5.96329">
        <ele>580.29</ele>
        <time>2017-03-09T13:11:44Z</time>
      </trkpt>
      <trkpt lat="43.24154" lon="5.96321">
        <ele>580.77</ele>
        <time>2017-03-09T13:11:53Z</time>
      </trkpt>
      <trkpt lat="43.24155" lon="5.96307">
        <ele>580.29</ele>
        <time>2017-03-09T13:12:03Z</time>
      </trkpt>
      <trkpt lat="43.24156" lon="5.96289">
        <ele>579.33</ele>
        <time>2017-03-09T13:12:16Z</time>
      </trkpt>
      <trkpt lat="43.24155" lon="5.96285">
        <ele>578.37</ele>
        <time>2017-03-09T13:12:22Z</time>
      </trkpt>
      <trkpt lat="43.24155" lon="5.96272">
        <ele>578.37</ele>
        <time>2017-03-09T13:12:30Z</time>
      </trkpt>
      <trkpt lat="43.2416" lon="5.96252">
        <ele>576.93</ele>
        <time>2017-03-09T13:12:44Z</time>
      </trkpt>
      <trkpt lat="43.24161" lon="5.96234">
        <ele>577.41</ele>
        <time>2017-03-09T13:12:55Z</time>
      </trkpt>
      <trkpt lat="43.24174" lon="5.96221">
        <ele>576.93</ele>
        <time>2017-03-09T13:13:11Z</time>
      </trkpt>
      <trkpt lat="43.24185" lon="5.96215">
        <ele>578.37</ele>
        <time>2017-03-09T13:13:25Z</time>
      </trkpt>
      <trkpt lat="43.24191" lon="5.96211">
        <ele>579.81</ele>
        <time>2017-03-09T13:13:37Z</time>
      </trkpt>
      <trkpt lat="43.24193" lon="5.96208">
        <ele>579.81</ele>
        <time>2017-03-09T13:13:42Z</time>
      </trkpt>
      <trkpt lat="43.24198" lon="5.96204">
        <ele>580.77</ele>
        <time>2017-03-09T13:13:55Z</time>
      </trkpt>
      <trkpt lat="43.24205" lon="5.962">
        <ele>581.73</ele>
        <time>2017-03-09T13:14:06Z</time>
      </trkpt>
      <trkpt lat="43.24205" lon="5.96202">
        <ele>581.25</ele>
        <time>2017-03-09T13:14:20Z</time>
      </trkpt>
      <trkpt lat="43.24203" lon="5.96198">
        <ele>580.77</ele>
        <time>2017-03-09T13:14:38Z</time>
      </trkpt>
      <trkpt lat="43.242" lon="5.96192">
        <ele>580.77</ele>
        <time>2017-03-09T13:14:54Z</time>
      </trkpt>
      <trkpt lat="43.24201" lon="5.96192">
        <ele>580.77</ele>
        <time>2017-03-09T13:15:09Z</time>
      </trkpt>
      <trkpt lat="43.24204" lon="5.96194">
        <ele>581.25</ele>
        <time>2017-03-09T13:15:26Z</time>
      </trkpt>
      <trkpt lat="43.242" lon="5.96192">
        <ele>581.25</ele>
        <time>2017-03-09T13:15:43Z</time>
      </trkpt>
      <trkpt lat="43.24199" lon="5.96193">
        <ele>581.25</ele>
        <time>2017-03-09T13:15:59Z</time>
      </trkpt>
      <trkpt lat="43.24199" lon="5.96194">
        <ele>580.77</ele>
        <time>2017-03-09T13:16:18Z</time>
      </trkpt>
      <trkpt lat="43.24199" lon="5.96193">
        <ele>581.25</ele>
        <time>2017-03-09T13:16:47Z</time>
      </trkpt>
      <trkpt lat="43.24199" lon="5.96193">
        <ele>580.77</ele>
        <time>2017-03-09T13:17:15Z</time>
      </trkpt>
      <trkpt lat="43.24201" lon="5.96191">
        <ele>581.73</ele>
        <time>2017-03-09T13:17:29Z</time>
      </trkpt>
      <trkpt lat="43.24199" lon="5.96183">
        <ele>582.22</ele>
        <time>2017-03-09T13:17:42Z</time>
      </trkpt>
      <trkpt lat="43.242" lon="5.96179">
        <ele>583.18</ele>
        <time>2017-03-09T13:17:56Z</time>
      </trkpt>
      <trkpt lat="43.24198" lon="5.96176">
        <ele>583.18</ele>
        <time>2017-03-09T13:18:08Z</time>
      </trkpt>
      <trkpt lat="43.24198" lon="5.96176">
        <ele>584.14</ele>
        <time>2017-03-09T13:18:10Z</time>
      </trkpt>
      <trkpt lat="43.24198" lon="5.96175">
        <ele>583.66</ele>
        <time>2017-03-09T13:18:11Z</time>
      </trkpt>
      <trkpt lat="43.242" lon="5.96174">
        <ele>582.22</ele>
        <time>2017-03-09T13:18:26Z</time>
      </trkpt>
      <trkpt lat="43.24202" lon="5.9618">
        <ele>583.18</ele>
        <time>2017-03-09T13:18:41Z</time>
      </trkpt>
      <trkpt lat="43.24203" lon="5.96183">
        <ele>583.66</ele>
        <time>2017-03-09T13:18:56Z</time>
      </trkpt>
      <trkpt lat="43.24203" lon="5.96183">
        <ele>582.7</ele>
        <time>2017-03-09T13:18:58Z</time>
      </trkpt>
      <trkpt lat="43.24204" lon="5.96182">
        <ele>581.73</ele>
        <time>2017-03-09T13:19:18Z</time>
      </trkpt>
      <trkpt lat="43.24209" lon="5.96181">
        <ele>582.7</ele>
        <time>2017-03-09T13:19:31Z</time>
      </trkpt>
      <trkpt lat="43.24208" lon="5.96181">
        <ele>581.25</ele>
        <time>2017-03-09T13:19:36Z</time>
      </trkpt>
      <trkpt lat="43.24206" lon="5.96179">
        <ele>581.73</ele>
        <time>2017-03-09T13:19:39Z</time>
      </trkpt>
      <trkpt lat="43.24195" lon="5.96171">
        <ele>581.25</ele>
        <time>2017-03-09T13:19:53Z</time>
      </trkpt>
      <trkpt lat="43.24192" lon="5.96175">
        <ele>580.29</ele>
        <time>2017-03-09T13:20:06Z</time>
      </trkpt>
      <trkpt lat="43.24191" lon="5.96176">
        <ele>580.29</ele>
        <time>2017-03-09T13:20:19Z</time>
      </trkpt>
      <trkpt lat="43.24187" lon="5.96172">
        <ele>580.77</ele>
        <time>2017-03-09T13:20:32Z</time>
      </trkpt>
      <trkpt lat="43.24182" lon="5.96154">
        <ele>579.81</ele>
        <time>2017-03-09T13:20:47Z</time>
      </trkpt>
      <trkpt lat="43.24181" lon="5.96142">
        <ele>578.85</ele>
        <time>2017-03-09T13:21:01Z</time>
      </trkpt>
      <trkpt lat="43.24187" lon="5.96134">
        <ele>577.89</ele>
        <time>2017-03-09T13:21:16Z</time>
      </trkpt>
      <trkpt lat="43.24197" lon="5.96123">
        <ele>576.93</ele>
        <time>2017-03-09T13:21:30Z</time>
      </trkpt>
      <trkpt lat="43.24205" lon="5.96113">
        <ele>576.45</ele>
        <time>2017-03-09T13:21:43Z</time>
      </trkpt>
      <trkpt lat="43.24208" lon="5.96108">
        <ele>576.45</ele>
        <time>2017-03-09T13:21:48Z</time>
      </trkpt>
      <trkpt lat="43.24216" lon="5.96093">
        <ele>576.45</ele>
        <time>2017-03-09T13:22:01Z</time>
      </trkpt>
      <trkpt lat="43.24221" lon="5.96083">
        <ele>577.41</ele>
        <time>2017-03-09T13:22:16Z</time>
      </trkpt>
      <trkpt lat="43.24228" lon="5.96073">
        <ele>577.89</ele>
        <time>2017-03-09T13:22:32Z</time>
      </trkpt>
      <trkpt lat="43.24237" lon="5.96065">
        <ele>577.89</ele>
        <time>2017-03-09T13:22:45Z</time>
      </trkpt>
      <trkpt lat="43.24244" lon="5.96057">
        <ele>575.97</ele>
        <time>2017-03-09T13:23:00Z</time>
      </trkpt>
      <trkpt lat="43.2425" lon="5.96048">
        <ele>574.04</ele>
        <time>2017-03-09T13:23:13Z</time>
      </trkpt>
      <trkpt lat="43.24254" lon="5.96039">
        <ele>573.08</ele>
        <time>2017-03-09T13:23:25Z</time>
      </trkpt>
      <trkpt lat="43.24257" lon="5.96031">
        <ele>572.12</ele>
        <time>2017-03-09T13:23:36Z</time>
      </trkpt>
      <trkpt lat="43.2426" lon="5.96021">
        <ele>571.16</ele>
        <time>2017-03-09T13:23:45Z</time>
      </trkpt>
      <trkpt lat="43.24263" lon="5.96006">
        <ele>570.68</ele>
        <time>2017-03-09T13:23:58Z</time>
      </trkpt>
      <trkpt lat="43.24269" lon="5.95992">
        <ele>569.72</ele>
        <time>2017-03-09T13:24:12Z</time>
      </trkpt>
      <trkpt lat="43.2427" lon="5.95989">
        <ele>569.24</ele>
        <time>2017-03-09T13:24:14Z</time>
      </trkpt>
      <trkpt lat="43.24275" lon="5.95973">
        <ele>568.76</ele>
        <time>2017-03-09T13:24:27Z</time>
      </trkpt>
      <trkpt lat="43.24277" lon="5.95956">
        <ele>568.28</ele>
        <time>2017-03-09T13:24:40Z</time>
      </trkpt>
      <trkpt lat="43.2428" lon="5.95941">
        <ele>567.32</ele>
        <time>2017-03-09T13:24:52Z</time>
      </trkpt>
      <trkpt lat="43.24281" lon="5.95939">
        <ele>567.32</ele>
        <time>2017-03-09T13:24:53Z</time>
      </trkpt>
      <trkpt lat="43.24281" lon="5.95928">
        <ele>568.28</ele>
        <time>2017-03-09T13:25:01Z</time>
      </trkpt>
      <trkpt lat="43.24282" lon="5.95924">
        <ele>568.76</ele>
        <time>2017-03-09T13:25:04Z</time>
      </trkpt>
      <trkpt lat="43.24288" lon="5.9591">
        <ele>568.28</ele>
        <time>2017-03-09T13:25:13Z</time>
      </trkpt>
      <trkpt lat="43.24291" lon="5.95905">
        <ele>568.76</ele>
        <time>2017-03-09T13:25:17Z</time>
      </trkpt>
      <trkpt lat="43.24292" lon="5.95901">
        <ele>567.8</ele>
        <time>2017-03-09T13:25:20Z</time>
      </trkpt>
      <trkpt lat="43.24296" lon="5.95888">
        <ele>568.76</ele>
        <time>2017-03-09T13:25:34Z</time>
      </trkpt>
      <trkpt lat="43.24299" lon="5.95874">
        <ele>568.28</ele>
        <time>2017-03-09T13:25:48Z</time>
      </trkpt>
      <trkpt lat="43.24301" lon="5.9586">
        <ele>567.8</ele>
        <time>2017-03-09T13:26:00Z</time>
      </trkpt>
      <trkpt lat="43.24305" lon="5.95847">
        <ele>566.83</ele>
        <time>2017-03-09T13:26:11Z</time>
      </trkpt>
      <trkpt lat="43.24311" lon="5.95835">
        <ele>564.91</ele>
        <time>2017-03-09T13:26:22Z</time>
      </trkpt>
      <trkpt lat="43.24317" lon="5.95823">
        <ele>563.47</ele>
        <time>2017-03-09T13:26:36Z</time>
      </trkpt>
      <trkpt lat="43.24318" lon="5.9582">
        <ele>562.51</ele>
        <time>2017-03-09T13:26:38Z</time>
      </trkpt>
      <trkpt lat="43.24319" lon="5.95803">
        <ele>562.51</ele>
        <time>2017-03-09T13:26:51Z</time>
      </trkpt>
      <trkpt lat="43.24319" lon="5.95791">
        <ele>561.07</ele>
        <time>2017-03-09T13:27:02Z</time>
      </trkpt>
      <trkpt lat="43.24318" lon="5.95774">
        <ele>559.14</ele>
        <time>2017-03-09T13:27:15Z</time>
      </trkpt>
      <trkpt lat="43.24322" lon="5.95758">
        <ele>556.74</ele>
        <time>2017-03-09T13:27:30Z</time>
      </trkpt>
      <trkpt lat="43.24323" lon="5.95743">
        <ele>554.34</ele>
        <time>2017-03-09T13:27:44Z</time>
      </trkpt>
      <trkpt lat="43.24327" lon="5.95727">
        <ele>552.41</ele>
        <time>2017-03-09T13:27:57Z</time>
      </trkpt>
      <trkpt lat="43.24331" lon="5.95713">
        <ele>549.53</ele>
        <time>2017-03-09T13:28:10Z</time>
      </trkpt>
      <trkpt lat="43.24344" lon="5.95705">
        <ele>547.13</ele>
        <time>2017-03-09T13:28:24Z</time>
      </trkpt>
      <trkpt lat="43.24353" lon="5.95702">
        <ele>547.13</ele>
        <time>2017-03-09T13:28:36Z</time>
      </trkpt>
      <trkpt lat="43.24353" lon="5.95707">
        <ele>546.65</ele>
        <time>2017-03-09T13:28:49Z</time>
      </trkpt>
      <trkpt lat="43.24354" lon="5.95706">
        <ele>546.65</ele>
        <time>2017-03-09T13:29:07Z</time>
      </trkpt>
      <trkpt lat="43.24355" lon="5.957">
        <ele>547.13</ele>
        <time>2017-03-09T13:29:20Z</time>
      </trkpt>
      <trkpt lat="43.24355" lon="5.95698">
        <ele>547.13</ele>
        <time>2017-03-09T13:29:34Z</time>
      </trkpt>
      <trkpt lat="43.24355" lon="5.95698">
        <ele>547.13</ele>
        <time>2017-03-09T13:29:57Z</time>
      </trkpt>
      <trkpt lat="43.24355" lon="5.95698">
        <ele>547.13</ele>
        <time>2017-03-09T13:30:17Z</time>
      </trkpt>
      <trkpt lat="43.24355" lon="5.95699">
        <ele>547.13</ele>
        <time>2017-03-09T13:30:37Z</time>
      </trkpt>
      <trkpt lat="43.24355" lon="5.95699">
        <ele>547.13</ele>
        <time>2017-03-09T13:30:58Z</time>
      </trkpt>
      <trkpt lat="43.24355" lon="5.95699">
        <ele>547.61</ele>
        <time>2017-03-09T13:31:18Z</time>
      </trkpt>
      <trkpt lat="43.24355" lon="5.95699">
        <ele>547.13</ele>
        <time>2017-03-09T13:31:38Z</time>
      </trkpt>
      <trkpt lat="43.24357" lon="5.95693">
        <ele>548.09</ele>
        <time>2017-03-09T13:31:50Z</time>
      </trkpt>
      <trkpt lat="43.24359" lon="5.95685">
        <ele>549.05</ele>
        <time>2017-03-09T13:32:02Z</time>
      </trkpt>
      <trkpt lat="43.24359" lon="5.95671">
        <ele>548.09</ele>
        <time>2017-03-09T13:32:15Z</time>
      </trkpt>
      <trkpt lat="43.24359" lon="5.95657">
        <ele>548.57</ele>
        <time>2017-03-09T13:32:25Z</time>
      </trkpt>
      <trkpt lat="43.24363" lon="5.95641">
        <ele>548.57</ele>
        <time>2017-03-09T13:32:37Z</time>
      </trkpt>
      <trkpt lat="43.24365" lon="5.9563">
        <ele>548.09</ele>
        <time>2017-03-09T13:32:54Z</time>
      </trkpt>
      <trkpt lat="43.24371" lon="5.95611">
        <ele>548.09</ele>
        <time>2017-03-09T13:33:10Z</time>
      </trkpt>
      <trkpt lat="43.24377" lon="5.95589">
        <ele>549.05</ele>
        <time>2017-03-09T13:33:27Z</time>
      </trkpt>
      <trkpt lat="43.24387" lon="5.95581">
        <ele>549.05</ele>
        <time>2017-03-09T13:33:40Z</time>
      </trkpt>
      <trkpt lat="43.24394" lon="5.95568">
        <ele>550.01</ele>
        <time>2017-03-09T13:33:54Z</time>
      </trkpt>
      <trkpt lat="43.24399" lon="5.95554">
        <ele>551.45</ele>
        <time>2017-03-09T13:34:07Z</time>
      </trkpt>
      <trkpt lat="43.24398" lon="5.95542">
        <ele>552.41</ele>
        <time>2017-03-09T13:34:18Z</time>
      </trkpt>
      <trkpt lat="43.24401" lon="5.95526">
        <ele>553.38</ele>
        <time>2017-03-09T13:34:32Z</time>
      </trkpt>
      <trkpt lat="43.24401" lon="5.9551">
        <ele>553.86</ele>
        <time>2017-03-09T13:34:45Z</time>
      </trkpt>
      <trkpt lat="43.24402" lon="5.95504">
        <ele>553.86</ele>
        <time>2017-03-09T13:34:52Z</time>
      </trkpt>
      <trkpt lat="43.24405" lon="5.95486">
        <ele>553.38</ele>
        <time>2017-03-09T13:35:06Z</time>
      </trkpt>
      <trkpt lat="43.24404" lon="5.95471">
        <ele>553.86</ele>
        <time>2017-03-09T13:35:19Z</time>
      </trkpt>
      <trkpt lat="43.24403" lon="5.95452">
        <ele>553.86</ele>
        <time>2017-03-09T13:35:30Z</time>
      </trkpt>
      <trkpt lat="43.24403" lon="5.95433">
        <ele>554.82</ele>
        <time>2017-03-09T13:35:44Z</time>
      </trkpt>
      <trkpt lat="43.24407" lon="5.95418">
        <ele>554.82</ele>
        <time>2017-03-09T13:35:55Z</time>
      </trkpt>
      <trkpt lat="43.24407" lon="5.95404">
        <ele>554.82</ele>
        <time>2017-03-09T13:36:08Z</time>
      </trkpt>
      <trkpt lat="43.2441" lon="5.95393">
        <ele>556.74</ele>
        <time>2017-03-09T13:36:19Z</time>
      </trkpt>
      <trkpt lat="43.24413" lon="5.95383">
        <ele>557.7</ele>
        <time>2017-03-09T13:36:28Z</time>
      </trkpt>
      <trkpt lat="43.24418" lon="5.95368">
        <ele>557.22</ele>
        <time>2017-03-09T13:36:41Z</time>
      </trkpt>
      <trkpt lat="43.24419" lon="5.95358">
        <ele>557.7</ele>
        <time>2017-03-09T13:36:55Z</time>
      </trkpt>
      <trkpt lat="43.2442" lon="5.95348">
        <ele>558.66</ele>
        <time>2017-03-09T13:37:05Z</time>
      </trkpt>
      <trkpt lat="43.24423" lon="5.95329">
        <ele>560.11</ele>
        <time>2017-03-09T13:37:18Z</time>
      </trkpt>
      <trkpt lat="43.24424" lon="5.95313">
        <ele>560.59</ele>
        <time>2017-03-09T13:37:31Z</time>
      </trkpt>
      <trkpt lat="43.24429" lon="5.95298">
        <ele>561.07</ele>
        <time>2017-03-09T13:37:44Z</time>
      </trkpt>
      <trkpt lat="43.24429" lon="5.95291">
        <ele>561.07</ele>
        <time>2017-03-09T13:37:50Z</time>
      </trkpt>
      <trkpt lat="43.24433" lon="5.95275">
        <ele>561.07</ele>
        <time>2017-03-09T13:38:02Z</time>
      </trkpt>
      <trkpt lat="43.24437" lon="5.95262">
        <ele>561.07</ele>
        <time>2017-03-09T13:38:13Z</time>
      </trkpt>
      <trkpt lat="43.24439" lon="5.95247">
        <ele>561.07</ele>
        <time>2017-03-09T13:38:26Z</time>
      </trkpt>
      <trkpt lat="43.24439" lon="5.95237">
        <ele>562.03</ele>
        <time>2017-03-09T13:38:40Z</time>
      </trkpt>
      <trkpt lat="43.24439" lon="5.95225">
        <ele>562.51</ele>
        <time>2017-03-09T13:38:53Z</time>
      </trkpt>
      <trkpt lat="43.24433" lon="5.95215">
        <ele>564.43</ele>
        <time>2017-03-09T13:39:06Z</time>
      </trkpt>
      <trkpt lat="43.24428" lon="5.95203">
        <ele>564.43</ele>
        <time>2017-03-09T13:39:18Z</time>
      </trkpt>
      <trkpt lat="43.24421" lon="5.9519">
        <ele>565.87</ele>
        <time>2017-03-09T13:39:30Z</time>
      </trkpt>
      <trkpt lat="43.24416" lon="5.95175">
        <ele>564.91</ele>
        <time>2017-03-09T13:39:42Z</time>
      </trkpt>
      <trkpt lat="43.24416" lon="5.95174">
        <ele>565.39</ele>
        <time>2017-03-09T13:39:43Z</time>
      </trkpt>
      <trkpt lat="43.2441" lon="5.95163">
        <ele>564.91</ele>
        <time>2017-03-09T13:39:55Z</time>
      </trkpt>
      <trkpt lat="43.24408" lon="5.9516">
        <ele>565.39</ele>
        <time>2017-03-09T13:39:59Z</time>
      </trkpt>
      <trkpt lat="43.244" lon="5.95148">
        <ele>565.87</ele>
        <time>2017-03-09T13:40:12Z</time>
      </trkpt>
      <trkpt lat="43.24394" lon="5.95138">
        <ele>567.32</ele>
        <time>2017-03-09T13:40:24Z</time>
      </trkpt>
      <trkpt lat="43.2439" lon="5.95133">
        <ele>566.83</ele>
        <time>2017-03-09T13:40:31Z</time>
      </trkpt>
      <trkpt lat="43.24382" lon="5.95124">
        <ele>567.32</ele>
        <time>2017-03-09T13:40:44Z</time>
      </trkpt>
      <trkpt lat="43.24378" lon="5.95121">
        <ele>568.28</ele>
        <time>2017-03-09T13:40:58Z</time>
      </trkpt>
      <trkpt lat="43.24376" lon="5.95119">
        <ele>567.8</ele>
        <time>2017-03-09T13:41:01Z</time>
      </trkpt>
      <trkpt lat="43.24366" lon="5.95108">
        <ele>567.32</ele>
        <time>2017-03-09T13:41:13Z</time>
      </trkpt>
      <trkpt lat="43.24361" lon="5.95099">
        <ele>566.35</ele>
        <time>2017-03-09T13:41:19Z</time>
      </trkpt>
      <trkpt lat="43.24356" lon="5.95091">
        <ele>565.87</ele>
        <time>2017-03-09T13:41:26Z</time>
      </trkpt>
      <trkpt lat="43.24347" lon="5.95075">
        <ele>565.87</ele>
        <time>2017-03-09T13:41:40Z</time>
      </trkpt>
      <trkpt lat="43.24347" lon="5.95072">
        <ele>565.87</ele>
        <time>2017-03-09T13:41:43Z</time>
      </trkpt>
      <trkpt lat="43.24343" lon="5.95053">
        <ele>566.83</ele>
        <time>2017-03-09T13:41:55Z</time>
      </trkpt>
      <trkpt lat="43.2434" lon="5.95038">
        <ele>567.8</ele>
        <time>2017-03-09T13:42:07Z</time>
      </trkpt>
      <trkpt lat="43.24342" lon="5.95031">
        <ele>567.8</ele>
        <time>2017-03-09T13:42:12Z</time>
      </trkpt>
      <trkpt lat="43.24342" lon="5.95023">
        <ele>567.32</ele>
        <time>2017-03-09T13:42:20Z</time>
      </trkpt>
      <trkpt lat="43.24341" lon="5.95006">
        <ele>567.32</ele>
        <time>2017-03-09T13:42:34Z</time>
      </trkpt>
      <trkpt lat="43.24342" lon="5.94991">
        <ele>567.8</ele>
        <time>2017-03-09T13:42:46Z</time>
      </trkpt>
      <trkpt lat="43.24344" lon="5.94978">
        <ele>568.28</ele>
        <time>2017-03-09T13:42:58Z</time>
      </trkpt>
      <trkpt lat="43.24343" lon="5.94966">
        <ele>568.76</ele>
        <time>2017-03-09T13:43:09Z</time>
      </trkpt>
      <trkpt lat="43.24343" lon="5.94951">
        <ele>569.72</ele>
        <time>2017-03-09T13:43:21Z</time>
      </trkpt>
      <trkpt lat="43.24343" lon="5.94934">
        <ele>570.2</ele>
        <time>2017-03-09T13:43:34Z</time>
      </trkpt>
      <trkpt lat="43.24346" lon="5.94923">
        <ele>568.76</ele>
        <time>2017-03-09T13:43:45Z</time>
      </trkpt>
      <trkpt lat="43.24344" lon="5.9491">
        <ele>568.28</ele>
        <time>2017-03-09T13:43:58Z</time>
      </trkpt>
      <trkpt lat="43.24345" lon="5.94897">
        <ele>567.8</ele>
        <time>2017-03-09T13:44:10Z</time>
      </trkpt>
      <trkpt lat="43.24345" lon="5.94879">
        <ele>566.83</ele>
        <time>2017-03-09T13:44:24Z</time>
      </trkpt>
      <trkpt lat="43.24345" lon="5.94861">
        <ele>566.35</ele>
        <time>2017-03-09T13:44:36Z</time>
      </trkpt>
      <trkpt lat="43.24346" lon="5.94847">
        <ele>565.87</ele>
        <time>2017-03-09T13:44:47Z</time>
      </trkpt>
      <trkpt lat="43.24351" lon="5.94823">
        <ele>563.95</ele>
        <time>2017-03-09T13:45:01Z</time>
      </trkpt>
      <trkpt lat="43.24356" lon="5.94805">
        <ele>562.99</ele>
        <time>2017-03-09T13:45:15Z</time>
      </trkpt>
      <trkpt lat="43.24358" lon="5.9479">
        <ele>562.03</ele>
        <time>2017-03-09T13:45:27Z</time>
      </trkpt>
      <trkpt lat="43.24359" lon="5.94778">
        <ele>561.55</ele>
        <time>2017-03-09T13:45:38Z</time>
      </trkpt>
      <trkpt lat="43.2436" lon="5.94773">
        <ele>561.07</ele>
        <time>2017-03-09T13:45:42Z</time>
      </trkpt>
      <trkpt lat="43.24361" lon="5.94756">
        <ele>560.59</ele>
        <time>2017-03-09T13:45:56Z</time>
      </trkpt>
      <trkpt lat="43.24364" lon="5.94738">
        <ele>559.62</ele>
        <time>2017-03-09T13:46:09Z</time>
      </trkpt>
      <trkpt lat="43.24366" lon="5.94721">
        <ele>559.14</ele>
        <time>2017-03-09T13:46:23Z</time>
      </trkpt>
      <trkpt lat="43.24366" lon="5.94714">
        <ele>558.66</ele>
        <time>2017-03-09T13:46:35Z</time>
      </trkpt>
      <trkpt lat="43.24366" lon="5.94706">
        <ele>558.18</ele>
        <time>2017-03-09T13:46:48Z</time>
      </trkpt>
      <trkpt lat="43.24367" lon="5.94695">
        <ele>558.18</ele>
        <time>2017-03-09T13:47:00Z</time>
      </trkpt>
      <trkpt lat="43.24367" lon="5.94681">
        <ele>559.14</ele>
        <time>2017-03-09T13:47:12Z</time>
      </trkpt>
      <trkpt lat="43.24365" lon="5.94679">
        <ele>558.18</ele>
        <time>2017-03-09T13:47:25Z</time>
      </trkpt>
      <trkpt lat="43.24363" lon="5.94676">
        <ele>557.7</ele>
        <time>2017-03-09T13:47:50Z</time>
      </trkpt>
      <trkpt lat="43.24363" lon="5.94676">
        <ele>558.18</ele>
        <time>2017-03-09T13:48:12Z</time>
      </trkpt>
      <trkpt lat="43.24361" lon="5.94678">
        <ele>558.18</ele>
        <time>2017-03-09T13:48:42Z</time>
      </trkpt>
      <trkpt lat="43.24362" lon="5.94678">
        <ele>558.66</ele>
        <time>2017-03-09T13:49:17Z</time>
      </trkpt>
      <trkpt lat="43.24361" lon="5.94679">
        <ele>558.66</ele>
        <time>2017-03-09T13:49:44Z</time>
      </trkpt>
      <trkpt lat="43.24361" lon="5.94678">
        <ele>558.66</ele>
        <time>2017-03-09T13:50:08Z</time>
      </trkpt>
      <trkpt lat="43.24361" lon="5.94677">
        <ele>559.14</ele>
        <time>2017-03-09T13:50:37Z</time>
      </trkpt>
      <trkpt lat="43.24362" lon="5.94675">
        <ele>559.14</ele>
        <time>2017-03-09T13:51:04Z</time>
      </trkpt>
      <trkpt lat="43.24363" lon="5.94675">
        <ele>558.66</ele>
        <time>2017-03-09T13:51:31Z</time>
      </trkpt>
      <trkpt lat="43.24364" lon="5.94675">
        <ele>559.14</ele>
        <time>2017-03-09T13:52:01Z</time>
      </trkpt>
      <trkpt lat="43.24364" lon="5.94675">
        <ele>559.14</ele>
        <time>2017-03-09T13:52:29Z</time>
      </trkpt>
      <trkpt lat="43.24364" lon="5.94676">
        <ele>559.14</ele>
        <time>2017-03-09T13:52:56Z</time>
      </trkpt>
      <trkpt lat="43.24365" lon="5.94675">
        <ele>559.62</ele>
        <time>2017-03-09T13:53:20Z</time>
      </trkpt>
      <trkpt lat="43.24364" lon="5.94676">
        <ele>559.62</ele>
        <time>2017-03-09T13:53:48Z</time>
      </trkpt>
      <trkpt lat="43.24364" lon="5.94678">
        <ele>560.11</ele>
        <time>2017-03-09T13:54:17Z</time>
      </trkpt>
      <trkpt lat="43.24364" lon="5.94679">
        <ele>560.11</ele>
        <time>2017-03-09T13:54:48Z</time>
      </trkpt>
      <trkpt lat="43.24363" lon="5.94679">
        <ele>561.07</ele>
        <time>2017-03-09T13:55:19Z</time>
      </trkpt>
      <trkpt lat="43.2436" lon="5.94676">
        <ele>561.55</ele>
        <time>2017-03-09T13:55:33Z</time>
      </trkpt>
      <trkpt lat="43.24353" lon="5.94665">
        <ele>562.51</ele>
        <time>2017-03-09T13:55:44Z</time>
      </trkpt>
      <trkpt lat="43.2435" lon="5.94655">
        <ele>564.43</ele>
        <time>2017-03-09T13:55:55Z</time>
      </trkpt>
      <trkpt lat="43.24351" lon="5.94642">
        <ele>565.87</ele>
        <time>2017-03-09T13:56:10Z</time>
      </trkpt>
      <trkpt lat="43.24353" lon="5.94624">
        <ele>566.83</ele>
        <time>2017-03-09T13:56:21Z</time>
      </trkpt>
      <trkpt lat="43.24353" lon="5.94622">
        <ele>567.32</ele>
        <time>2017-03-09T13:56:23Z</time>
      </trkpt>
      <trkpt lat="43.24354" lon="5.94607">
        <ele>568.76</ele>
        <time>2017-03-09T13:56:37Z</time>
      </trkpt>
      <trkpt lat="43.24354" lon="5.94594">
        <ele>570.2</ele>
        <time>2017-03-09T13:56:50Z</time>
      </trkpt>
      <trkpt lat="43.24357" lon="5.94582">
        <ele>571.16</ele>
        <time>2017-03-09T13:57:02Z</time>
      </trkpt>
      <trkpt lat="43.24357" lon="5.94581">
        <ele>571.16</ele>
        <time>2017-03-09T13:57:03Z</time>
      </trkpt>
      <trkpt lat="43.2436" lon="5.94567">
        <ele>572.6</ele>
        <time>2017-03-09T13:57:17Z</time>
      </trkpt>
      <trkpt lat="43.24361" lon="5.94561">
        <ele>573.08</ele>
        <time>2017-03-09T13:57:22Z</time>
      </trkpt>
      <trkpt lat="43.24362" lon="5.94548">
        <ele>574.53</ele>
        <time>2017-03-09T13:57:34Z</time>
      </trkpt>
      <trkpt lat="43.24362" lon="5.94543">
        <ele>575.01</ele>
        <time>2017-03-09T13:57:39Z</time>
      </trkpt>
      <trkpt lat="43.24365" lon="5.94526">
        <ele>576.45</ele>
        <time>2017-03-09T13:57:54Z</time>
      </trkpt>
      <trkpt lat="43.24366" lon="5.94512">
        <ele>578.37</ele>
        <time>2017-03-09T13:58:07Z</time>
      </trkpt>
      <trkpt lat="43.24366" lon="5.9451">
        <ele>578.37</ele>
        <time>2017-03-09T13:58:09Z</time>
      </trkpt>
      <trkpt lat="43.24366" lon="5.94505">
        <ele>578.85</ele>
        <time>2017-03-09T13:58:13Z</time>
      </trkpt>
      <trkpt lat="43.24369" lon="5.9449">
        <ele>580.29</ele>
        <time>2017-03-09T13:58:26Z</time>
      </trkpt>
      <trkpt lat="43.2437" lon="5.94481">
        <ele>581.73</ele>
        <time>2017-03-09T13:58:37Z</time>
      </trkpt>
      <trkpt lat="43.24372" lon="5.94464">
        <ele>583.18</ele>
        <time>2017-03-09T13:58:51Z</time>
      </trkpt>
      <trkpt lat="43.24372" lon="5.94463">
        <ele>583.18</ele>
        <time>2017-03-09T13:58:52Z</time>
      </trkpt>
      <trkpt lat="43.24375" lon="5.94442">
        <ele>584.62</ele>
        <time>2017-03-09T13:59:08Z</time>
      </trkpt>
      <trkpt lat="43.24377" lon="5.94427">
        <ele>585.58</ele>
        <time>2017-03-09T13:59:21Z</time>
      </trkpt>
      <trkpt lat="43.2438" lon="5.94415">
        <ele>586.54</ele>
        <time>2017-03-09T13:59:33Z</time>
      </trkpt>
      <trkpt lat="43.24381" lon="5.94407">
        <ele>587.02</ele>
        <time>2017-03-09T13:59:39Z</time>
      </trkpt>
      <trkpt lat="43.24382" lon="5.94394">
        <ele>587.98</ele>
        <time>2017-03-09T13:59:50Z</time>
      </trkpt>
      <trkpt lat="43.24381" lon="5.94385">
        <ele>588.46</ele>
        <time>2017-03-09T13:59:57Z</time>
      </trkpt>
      <trkpt lat="43.2438" lon="5.94369">
        <ele>589.43</ele>
        <time>2017-03-09T14:00:09Z</time>
      </trkpt>
      <trkpt lat="43.2438" lon="5.94357">
        <ele>589.91</ele>
        <time>2017-03-09T14:00:21Z</time>
      </trkpt>
      <trkpt lat="43.24379" lon="5.94353">
        <ele>589.91</ele>
        <time>2017-03-09T14:00:34Z</time>
      </trkpt>
      <trkpt lat="43.2438" lon="5.94351">
        <ele>589.91</ele>
        <time>2017-03-09T14:00:49Z</time>
      </trkpt>
      <trkpt lat="43.24379" lon="5.94341">
        <ele>590.39</ele>
        <time>2017-03-09T14:01:02Z</time>
      </trkpt>
      <trkpt lat="43.24377" lon="5.94337">
        <ele>590.87</ele>
        <time>2017-03-09T14:01:05Z</time>
      </trkpt>
      <trkpt lat="43.24374" lon="5.94324">
        <ele>590.87</ele>
        <time>2017-03-09T14:01:16Z</time>
      </trkpt>
      <trkpt lat="43.24374" lon="5.94319">
        <ele>591.35</ele>
        <time>2017-03-09T14:01:20Z</time>
      </trkpt>
      <trkpt lat="43.24373" lon="5.9431">
        <ele>591.83</ele>
        <time>2017-03-09T14:01:26Z</time>
      </trkpt>
      <trkpt lat="43.24372" lon="5.94301">
        <ele>591.83</ele>
        <time>2017-03-09T14:01:33Z</time>
      </trkpt>
      <trkpt lat="43.24372" lon="5.94289">
        <ele>591.83</ele>
        <time>2017-03-09T14:01:41Z</time>
      </trkpt>
      <trkpt lat="43.24371" lon="5.9427">
        <ele>592.79</ele>
        <time>2017-03-09T14:01:55Z</time>
      </trkpt>
      <trkpt lat="43.24372" lon="5.94266">
        <ele>592.79</ele>
        <time>2017-03-09T14:01:58Z</time>
      </trkpt>
      <trkpt lat="43.24371" lon="5.94262">
        <ele>593.27</ele>
        <time>2017-03-09T14:02:00Z</time>
      </trkpt>
      <trkpt lat="43.24371" lon="5.94244">
        <ele>593.27</ele>
        <time>2017-03-09T14:02:14Z</time>
      </trkpt>
      <trkpt lat="43.2437" lon="5.94239">
        <ele>593.75</ele>
        <time>2017-03-09T14:02:18Z</time>
      </trkpt>
      <trkpt lat="43.24368" lon="5.94232">
        <ele>594.23</ele>
        <time>2017-03-09T14:02:23Z</time>
      </trkpt>
      <trkpt lat="43.24366" lon="5.9423">
        <ele>594.23</ele>
        <time>2017-03-09T14:02:25Z</time>
      </trkpt>
      <trkpt lat="43.24363" lon="5.94223">
        <ele>594.23</ele>
        <time>2017-03-09T14:02:30Z</time>
      </trkpt>
      <trkpt lat="43.24358" lon="5.94213">
        <ele>595.19</ele>
        <time>2017-03-09T14:02:40Z</time>
      </trkpt>
      <trkpt lat="43.24356" lon="5.94211">
        <ele>594.71</ele>
        <time>2017-03-09T14:02:42Z</time>
      </trkpt>
      <trkpt lat="43.24354" lon="5.94209">
        <ele>594.71</ele>
        <time>2017-03-09T14:02:44Z</time>
      </trkpt>
      <trkpt lat="43.24352" lon="5.94205">
        <ele>595.19</ele>
        <time>2017-03-09T14:02:49Z</time>
      </trkpt>
      <trkpt lat="43.24346" lon="5.94196">
        <ele>595.67</ele>
        <time>2017-03-09T14:02:58Z</time>
      </trkpt>
      <trkpt lat="43.24341" lon="5.94189">
        <ele>596.15</ele>
        <time>2017-03-09T14:03:05Z</time>
      </trkpt>
      <trkpt lat="43.24338" lon="5.94184">
        <ele>596.15</ele>
        <time>2017-03-09T14:03:10Z</time>
      </trkpt>
      <trkpt lat="43.2433" lon="5.94171">
        <ele>597.12</ele>
        <time>2017-03-09T14:03:22Z</time>
      </trkpt>
      <trkpt lat="43.24328" lon="5.94163">
        <ele>597.6</ele>
        <time>2017-03-09T14:03:27Z</time>
      </trkpt>
      <trkpt lat="43.24325" lon="5.94156">
        <ele>597.6</ele>
        <time>2017-03-09T14:03:32Z</time>
      </trkpt>
      <trkpt lat="43.24323" lon="5.94154">
        <ele>598.08</ele>
        <time>2017-03-09T14:03:34Z</time>
      </trkpt>
      <trkpt lat="43.24318" lon="5.94141">
        <ele>599.04</ele>
        <time>2017-03-09T14:03:43Z</time>
      </trkpt>
      <trkpt lat="43.24317" lon="5.94137">
        <ele>598.56</ele>
        <time>2017-03-09T14:03:46Z</time>
      </trkpt>
      <trkpt lat="43.24309" lon="5.94124">
        <ele>599.52</ele>
        <time>2017-03-09T14:03:59Z</time>
      </trkpt>
      <trkpt lat="43.24302" lon="5.94112">
        <ele>599.52</ele>
        <time>2017-03-09T14:04:10Z</time>
      </trkpt>
      <trkpt lat="43.24296" lon="5.94102">
        <ele>600.48</ele>
        <time>2017-03-09T14:04:20Z</time>
      </trkpt>
      <trkpt lat="43.24294" lon="5.94096">
        <ele>600.96</ele>
        <time>2017-03-09T14:04:25Z</time>
      </trkpt>
      <trkpt lat="43.24292" lon="5.94092">
        <ele>601.44</ele>
        <time>2017-03-09T14:04:29Z</time>
      </trkpt>
      <trkpt lat="43.24285" lon="5.94081">
        <ele>601.44</ele>
        <time>2017-03-09T14:04:40Z</time>
      </trkpt>
      <trkpt lat="43.24282" lon="5.94077">
        <ele>601.92</ele>
        <time>2017-03-09T14:04:45Z</time>
      </trkpt>
      <trkpt lat="43.24279" lon="5.94071">
        <ele>601.92</ele>
        <time>2017-03-09T14:04:50Z</time>
      </trkpt>
      <trkpt lat="43.24273" lon="5.94061">
        <ele>603.36</ele>
        <time>2017-03-09T14:05:02Z</time>
      </trkpt>
      <trkpt lat="43.24272" lon="5.94061">
        <ele>603.36</ele>
        <time>2017-03-09T14:05:04Z</time>
      </trkpt>
      <trkpt lat="43.24269" lon="5.94058">
        <ele>603.36</ele>
        <time>2017-03-09T14:05:08Z</time>
      </trkpt>
      <trkpt lat="43.24264" lon="5.9405">
        <ele>603.85</ele>
        <time>2017-03-09T14:05:16Z</time>
      </trkpt>
      <trkpt lat="43.24261" lon="5.94047">
        <ele>603.85</ele>
        <time>2017-03-09T14:05:20Z</time>
      </trkpt>
      <trkpt lat="43.2426" lon="5.94043">
        <ele>604.33</ele>
        <time>2017-03-09T14:05:22Z</time>
      </trkpt>
      <trkpt lat="43.24255" lon="5.94032">
        <ele>604.81</ele>
        <time>2017-03-09T14:05:30Z</time>
      </trkpt>
      <trkpt lat="43.24254" lon="5.94028">
        <ele>604.33</ele>
        <time>2017-03-09T14:05:33Z</time>
      </trkpt>
      <trkpt lat="43.24248" lon="5.9401">
        <ele>604.33</ele>
        <time>2017-03-09T14:05:46Z</time>
      </trkpt>
      <trkpt lat="43.2424" lon="5.93993">
        <ele>603.85</ele>
        <time>2017-03-09T14:06:00Z</time>
      </trkpt>
      <trkpt lat="43.24236" lon="5.93984">
        <ele>603.85</ele>
        <time>2017-03-09T14:06:07Z</time>
      </trkpt>
      <trkpt lat="43.24235" lon="5.93981">
        <ele>603.85</ele>
        <time>2017-03-09T14:06:09Z</time>
      </trkpt>
      <trkpt lat="43.24233" lon="5.93977">
        <ele>603.85</ele>
        <time>2017-03-09T14:06:13Z</time>
      </trkpt>
      <trkpt lat="43.2423" lon="5.93973">
        <ele>603.36</ele>
        <time>2017-03-09T14:06:17Z</time>
      </trkpt>
      <trkpt lat="43.24228" lon="5.93971">
        <ele>603.36</ele>
        <time>2017-03-09T14:06:19Z</time>
      </trkpt>
      <trkpt lat="43.24227" lon="5.93969">
        <ele>603.36</ele>
        <time>2017-03-09T14:06:21Z</time>
      </trkpt>
      <trkpt lat="43.24218" lon="5.93958">
        <ele>603.36</ele>
        <time>2017-03-09T14:06:33Z</time>
      </trkpt>
      <trkpt lat="43.24208" lon="5.93944">
        <ele>603.36</ele>
        <time>2017-03-09T14:06:47Z</time>
      </trkpt>
      <trkpt lat="43.24199" lon="5.93929">
        <ele>603.36</ele>
        <time>2017-03-09T14:06:59Z</time>
      </trkpt>
      <trkpt lat="43.24199" lon="5.93928">
        <ele>603.36</ele>
        <time>2017-03-09T14:07:00Z</time>
      </trkpt>
      <trkpt lat="43.24198" lon="5.93924">
        <ele>603.36</ele>
        <time>2017-03-09T14:07:02Z</time>
      </trkpt>
      <trkpt lat="43.2419" lon="5.93908">
        <ele>603.85</ele>
        <time>2017-03-09T14:07:15Z</time>
      </trkpt>
      <trkpt lat="43.24188" lon="5.93903">
        <ele>603.85</ele>
        <time>2017-03-09T14:07:20Z</time>
      </trkpt>
      <trkpt lat="43.24184" lon="5.93897">
        <ele>603.85</ele>
        <time>2017-03-09T14:07:25Z</time>
      </trkpt>
      <trkpt lat="43.24173" lon="5.93882">
        <ele>604.33</ele>
        <time>2017-03-09T14:07:39Z</time>
      </trkpt>
      <trkpt lat="43.24164" lon="5.93867">
        <ele>604.81</ele>
        <time>2017-03-09T14:07:52Z</time>
      </trkpt>
      <trkpt lat="43.24163" lon="5.93864">
        <ele>604.81</ele>
        <time>2017-03-09T14:07:55Z</time>
      </trkpt>
      <trkpt lat="43.2416" lon="5.9386">
        <ele>604.81</ele>
        <time>2017-03-09T14:07:59Z</time>
      </trkpt>
      <trkpt lat="43.24156" lon="5.93854">
        <ele>605.29</ele>
        <time>2017-03-09T14:08:04Z</time>
      </trkpt>
      <trkpt lat="43.24152" lon="5.9385">
        <ele>605.77</ele>
        <time>2017-03-09T14:08:09Z</time>
      </trkpt>
      <trkpt lat="43.24141" lon="5.93838">
        <ele>606.73</ele>
        <time>2017-03-09T14:08:23Z</time>
      </trkpt>
      <trkpt lat="43.24139" lon="5.9384">
        <ele>606.73</ele>
        <time>2017-03-09T14:08:26Z</time>
      </trkpt>
      <trkpt lat="43.24135" lon="5.9384">
        <ele>606.73</ele>
        <time>2017-03-09T14:08:31Z</time>
      </trkpt>
      <trkpt lat="43.24132" lon="5.93841">
        <ele>607.69</ele>
        <time>2017-03-09T14:08:37Z</time>
      </trkpt>
      <trkpt lat="43.24122" lon="5.93841">
        <ele>609.13</ele>
        <time>2017-03-09T14:08:49Z</time>
      </trkpt>
      <trkpt lat="43.24116" lon="5.9384">
        <ele>609.61</ele>
        <time>2017-03-09T14:08:56Z</time>
      </trkpt>
      <trkpt lat="43.24111" lon="5.93841">
        <ele>610.57</ele>
        <time>2017-03-09T14:09:02Z</time>
      </trkpt>
      <trkpt lat="43.24103" lon="5.93841">
        <ele>612.02</ele>
        <time>2017-03-09T14:09:14Z</time>
      </trkpt>
      <trkpt lat="43.24094" lon="5.93843">
        <ele>613.46</ele>
        <time>2017-03-09T14:09:26Z</time>
      </trkpt>
      <trkpt lat="43.24085" lon="5.93844">
        <ele>614.9</ele>
        <time>2017-03-09T14:09:39Z</time>
      </trkpt>
      <trkpt lat="43.24076" lon="5.93841">
        <ele>615.86</ele>
        <time>2017-03-09T14:09:48Z</time>
      </trkpt>
      <trkpt lat="43.24065" lon="5.93844">
        <ele>617.78</ele>
        <time>2017-03-09T14:10:02Z</time>
      </trkpt>
      <trkpt lat="43.24056" lon="5.93842">
        <ele>618.75</ele>
        <time>2017-03-09T14:10:12Z</time>
      </trkpt>
      <trkpt lat="43.24048" lon="5.93839">
        <ele>619.23</ele>
        <time>2017-03-09T14:10:22Z</time>
      </trkpt>
      <trkpt lat="43.24042" lon="5.93836">
        <ele>620.19</ele>
        <time>2017-03-09T14:10:31Z</time>
      </trkpt>
      <trkpt lat="43.24039" lon="5.93835">
        <ele>620.67</ele>
        <time>2017-03-09T14:10:35Z</time>
      </trkpt>
      <trkpt lat="43.24027" lon="5.93827">
        <ele>622.11</ele>
        <time>2017-03-09T14:10:47Z</time>
      </trkpt>
      <trkpt lat="43.24022" lon="5.93826">
        <ele>622.59</ele>
        <time>2017-03-09T14:10:51Z</time>
      </trkpt>
      <trkpt lat="43.24014" lon="5.93819">
        <ele>624.51</ele>
        <time>2017-03-09T14:11:00Z</time>
      </trkpt>
      <trkpt lat="43.24006" lon="5.93811">
        <ele>624.99</ele>
        <time>2017-03-09T14:11:09Z</time>
      </trkpt>
      <trkpt lat="43.24002" lon="5.93804">
        <ele>625.47</ele>
        <time>2017-03-09T14:11:20Z</time>
      </trkpt>
      <trkpt lat="43.24002" lon="5.93804">
        <ele>625.96</ele>
        <time>2017-03-09T14:11:21Z</time>
      </trkpt>
      <trkpt lat="43.24" lon="5.93806">
        <ele>624.99</ele>
        <time>2017-03-09T14:11:39Z</time>
      </trkpt>
      <trkpt lat="43.24" lon="5.93806">
        <ele>624.99</ele>
        <time>2017-03-09T14:12:08Z</time>
      </trkpt>
      <trkpt lat="43.24001" lon="5.93806">
        <ele>625.47</ele>
        <time>2017-03-09T14:12:21Z</time>
      </trkpt>
      <trkpt lat="43.23999" lon="5.93807">
        <ele>625.96</ele>
        <time>2017-03-09T14:12:48Z</time>
      </trkpt>
      <trkpt lat="43.23999" lon="5.93805">
        <ele>625.47</ele>
        <time>2017-03-09T14:13:17Z</time>
      </trkpt>
      <trkpt lat="43.23999" lon="5.93805">
        <ele>625.47</ele>
        <time>2017-03-09T14:13:49Z</time>
      </trkpt>
      <trkpt lat="43.23999" lon="5.93805">
        <ele>624.51</ele>
        <time>2017-03-09T14:14:14Z</time>
      </trkpt>
      <trkpt lat="43.23999" lon="5.93806">
        <ele>624.51</ele>
        <time>2017-03-09T14:14:52Z</time>
      </trkpt>
      <trkpt lat="43.23999" lon="5.93806">
        <ele>624.51</ele>
        <time>2017-03-09T14:15:31Z</time>
      </trkpt>
      <trkpt lat="43.23999" lon="5.93805">
        <ele>624.51</ele>
        <time>2017-03-09T14:16:09Z</time>
      </trkpt>
      <trkpt lat="43.23998" lon="5.93806">
        <ele>624.51</ele>
        <time>2017-03-09T14:16:43Z</time>
      </trkpt>
      <trkpt lat="43.23997" lon="5.93806">
        <ele>624.51</ele>
        <time>2017-03-09T14:17:19Z</time>
      </trkpt>
      <trkpt lat="43.23997" lon="5.93807">
        <ele>624.99</ele>
        <time>2017-03-09T14:17:38Z</time>
      </trkpt>
      <trkpt lat="43.23997" lon="5.93806">
        <ele>624.99</ele>
        <time>2017-03-09T14:18:09Z</time>
      </trkpt>
      <trkpt lat="43.23998" lon="5.93805">
        <ele>624.99</ele>
        <time>2017-03-09T14:18:43Z</time>
      </trkpt>
      <trkpt lat="43.23998" lon="5.93805">
        <ele>625.47</ele>
        <time>2017-03-09T14:19:11Z</time>
      </trkpt>
      <trkpt lat="43.23998" lon="5.93805">
        <ele>624.99</ele>
        <time>2017-03-09T14:19:39Z</time>
      </trkpt>
      <trkpt lat="43.23998" lon="5.93805">
        <ele>624.99</ele>
        <time>2017-03-09T14:20:06Z</time>
      </trkpt>
      <trkpt lat="43.23998" lon="5.93804">
        <ele>624.99</ele>
        <time>2017-03-09T14:20:36Z</time>
      </trkpt>
      <trkpt lat="43.23997" lon="5.93804">
        <ele>624.51</ele>
        <time>2017-03-09T14:21:09Z</time>
      </trkpt>
      <trkpt lat="43.23998" lon="5.93804">
        <ele>624.99</ele>
        <time>2017-03-09T14:21:50Z</time>
      </trkpt>
      <trkpt lat="43.23998" lon="5.93804">
        <ele>624.99</ele>
        <time>2017-03-09T14:22:26Z</time>
      </trkpt>
      <trkpt lat="43.23998" lon="5.93804">
        <ele>624.99</ele>
        <time>2017-03-09T14:22:55Z</time>
      </trkpt>
      <trkpt lat="43.23998" lon="5.93805">
        <ele>624.99</ele>
        <time>2017-03-09T14:23:30Z</time>
      </trkpt>
      <trkpt lat="43.23998" lon="5.93804">
        <ele>624.99</ele>
        <time>2017-03-09T14:23:59Z</time>
      </trkpt>
      <trkpt lat="43.23998" lon="5.93804">
        <ele>624.99</ele>
        <time>2017-03-09T14:24:23Z</time>
      </trkpt>
      <trkpt lat="43.23998" lon="5.93804">
        <ele>624.99</ele>
        <time>2017-03-09T14:24:51Z</time>
      </trkpt>
      <trkpt lat="43.23998" lon="5.93804">
        <ele>624.99</ele>
        <time>2017-03-09T14:25:23Z</time>
      </trkpt>
      <trkpt lat="43.23998" lon="5.93804">
        <ele>624.99</ele>
        <time>2017-03-09T14:25:51Z</time>
      </trkpt>
      <trkpt lat="43.23997" lon="5.93805">
        <ele>624.99</ele>
        <time>2017-03-09T14:26:21Z</time>
      </trkpt>
      <trkpt lat="43.23997" lon="5.93805">
        <ele>624.99</ele>
        <time>2017-03-09T14:26:54Z</time>
      </trkpt>
      <trkpt lat="43.23995" lon="5.93808">
        <ele>625.96</ele>
        <time>2017-03-09T14:27:08Z</time>
      </trkpt>
      <trkpt lat="43.23988" lon="5.9381">
        <ele>626.44</ele>
        <time>2017-03-09T14:27:18Z</time>
      </trkpt>
      <trkpt lat="43.23981" lon="5.93808">
        <ele>626.44</ele>
        <time>2017-03-09T14:27:30Z</time>
      </trkpt>
      <trkpt lat="43.23974" lon="5.93809">
        <ele>626.44</ele>
        <time>2017-03-09T14:27:39Z</time>
      </trkpt>
      <trkpt lat="43.23972" lon="5.9381">
        <ele>626.44</ele>
        <time>2017-03-09T14:27:42Z</time>
      </trkpt>
      <trkpt lat="43.23967" lon="5.93812">
        <ele>626.44</ele>
        <time>2017-03-09T14:27:48Z</time>
      </trkpt>
      <trkpt lat="43.23962" lon="5.93815">
        <ele>626.44</ele>
        <time>2017-03-09T14:27:54Z</time>
      </trkpt>
      <trkpt lat="43.23956" lon="5.93814">
        <ele>626.44</ele>
        <time>2017-03-09T14:28:00Z</time>
      </trkpt>
      <trkpt lat="43.23954" lon="5.93815">
        <ele>626.44</ele>
        <time>2017-03-09T14:28:02Z</time>
      </trkpt>
      <trkpt lat="43.23944" lon="5.93813">
        <ele>626.44</ele>
        <time>2017-03-09T14:28:15Z</time>
      </trkpt>
      <trkpt lat="43.23942" lon="5.93814">
        <ele>626.44</ele>
        <time>2017-03-09T14:28:17Z</time>
      </trkpt>
      <trkpt lat="43.23936" lon="5.93817">
        <ele>625.96</ele>
        <time>2017-03-09T14:28:24Z</time>
      </trkpt>
      <trkpt lat="43.23933" lon="5.93817">
        <ele>626.44</ele>
        <time>2017-03-09T14:28:27Z</time>
      </trkpt>
      <trkpt lat="43.2393" lon="5.93817">
        <ele>626.44</ele>
        <time>2017-03-09T14:28:29Z</time>
      </trkpt>
      <trkpt lat="43.23919" lon="5.93817">
        <ele>625.96</ele>
        <time>2017-03-09T14:28:41Z</time>
      </trkpt>
      <trkpt lat="43.23912" lon="5.93815">
        <ele>625.96</ele>
        <time>2017-03-09T14:28:48Z</time>
      </trkpt>
      <trkpt lat="43.23908" lon="5.93814">
        <ele>625.96</ele>
        <time>2017-03-09T14:28:53Z</time>
      </trkpt>
      <trkpt lat="43.23897" lon="5.93809">
        <ele>624.99</ele>
        <time>2017-03-09T14:29:05Z</time>
      </trkpt>
      <trkpt lat="43.23892" lon="5.93807">
        <ele>624.51</ele>
        <time>2017-03-09T14:29:10Z</time>
      </trkpt>
      <trkpt lat="43.23891" lon="5.93807">
        <ele>624.51</ele>
        <time>2017-03-09T14:29:12Z</time>
      </trkpt>
      <trkpt lat="43.23889" lon="5.93806">
        <ele>624.03</ele>
        <time>2017-03-09T14:29:14Z</time>
      </trkpt>
      <trkpt lat="43.23885" lon="5.93804">
        <ele>624.03</ele>
        <time>2017-03-09T14:29:17Z</time>
      </trkpt>
      <trkpt lat="43.23873" lon="5.93806">
        <ele>623.55</ele>
        <time>2017-03-09T14:29:29Z</time>
      </trkpt>
      <trkpt lat="43.2387" lon="5.93805">
        <ele>623.07</ele>
        <time>2017-03-09T14:29:32Z</time>
      </trkpt>
      <trkpt lat="43.23867" lon="5.93804">
        <ele>622.59</ele>
        <time>2017-03-09T14:29:35Z</time>
      </trkpt>
      <trkpt lat="43.23865" lon="5.93802">
        <ele>622.59</ele>
        <time>2017-03-09T14:29:38Z</time>
      </trkpt>
      <trkpt lat="43.23863" lon="5.93802">
        <ele>622.11</ele>
        <time>2017-03-09T14:29:40Z</time>
      </trkpt>
      <trkpt lat="43.2386" lon="5.938">
        <ele>622.59</ele>
        <time>2017-03-09T14:29:43Z</time>
      </trkpt>
      <trkpt lat="43.23857" lon="5.93798">
        <ele>622.59</ele>
        <time>2017-03-09T14:29:46Z</time>
      </trkpt>
      <trkpt lat="43.2385" lon="5.93792">
        <ele>621.63</ele>
        <time>2017-03-09T14:29:56Z</time>
      </trkpt>
      <trkpt lat="43.23849" lon="5.9379">
        <ele>621.15</ele>
        <time>2017-03-09T14:29:58Z</time>
      </trkpt>
      <trkpt lat="43.23844" lon="5.93782">
        <ele>621.15</ele>
        <time>2017-03-09T14:30:06Z</time>
      </trkpt>
      <trkpt lat="43.23832" lon="5.93777">
        <ele>621.15</ele>
        <time>2017-03-09T14:30:18Z</time>
      </trkpt>
      <trkpt lat="43.23831" lon="5.93777">
        <ele>621.15</ele>
        <time>2017-03-09T14:30:19Z</time>
      </trkpt>
      <trkpt lat="43.23825" lon="5.93779">
        <ele>621.15</ele>
        <time>2017-03-09T14:30:24Z</time>
      </trkpt>
      <trkpt lat="43.23811" lon="5.93779">
        <ele>620.67</ele>
        <time>2017-03-09T14:30:37Z</time>
      </trkpt>
      <trkpt lat="43.23804" lon="5.93779">
        <ele>620.67</ele>
        <time>2017-03-09T14:30:44Z</time>
      </trkpt>
      <trkpt lat="43.23802" lon="5.93782">
        <ele>620.67</ele>
        <time>2017-03-09T14:30:46Z</time>
      </trkpt>
      <trkpt lat="43.23793" lon="5.93784">
        <ele>620.67</ele>
        <time>2017-03-09T14:30:55Z</time>
      </trkpt>
      <trkpt lat="43.23784" lon="5.93781">
        <ele>620.67</ele>
        <time>2017-03-09T14:31:04Z</time>
      </trkpt>
      <trkpt lat="43.23775" lon="5.93782">
        <ele>621.15</ele>
        <time>2017-03-09T14:31:11Z</time>
      </trkpt>
      <trkpt lat="43.23772" lon="5.9378">
        <ele>621.15</ele>
        <time>2017-03-09T14:31:15Z</time>
      </trkpt>
      <trkpt lat="43.23769" lon="5.93779">
        <ele>621.15</ele>
        <time>2017-03-09T14:31:18Z</time>
      </trkpt>
      <trkpt lat="43.23761" lon="5.93772">
        <ele>621.15</ele>
        <time>2017-03-09T14:31:30Z</time>
      </trkpt>
      <trkpt lat="43.23758" lon="5.93772">
        <ele>621.15</ele>
        <time>2017-03-09T14:31:33Z</time>
      </trkpt>
      <trkpt lat="43.23753" lon="5.93771">
        <ele>621.15</ele>
        <time>2017-03-09T14:31:37Z</time>
      </trkpt>
      <trkpt lat="43.23747" lon="5.93768">
        <ele>621.15</ele>
        <time>2017-03-09T14:31:42Z</time>
      </trkpt>
      <trkpt lat="43.23745" lon="5.93767">
        <ele>621.15</ele>
        <time>2017-03-09T14:31:44Z</time>
      </trkpt>
      <trkpt lat="43.23743" lon="5.93766">
        <ele>621.15</ele>
        <time>2017-03-09T14:31:46Z</time>
      </trkpt>
      <trkpt lat="43.23741" lon="5.93763">
        <ele>621.15</ele>
        <time>2017-03-09T14:31:49Z</time>
      </trkpt>
      <trkpt lat="43.23737" lon="5.93759">
        <ele>621.63</ele>
        <time>2017-03-09T14:31:53Z</time>
      </trkpt>
      <trkpt lat="43.23735" lon="5.93757">
        <ele>621.63</ele>
        <time>2017-03-09T14:31:55Z</time>
      </trkpt>
      <trkpt lat="43.23733" lon="5.93753">
        <ele>621.63</ele>
        <time>2017-03-09T14:31:58Z</time>
      </trkpt>
      <trkpt lat="43.23731" lon="5.93751">
        <ele>621.63</ele>
        <time>2017-03-09T14:32:00Z</time>
      </trkpt>
      <trkpt lat="43.23729" lon="5.93746">
        <ele>621.63</ele>
        <time>2017-03-09T14:32:04Z</time>
      </trkpt>
      <trkpt lat="43.23721" lon="5.93735">
        <ele>621.63</ele>
        <time>2017-03-09T14:32:14Z</time>
      </trkpt>
      <trkpt lat="43.23719" lon="5.93733">
        <ele>621.63</ele>
        <time>2017-03-09T14:32:16Z</time>
      </trkpt>
      <trkpt lat="43.23715" lon="5.93727">
        <ele>621.63</ele>
        <time>2017-03-09T14:32:22Z</time>
      </trkpt>
      <trkpt lat="43.23709" lon="5.93718">
        <ele>621.63</ele>
        <time>2017-03-09T14:32:31Z</time>
      </trkpt>
      <trkpt lat="43.23706" lon="5.93715">
        <ele>621.63</ele>
        <time>2017-03-09T14:32:35Z</time>
      </trkpt>
      <trkpt lat="43.23703" lon="5.93707">
        <ele>621.63</ele>
        <time>2017-03-09T14:32:41Z</time>
      </trkpt>
      <trkpt lat="43.23697" lon="5.93693">
        <ele>621.63</ele>
        <time>2017-03-09T14:32:52Z</time>
      </trkpt>
      <trkpt lat="43.23697" lon="5.93674">
        <ele>621.63</ele>
        <time>2017-03-09T14:33:05Z</time>
      </trkpt>
      <trkpt lat="43.23689" lon="5.9366">
        <ele>621.15</ele>
        <time>2017-03-09T14:33:18Z</time>
      </trkpt>
      <trkpt lat="43.23678" lon="5.93655">
        <ele>620.19</ele>
        <time>2017-03-09T14:33:28Z</time>
      </trkpt>
      <trkpt lat="43.23676" lon="5.93651">
        <ele>620.19</ele>
        <time>2017-03-09T14:33:31Z</time>
      </trkpt>
      <trkpt lat="43.23669" lon="5.93633">
        <ele>619.23</ele>
        <time>2017-03-09T14:33:44Z</time>
      </trkpt>
      <trkpt lat="43.23669" lon="5.93631">
        <ele>619.23</ele>
        <time>2017-03-09T14:33:46Z</time>
      </trkpt>
      <trkpt lat="43.23668" lon="5.93626">
        <ele>618.75</ele>
        <time>2017-03-09T14:33:50Z</time>
      </trkpt>
      <trkpt lat="43.23663" lon="5.93609">
        <ele>618.26</ele>
        <time>2017-03-09T14:34:02Z</time>
      </trkpt>
      <trkpt lat="43.23662" lon="5.93606">
        <ele>617.78</ele>
        <time>2017-03-09T14:34:05Z</time>
      </trkpt>
      <trkpt lat="43.23661" lon="5.9359">
        <ele>616.82</ele>
        <time>2017-03-09T14:34:17Z</time>
      </trkpt>
      <trkpt lat="43.23662" lon="5.93588">
        <ele>616.82</ele>
        <time>2017-03-09T14:34:18Z</time>
      </trkpt>
      <trkpt lat="43.23667" lon="5.93572">
        <ele>616.82</ele>
        <time>2017-03-09T14:34:30Z</time>
      </trkpt>
      <trkpt lat="43.2367" lon="5.93558">
        <ele>616.34</ele>
        <time>2017-03-09T14:34:40Z</time>
      </trkpt>
      <trkpt lat="43.23672" lon="5.93539">
        <ele>616.34</ele>
        <time>2017-03-09T14:34:52Z</time>
      </trkpt>
      <trkpt lat="43.23682" lon="5.9352">
        <ele>615.38</ele>
        <time>2017-03-09T14:35:07Z</time>
      </trkpt>
      <trkpt lat="43.23691" lon="5.93504">
        <ele>614.42</ele>
        <time>2017-03-09T14:35:21Z</time>
      </trkpt>
      <trkpt lat="43.23698" lon="5.93487">
        <ele>613.94</ele>
        <time>2017-03-09T14:35:34Z</time>
      </trkpt>
      <trkpt lat="43.23699" lon="5.93485">
        <ele>613.94</ele>
        <time>2017-03-09T14:35:36Z</time>
      </trkpt>
      <trkpt lat="43.23702" lon="5.93474">
        <ele>612.98</ele>
        <time>2017-03-09T14:35:42Z</time>
      </trkpt>
      <trkpt lat="43.23709" lon="5.93455">
        <ele>612.5</ele>
        <time>2017-03-09T14:35:57Z</time>
      </trkpt>
      <trkpt lat="43.23718" lon="5.93446">
        <ele>612.02</ele>
        <time>2017-03-09T14:36:08Z</time>
      </trkpt>
      <trkpt lat="43.23727" lon="5.93429">
        <ele>612.02</ele>
        <time>2017-03-09T14:36:23Z</time>
      </trkpt>
      <trkpt lat="43.23726" lon="5.93428">
        <ele>612.02</ele>
        <time>2017-03-09T14:36:37Z</time>
      </trkpt>
      <trkpt lat="43.23728" lon="5.93423">
        <ele>612.02</ele>
        <time>2017-03-09T14:36:52Z</time>
      </trkpt>
      <trkpt lat="43.23728" lon="5.93418">
        <ele>612.02</ele>
        <time>2017-03-09T14:37:06Z</time>
      </trkpt>
      <trkpt lat="43.23736" lon="5.93405">
        <ele>612.02</ele>
        <time>2017-03-09T14:37:21Z</time>
      </trkpt>
      <trkpt lat="43.2374" lon="5.93394">
        <ele>611.54</ele>
        <time>2017-03-09T14:37:36Z</time>
      </trkpt>
      <trkpt lat="43.23737" lon="5.93381">
        <ele>611.54</ele>
        <time>2017-03-09T14:37:48Z</time>
      </trkpt>
      <trkpt lat="43.23735" lon="5.93366">
        <ele>611.06</ele>
        <time>2017-03-09T14:38:00Z</time>
      </trkpt>
      <trkpt lat="43.23735" lon="5.93365">
        <ele>611.06</ele>
        <time>2017-03-09T14:38:01Z</time>
      </trkpt>
      <trkpt lat="43.23734" lon="5.93361">
        <ele>610.57</ele>
        <time>2017-03-09T14:38:04Z</time>
      </trkpt>
      <trkpt lat="43.2373" lon="5.93344">
        <ele>610.57</ele>
        <time>2017-03-09T14:38:17Z</time>
      </trkpt>
      <trkpt lat="43.23728" lon="5.9334">
        <ele>610.57</ele>
        <time>2017-03-09T14:38:20Z</time>
      </trkpt>
      <trkpt lat="43.23729" lon="5.93322">
        <ele>609.61</ele>
        <time>2017-03-09T14:38:31Z</time>
      </trkpt>
      <trkpt lat="43.23729" lon="5.93304">
        <ele>609.61</ele>
        <time>2017-03-09T14:38:44Z</time>
      </trkpt>
      <trkpt lat="43.23731" lon="5.93296">
        <ele>609.61</ele>
        <time>2017-03-09T14:38:50Z</time>
      </trkpt>
      <trkpt lat="43.23731" lon="5.93278">
        <ele>609.61</ele>
        <time>2017-03-09T14:39:03Z</time>
      </trkpt>
      <trkpt lat="43.23731" lon="5.93274">
        <ele>609.61</ele>
        <time>2017-03-09T14:39:06Z</time>
      </trkpt>
      <trkpt lat="43.2373" lon="5.93271">
        <ele>609.61</ele>
        <time>2017-03-09T14:39:09Z</time>
      </trkpt>
      <trkpt lat="43.23728" lon="5.93259">
        <ele>609.61</ele>
        <time>2017-03-09T14:39:18Z</time>
      </trkpt>
      <trkpt lat="43.23726" lon="5.93254">
        <ele>609.61</ele>
        <time>2017-03-09T14:39:21Z</time>
      </trkpt>
      <trkpt lat="43.2372" lon="5.93236">
        <ele>609.61</ele>
        <time>2017-03-09T14:39:36Z</time>
      </trkpt>
      <trkpt lat="43.23715" lon="5.9322">
        <ele>610.57</ele>
        <time>2017-03-09T14:39:45Z</time>
      </trkpt>
      <trkpt lat="43.23713" lon="5.93205">
        <ele>611.06</ele>
        <time>2017-03-09T14:39:55Z</time>
      </trkpt>
      <trkpt lat="43.23708" lon="5.93187">
        <ele>612.02</ele>
        <time>2017-03-09T14:40:09Z</time>
      </trkpt>
      <trkpt lat="43.23703" lon="5.93173">
        <ele>612.5</ele>
        <time>2017-03-09T14:40:21Z</time>
      </trkpt>
      <trkpt lat="43.237" lon="5.93158">
        <ele>612.5</ele>
        <time>2017-03-09T14:40:32Z</time>
      </trkpt>
      <trkpt lat="43.23696" lon="5.93146">
        <ele>612.98</ele>
        <time>2017-03-09T14:40:41Z</time>
      </trkpt>
      <trkpt lat="43.23688" lon="5.93129">
        <ele>612.02</ele>
        <time>2017-03-09T14:40:53Z</time>
      </trkpt>
      <trkpt lat="43.23686" lon="5.93127">
        <ele>612.02</ele>
        <time>2017-03-09T14:40:55Z</time>
      </trkpt>
      <trkpt lat="43.23679" lon="5.93116">
        <ele>611.06</ele>
        <time>2017-03-09T14:41:04Z</time>
      </trkpt>
      <trkpt lat="43.2367" lon="5.93111">
        <ele>610.09</ele>
        <time>2017-03-09T14:41:16Z</time>
      </trkpt>
      <trkpt lat="43.23666" lon="5.9311">
        <ele>609.13</ele>
        <time>2017-03-09T14:41:22Z</time>
      </trkpt>
      <trkpt lat="43.23662" lon="5.93108">
        <ele>608.65</ele>
        <time>2017-03-09T14:41:26Z</time>
      </trkpt>
      <trkpt lat="43.23656" lon="5.93103">
        <ele>608.17</ele>
        <time>2017-03-09T14:41:32Z</time>
      </trkpt>
      <trkpt lat="43.23653" lon="5.93101">
        <ele>607.69</ele>
        <time>2017-03-09T14:41:35Z</time>
      </trkpt>
      <trkpt lat="43.23651" lon="5.93095">
        <ele>607.21</ele>
        <time>2017-03-09T14:41:39Z</time>
      </trkpt>
      <trkpt lat="43.23645" lon="5.93089">
        <ele>607.21</ele>
        <time>2017-03-09T14:41:45Z</time>
      </trkpt>
      <trkpt lat="43.23642" lon="5.93088">
        <ele>606.73</ele>
        <time>2017-03-09T14:41:49Z</time>
      </trkpt>
      <trkpt lat="43.23636" lon="5.93079">
        <ele>606.25</ele>
        <time>2017-03-09T14:41:57Z</time>
      </trkpt>
      <trkpt lat="43.23627" lon="5.93062">
        <ele>604.81</ele>
        <time>2017-03-09T14:42:09Z</time>
      </trkpt>
      <trkpt lat="43.23625" lon="5.93058">
        <ele>604.33</ele>
        <time>2017-03-09T14:42:12Z</time>
      </trkpt>
      <trkpt lat="43.23616" lon="5.93044">
        <ele>603.36</ele>
        <time>2017-03-09T14:42:24Z</time>
      </trkpt>
      <trkpt lat="43.23612" lon="5.93041">
        <ele>603.36</ele>
        <time>2017-03-09T14:42:28Z</time>
      </trkpt>
      <trkpt lat="43.23599" lon="5.93031">
        <ele>602.88</ele>
        <time>2017-03-09T14:42:39Z</time>
      </trkpt>
      <trkpt lat="43.23596" lon="5.93029">
        <ele>603.36</ele>
        <time>2017-03-09T14:42:42Z</time>
      </trkpt>
      <trkpt lat="43.23587" lon="5.93023">
        <ele>602.4</ele>
        <time>2017-03-09T14:42:49Z</time>
      </trkpt>
      <trkpt lat="43.23575" lon="5.93004">
        <ele>601.92</ele>
        <time>2017-03-09T14:43:02Z</time>
      </trkpt>
      <trkpt lat="43.23566" lon="5.92987">
        <ele>601.92</ele>
        <time>2017-03-09T14:43:13Z</time>
      </trkpt>
      <trkpt lat="43.23555" lon="5.92976">
        <ele>601.92</ele>
        <time>2017-03-09T14:43:22Z</time>
      </trkpt>
      <trkpt lat="43.23545" lon="5.92968">
        <ele>601.44</ele>
        <time>2017-03-09T14:43:30Z</time>
      </trkpt>
      <trkpt lat="43.23534" lon="5.92968">
        <ele>600.96</ele>
        <time>2017-03-09T14:43:38Z</time>
      </trkpt>
      <trkpt lat="43.23522" lon="5.92963">
        <ele>600.96</ele>
        <time>2017-03-09T14:43:47Z</time>
      </trkpt>
      <trkpt lat="43.23512" lon="5.92959">
        <ele>600</ele>
        <time>2017-03-09T14:43:55Z</time>
      </trkpt>
      <trkpt lat="43.23497" lon="5.9295">
        <ele>600.96</ele>
        <time>2017-03-09T14:44:07Z</time>
      </trkpt>
      <trkpt lat="43.23496" lon="5.92949">
        <ele>600.96</ele>
        <time>2017-03-09T14:44:08Z</time>
      </trkpt>
      <trkpt lat="43.23493" lon="5.92948">
        <ele>600.48</ele>
        <time>2017-03-09T14:44:10Z</time>
      </trkpt>
      <trkpt lat="43.23484" lon="5.92932">
        <ele>599.04</ele>
        <time>2017-03-09T14:44:24Z</time>
      </trkpt>
      <trkpt lat="43.23475" lon="5.92916">
        <ele>597.6</ele>
        <time>2017-03-09T14:44:39Z</time>
      </trkpt>
      <trkpt lat="43.23468" lon="5.92907">
        <ele>597.12</ele>
        <time>2017-03-09T14:44:48Z</time>
      </trkpt>
      <trkpt lat="43.23464" lon="5.92894">
        <ele>596.64</ele>
        <time>2017-03-09T14:44:56Z</time>
      </trkpt>
      <trkpt lat="43.23463" lon="5.92889">
        <ele>596.15</ele>
        <time>2017-03-09T14:44:59Z</time>
      </trkpt>
      <trkpt lat="43.23462" lon="5.92879">
        <ele>596.15</ele>
        <time>2017-03-09T14:45:05Z</time>
      </trkpt>
      <trkpt lat="43.23472" lon="5.92866">
        <ele>596.15</ele>
        <time>2017-03-09T14:45:18Z</time>
      </trkpt>
      <trkpt lat="43.23479" lon="5.9286">
        <ele>596.64</ele>
        <time>2017-03-09T14:45:25Z</time>
      </trkpt>
      <trkpt lat="43.23488" lon="5.92852">
        <ele>597.12</ele>
        <time>2017-03-09T14:45:32Z</time>
      </trkpt>
      <trkpt lat="43.23497" lon="5.92839">
        <ele>597.12</ele>
        <time>2017-03-09T14:45:41Z</time>
      </trkpt>
      <trkpt lat="43.23506" lon="5.92821">
        <ele>596.15</ele>
        <time>2017-03-09T14:45:56Z</time>
      </trkpt>
      <trkpt lat="43.23514" lon="5.92803">
        <ele>594.23</ele>
        <time>2017-03-09T14:46:10Z</time>
      </trkpt>
      <trkpt lat="43.23523" lon="5.92785">
        <ele>593.27</ele>
        <time>2017-03-09T14:46:24Z</time>
      </trkpt>
      <trkpt lat="43.23531" lon="5.9277">
        <ele>592.31</ele>
        <time>2017-03-09T14:46:37Z</time>
      </trkpt>
      <trkpt lat="43.23539" lon="5.92756">
        <ele>592.79</ele>
        <time>2017-03-09T14:46:51Z</time>
      </trkpt>
      <trkpt lat="43.2354" lon="5.92754">
        <ele>593.27</ele>
        <time>2017-03-09T14:46:55Z</time>
      </trkpt>
      <trkpt lat="43.23546" lon="5.92743">
        <ele>593.75</ele>
        <time>2017-03-09T14:47:01Z</time>
      </trkpt>
      <trkpt lat="43.23556" lon="5.92726">
        <ele>595.19</ele>
        <time>2017-03-09T14:47:14Z</time>
      </trkpt>
      <trkpt lat="43.23568" lon="5.92712">
        <ele>596.64</ele>
        <time>2017-03-09T14:47:27Z</time>
      </trkpt>
      <trkpt lat="43.23563" lon="5.92702">
        <ele>598.08</ele>
        <time>2017-03-09T14:47:39Z</time>
      </trkpt>
      <trkpt lat="43.23557" lon="5.92701">
        <ele>598.56</ele>
        <time>2017-03-09T14:47:45Z</time>
      </trkpt>
      <trkpt lat="43.23554" lon="5.92698">
        <ele>598.56</ele>
        <time>2017-03-09T14:47:48Z</time>
      </trkpt>
      <trkpt lat="43.23546" lon="5.92682">
        <ele>599.04</ele>
        <time>2017-03-09T14:48:00Z</time>
      </trkpt>
      <trkpt lat="43.23541" lon="5.92666">
        <ele>599.04</ele>
        <time>2017-03-09T14:48:14Z</time>
      </trkpt>
      <trkpt lat="43.23539" lon="5.92657">
        <ele>598.56</ele>
        <time>2017-03-09T14:48:21Z</time>
      </trkpt>
      <trkpt lat="43.23534" lon="5.92639">
        <ele>598.56</ele>
        <time>2017-03-09T14:48:34Z</time>
      </trkpt>
      <trkpt lat="43.23532" lon="5.92632">
        <ele>597.6</ele>
        <time>2017-03-09T14:48:39Z</time>
      </trkpt>
      <trkpt lat="43.2353" lon="5.92623">
        <ele>597.12</ele>
        <time>2017-03-09T14:48:46Z</time>
      </trkpt>
      <trkpt lat="43.23532" lon="5.926">
        <ele>595.67</ele>
        <time>2017-03-09T14:49:02Z</time>
      </trkpt>
      <trkpt lat="43.23532" lon="5.92595">
        <ele>595.67</ele>
        <time>2017-03-09T14:49:05Z</time>
      </trkpt>
      <trkpt lat="43.23531" lon="5.92591">
        <ele>595.67</ele>
        <time>2017-03-09T14:49:07Z</time>
      </trkpt>
      <trkpt lat="43.23526" lon="5.92573">
        <ele>596.64</ele>
        <time>2017-03-09T14:49:18Z</time>
      </trkpt>
      <trkpt lat="43.23524" lon="5.92567">
        <ele>596.64</ele>
        <time>2017-03-09T14:49:22Z</time>
      </trkpt>
      <trkpt lat="43.23516" lon="5.92547">
        <ele>597.12</ele>
        <time>2017-03-09T14:49:36Z</time>
      </trkpt>
      <trkpt lat="43.23516" lon="5.92545">
        <ele>596.64</ele>
        <time>2017-03-09T14:49:37Z</time>
      </trkpt>
      <trkpt lat="43.23514" lon="5.92532">
        <ele>597.6</ele>
        <time>2017-03-09T14:49:46Z</time>
      </trkpt>
      <trkpt lat="43.23514" lon="5.9252">
        <ele>597.12</ele>
        <time>2017-03-09T14:49:54Z</time>
      </trkpt>
      <trkpt lat="43.23511" lon="5.92505">
        <ele>597.6</ele>
        <time>2017-03-09T14:50:06Z</time>
      </trkpt>
      <trkpt lat="43.23507" lon="5.925">
        <ele>597.6</ele>
        <time>2017-03-09T14:50:12Z</time>
      </trkpt>
      <trkpt lat="43.23504" lon="5.925">
        <ele>598.08</ele>
        <time>2017-03-09T14:50:15Z</time>
      </trkpt>
      <trkpt lat="43.235" lon="5.925">
        <ele>598.08</ele>
        <time>2017-03-09T14:50:18Z</time>
      </trkpt>
      <trkpt lat="43.23497" lon="5.92499">
        <ele>598.08</ele>
        <time>2017-03-09T14:50:21Z</time>
      </trkpt>
      <trkpt lat="43.23492" lon="5.92498">
        <ele>598.08</ele>
        <time>2017-03-09T14:50:25Z</time>
      </trkpt>
      <trkpt lat="43.23487" lon="5.92495">
        <ele>597.6</ele>
        <time>2017-03-09T14:50:30Z</time>
      </trkpt>
      <trkpt lat="43.23482" lon="5.92483">
        <ele>598.08</ele>
        <time>2017-03-09T14:50:39Z</time>
      </trkpt>
      <trkpt lat="43.23481" lon="5.92462">
        <ele>598.08</ele>
        <time>2017-03-09T14:50:53Z</time>
      </trkpt>
      <trkpt lat="43.23481" lon="5.92457">
        <ele>598.08</ele>
        <time>2017-03-09T14:50:56Z</time>
      </trkpt>
      <trkpt lat="43.23484" lon="5.92442">
        <ele>598.56</ele>
        <time>2017-03-09T14:51:06Z</time>
      </trkpt>
      <trkpt lat="43.23486" lon="5.92427">
        <ele>598.08</ele>
        <time>2017-03-09T14:51:17Z</time>
      </trkpt>
      <trkpt lat="43.23489" lon="5.92416">
        <ele>598.56</ele>
        <time>2017-03-09T14:51:25Z</time>
      </trkpt>
      <trkpt lat="43.23491" lon="5.92409">
        <ele>599.04</ele>
        <time>2017-03-09T14:51:30Z</time>
      </trkpt>
      <trkpt lat="43.23496" lon="5.92398">
        <ele>599.52</ele>
        <time>2017-03-09T14:51:39Z</time>
      </trkpt>
      <trkpt lat="43.235" lon="5.92386">
        <ele>599.52</ele>
        <time>2017-03-09T14:51:48Z</time>
      </trkpt>
      <trkpt lat="43.23507" lon="5.92369">
        <ele>599.52</ele>
        <time>2017-03-09T14:52:01Z</time>
      </trkpt>
      <trkpt lat="43.23513" lon="5.92352">
        <ele>599.52</ele>
        <time>2017-03-09T14:52:13Z</time>
      </trkpt>
      <trkpt lat="43.2352" lon="5.92333">
        <ele>599.04</ele>
        <time>2017-03-09T14:52:27Z</time>
      </trkpt>
      <trkpt lat="43.2353" lon="5.92313">
        <ele>600</ele>
        <time>2017-03-09T14:52:42Z</time>
      </trkpt>
      <trkpt lat="43.23532" lon="5.92308">
        <ele>600</ele>
        <time>2017-03-09T14:52:45Z</time>
      </trkpt>
      <trkpt lat="43.23536" lon="5.9229">
        <ele>600</ele>
        <time>2017-03-09T14:52:57Z</time>
      </trkpt>
      <trkpt lat="43.23535" lon="5.9227">
        <ele>600</ele>
        <time>2017-03-09T14:53:10Z</time>
      </trkpt>
      <trkpt lat="43.23533" lon="5.92267">
        <ele>600.48</ele>
        <time>2017-03-09T14:53:12Z</time>
      </trkpt>
      <trkpt lat="43.23529" lon="5.92256">
        <ele>600</ele>
        <time>2017-03-09T14:53:20Z</time>
      </trkpt>
      <trkpt lat="43.23518" lon="5.92246">
        <ele>600.48</ele>
        <time>2017-03-09T14:53:33Z</time>
      </trkpt>
      <trkpt lat="43.23508" lon="5.92239">
        <ele>600.96</ele>
        <time>2017-03-09T14:53:42Z</time>
      </trkpt>
      <trkpt lat="43.23505" lon="5.92238">
        <ele>600.96</ele>
        <time>2017-03-09T14:53:44Z</time>
      </trkpt>
      <trkpt lat="43.23495" lon="5.92236">
        <ele>600.96</ele>
        <time>2017-03-09T14:53:52Z</time>
      </trkpt>
      <trkpt lat="43.23491" lon="5.92236">
        <ele>601.44</ele>
        <time>2017-03-09T14:53:55Z</time>
      </trkpt>
      <trkpt lat="43.23476" lon="5.92241">
        <ele>600.96</ele>
        <time>2017-03-09T14:54:09Z</time>
      </trkpt>
      <trkpt lat="43.23472" lon="5.92243">
        <ele>600.96</ele>
        <time>2017-03-09T14:54:13Z</time>
      </trkpt>
      <trkpt lat="43.23466" lon="5.92245">
        <ele>600.96</ele>
        <time>2017-03-09T14:54:18Z</time>
      </trkpt>
      <trkpt lat="43.23462" lon="5.92247">
        <ele>600.96</ele>
        <time>2017-03-09T14:54:21Z</time>
      </trkpt>
      <trkpt lat="43.23453" lon="5.92245">
        <ele>601.44</ele>
        <time>2017-03-09T14:54:31Z</time>
      </trkpt>
      <trkpt lat="43.23443" lon="5.92237">
        <ele>600.96</ele>
        <time>2017-03-09T14:54:42Z</time>
      </trkpt>
      <trkpt lat="43.23436" lon="5.92232">
        <ele>600.96</ele>
        <time>2017-03-09T14:54:49Z</time>
      </trkpt>
      <trkpt lat="43.23425" lon="5.92219">
        <ele>600.96</ele>
        <time>2017-03-09T14:55:03Z</time>
      </trkpt>
      <trkpt lat="43.23423" lon="5.92217">
        <ele>600.96</ele>
        <time>2017-03-09T14:55:05Z</time>
      </trkpt>
      <trkpt lat="43.23415" lon="5.92199">
        <ele>601.44</ele>
        <time>2017-03-09T14:55:19Z</time>
      </trkpt>
      <trkpt lat="43.23414" lon="5.9218">
        <ele>602.4</ele>
        <time>2017-03-09T14:55:33Z</time>
      </trkpt>
      <trkpt lat="43.23414" lon="5.92178">
        <ele>602.4</ele>
        <time>2017-03-09T14:55:34Z</time>
      </trkpt>
      <trkpt lat="43.23413" lon="5.92162">
        <ele>603.36</ele>
        <time>2017-03-09T14:55:45Z</time>
      </trkpt>
      <trkpt lat="43.23412" lon="5.9216">
        <ele>603.36</ele>
        <time>2017-03-09T14:55:47Z</time>
      </trkpt>
      <trkpt lat="43.2341" lon="5.92155">
        <ele>603.36</ele>
        <time>2017-03-09T14:55:51Z</time>
      </trkpt>
      <trkpt lat="43.23409" lon="5.92151">
        <ele>602.88</ele>
        <time>2017-03-09T14:55:54Z</time>
      </trkpt>
      <trkpt lat="43.23397" lon="5.92143">
        <ele>603.36</ele>
        <time>2017-03-09T14:56:07Z</time>
      </trkpt>
      <trkpt lat="43.23391" lon="5.9214">
        <ele>603.85</ele>
        <time>2017-03-09T14:56:13Z</time>
      </trkpt>
      <trkpt lat="43.23385" lon="5.92137">
        <ele>604.33</ele>
        <time>2017-03-09T14:56:18Z</time>
      </trkpt>
      <trkpt lat="43.23383" lon="5.92137">
        <ele>604.81</ele>
        <time>2017-03-09T14:56:20Z</time>
      </trkpt>
      <trkpt lat="43.23371" lon="5.92129">
        <ele>605.77</ele>
        <time>2017-03-09T14:56:33Z</time>
      </trkpt>
      <trkpt lat="43.23359" lon="5.9212">
        <ele>605.77</ele>
        <time>2017-03-09T14:56:45Z</time>
      </trkpt>
      <trkpt lat="43.23357" lon="5.92119">
        <ele>605.77</ele>
        <time>2017-03-09T14:56:47Z</time>
      </trkpt>
      <trkpt lat="43.23348" lon="5.92119">
        <ele>606.25</ele>
        <time>2017-03-09T14:56:56Z</time>
      </trkpt>
      <trkpt lat="43.23344" lon="5.92119">
        <ele>606.25</ele>
        <time>2017-03-09T14:57:00Z</time>
      </trkpt>
      <trkpt lat="43.23334" lon="5.9212">
        <ele>607.21</ele>
        <time>2017-03-09T14:57:09Z</time>
      </trkpt>
      <trkpt lat="43.23323" lon="5.92124">
        <ele>607.69</ele>
        <time>2017-03-09T14:57:18Z</time>
      </trkpt>
      <trkpt lat="43.23321" lon="5.92126">
        <ele>608.17</ele>
        <time>2017-03-09T14:57:21Z</time>
      </trkpt>
      <trkpt lat="43.23312" lon="5.92125">
        <ele>608.17</ele>
        <time>2017-03-09T14:57:31Z</time>
      </trkpt>
      <trkpt lat="43.23303" lon="5.92118">
        <ele>609.61</ele>
        <time>2017-03-09T14:57:43Z</time>
      </trkpt>
      <trkpt lat="43.23298" lon="5.92113">
        <ele>609.61</ele>
        <time>2017-03-09T14:57:49Z</time>
      </trkpt>
      <trkpt lat="43.23291" lon="5.92102">
        <ele>610.09</ele>
        <time>2017-03-09T14:57:56Z</time>
      </trkpt>
      <trkpt lat="43.23278" lon="5.92097">
        <ele>610.09</ele>
        <time>2017-03-09T14:58:09Z</time>
      </trkpt>
      <trkpt lat="43.23263" lon="5.92095">
        <ele>610.57</ele>
        <time>2017-03-09T14:58:24Z</time>
      </trkpt>
      <trkpt lat="43.23253" lon="5.92092">
        <ele>611.06</ele>
        <time>2017-03-09T14:58:34Z</time>
      </trkpt>
      <trkpt lat="43.23248" lon="5.92093">
        <ele>611.54</ele>
        <time>2017-03-09T14:58:37Z</time>
      </trkpt>
      <trkpt lat="43.23243" lon="5.92095">
        <ele>611.54</ele>
        <time>2017-03-09T14:58:41Z</time>
      </trkpt>
      <trkpt lat="43.2324" lon="5.92095">
        <ele>612.02</ele>
        <time>2017-03-09T14:58:44Z</time>
      </trkpt>
      <trkpt lat="43.23235" lon="5.92097">
        <ele>612.02</ele>
        <time>2017-03-09T14:58:49Z</time>
      </trkpt>
      <trkpt lat="43.23231" lon="5.92095">
        <ele>612.02</ele>
        <time>2017-03-09T14:58:52Z</time>
      </trkpt>
      <trkpt lat="43.2322" lon="5.92095">
        <ele>611.54</ele>
        <time>2017-03-09T14:59:01Z</time>
      </trkpt>
      <trkpt lat="43.23203" lon="5.92104">
        <ele>612.02</ele>
        <time>2017-03-09T14:59:17Z</time>
      </trkpt>
      <trkpt lat="43.23194" lon="5.92106">
        <ele>612.5</ele>
        <time>2017-03-09T14:59:25Z</time>
      </trkpt>
      <trkpt lat="43.2319" lon="5.92106">
        <ele>612.5</ele>
        <time>2017-03-09T14:59:29Z</time>
      </trkpt>
      <trkpt lat="43.23181" lon="5.92104">
        <ele>612.02</ele>
        <time>2017-03-09T14:59:38Z</time>
      </trkpt>
      <trkpt lat="43.23169" lon="5.92095">
        <ele>612.5</ele>
        <time>2017-03-09T14:59:50Z</time>
      </trkpt>
      <trkpt lat="43.23168" lon="5.92094">
        <ele>612.02</ele>
        <time>2017-03-09T14:59:51Z</time>
      </trkpt>
      <trkpt lat="43.23159" lon="5.92082">
        <ele>612.02</ele>
        <time>2017-03-09T15:00:04Z</time>
      </trkpt>
      <trkpt lat="43.2315" lon="5.92068">
        <ele>611.06</ele>
        <time>2017-03-09T15:00:17Z</time>
      </trkpt>
      <trkpt lat="43.23148" lon="5.92066">
        <ele>611.54</ele>
        <time>2017-03-09T15:00:19Z</time>
      </trkpt>
      <trkpt lat="43.23142" lon="5.92062">
        <ele>611.54</ele>
        <time>2017-03-09T15:00:25Z</time>
      </trkpt>
      <trkpt lat="43.2314" lon="5.92061">
        <ele>612.02</ele>
        <time>2017-03-09T15:00:27Z</time>
      </trkpt>
      <trkpt lat="43.2313" lon="5.92059">
        <ele>612.98</ele>
        <time>2017-03-09T15:00:35Z</time>
      </trkpt>
      <trkpt lat="43.23125" lon="5.92057">
        <ele>612.5</ele>
        <time>2017-03-09T15:00:40Z</time>
      </trkpt>
      <trkpt lat="43.23113" lon="5.92053">
        <ele>612.5</ele>
        <time>2017-03-09T15:00:51Z</time>
      </trkpt>
      <trkpt lat="43.23102" lon="5.92047">
        <ele>612.98</ele>
        <time>2017-03-09T15:01:01Z</time>
      </trkpt>
      <trkpt lat="43.23099" lon="5.92046">
        <ele>612.98</ele>
        <time>2017-03-09T15:01:05Z</time>
      </trkpt>
      <trkpt lat="43.23096" lon="5.92045">
        <ele>612.98</ele>
        <time>2017-03-09T15:01:07Z</time>
      </trkpt>
      <trkpt lat="43.23085" lon="5.92044">
        <ele>613.94</ele>
        <time>2017-03-09T15:01:17Z</time>
      </trkpt>
      <trkpt lat="43.23074" lon="5.92042">
        <ele>613.94</ele>
        <time>2017-03-09T15:01:28Z</time>
      </trkpt>
      <trkpt lat="43.23068" lon="5.92042">
        <ele>614.42</ele>
        <time>2017-03-09T15:01:34Z</time>
      </trkpt>
      <trkpt lat="43.23066" lon="5.92042">
        <ele>614.42</ele>
        <time>2017-03-09T15:01:36Z</time>
      </trkpt>
      <trkpt lat="43.23062" lon="5.92043">
        <ele>614.9</ele>
        <time>2017-03-09T15:01:40Z</time>
      </trkpt>
      <trkpt lat="43.23059" lon="5.92044">
        <ele>614.42</ele>
        <time>2017-03-09T15:01:42Z</time>
      </trkpt>
      <trkpt lat="43.23057" lon="5.92044">
        <ele>614.9</ele>
        <time>2017-03-09T15:01:44Z</time>
      </trkpt>
      <trkpt lat="43.23045" lon="5.92047">
        <ele>615.38</ele>
        <time>2017-03-09T15:01:56Z</time>
      </trkpt>
      <trkpt lat="43.23032" lon="5.92052">
        <ele>615.86</ele>
        <time>2017-03-09T15:02:08Z</time>
      </trkpt>
      <trkpt lat="43.23021" lon="5.92047">
        <ele>615.86</ele>
        <time>2017-03-09T15:02:20Z</time>
      </trkpt>
      <trkpt lat="43.23021" lon="5.92048">
        <ele>614.9</ele>
        <time>2017-03-09T15:02:34Z</time>
      </trkpt>
      <trkpt lat="43.23021" lon="5.92048">
        <ele>616.34</ele>
        <time>2017-03-09T15:02:55Z</time>
      </trkpt>
    </trkseg>
  </trk>
</gpx>